GFSSW_sfc_temp_000.txt.gz
Temp
66 66 65 65 65 65 64 65 65 65 65 65 65 67 67 66 65 61 54 61 63 72 71 63 62 60 59 55 57 54 44 41 43 46 50 56 54 61 62 59 61 62 61 65 66
65 66 65 65 65 65 64 64 64 64 64 65 64 65 66 65 61 57 65 70 71 73 62 57 54 56 51 52 53 50 43 45 51 52 52 56 56 56 58 57 58 60 65 64 62
66 65 65 65 65 65 64 64 64 64 64 64 65 64 63 64 56 56 71 72 72 72 64 59 57 54 48 50 50 49 46 52 53 56 57 56 55 59 55 54 59 61 63 63 60
66 65 65 65 64 65 65 64 64 64 64 64 64 64 63 61 45 58 71 72 73 68 62 58 52 47 46 46 51 43 51 53 55 58 56 53 57 55 57 58 64 63 63 62 62
65 66 64 65 64 65 64 63 63 64 63 63 63 63 58 52 53 63 69 67 65 63 59 59 49 48 44 45 47 46 48 53 55 56 56 58 55 54 56 61 64 64 63 63 63
65 65 64 64 64 64 63 63 63 64 63 62 62 62 52 42 60 62 63 61 61 59 55 55 51 52 46 46 45 49 50 50 53 53 55 54 55 54 59 60 59 60 61 62 62
63 64 64 63 64 63 63 62 63 63 63 63 62 59 49 48 59 59 63 57 59 58 54 56 55 50 50 45 50 49 44 47 49 52 52 54 51 52 60 59 58 58 58 61 62
60 62 63 63 63 63 63 62 62 62 62 63 62 53 44 60 58 59 59 57 59 59 59 59 58 52 49 51 50 46 42 36 46 50 52 53 43 53 59 59 59 60 57 58 61
61 60 61 62 62 62 62 62 61 61 61 62 53 48 42 62 54 58 58 56 56 57 57 64 56 48 47 41 37 40 31 35 42 50 50 49 44 53 58 58 56 54 55 57 58
61 59 59 60 62 61 61 61 60 59 58 58 56 44 49 49 55 57 56 58 53 53 52 50 47 40 41 37 27 32 34 39 42 48 46 44 45 52 54 54 52 53 54 55 56
60 59 58 59 61 61 58 53 47 46 50 44 46 46 51 55 58 54 56 54 51 47 39 43 37 36 39 40 41 37 35 35 41 48 45 42 43 47 50 51 50 54 52 56 55
59 58 58 58 61 60 56 48 47 49 40 48 48 49 53 55 48 51 57 47 44 36 38 39 34 40 43 41 42 40 37 37 40 47 46 43 42 47 50 51 51 52 54 54 56
58 57 58 57 59 56 53 49 52 52 39 43 47 47 48 52 47 47 52 46 39 36 39 34 38 44 42 38 36 34 33 33 34 42 44 41 38 44 51 54 56 57 58 59 59
57 57 58 57 54 53 49 53 52 52 26 35 40 45 48 51 44 54 54 47 40 37 37 36 42 40 37 36 37 32 39 39 38 33 26 38 26 38 43 46 51 55 55 55 57
56 56 57 56 52 49 52 52 52 46 14 39 40 54 50 46 48 45 54 50 37 37 38 34 35 36 35 37 40 36 41 38 38 33 30 33 29 32 41 42 48 50 50 53 57
54 56 56 52 52 53 55 56 50 26 14 35 42 42 42 44 48 47 49 53 51 42 41 37 42 40 38 41 42 43 37 36 35 35 25 31 30 32 37 41 45 50 51 53 53
55 56 54 54 48 54 56 49 31 21 38 35 38 42 42 40 43 44 41 39 36 31 31 37 37 42 42 35 40 39 34 23 24 23 22 33 30 36 42 46 47 49 51 52 51
53 55 53 54 54 55 51 38 23 34 33 42 41 41 37 41 42 42 39 36 41 38 32 26 23 36 40 38 34 35 34 24 17 21 21 34 26 33 46 52 55 56 55 50 48
54 50 49 50 54 54 44 31 29 35 40 37 39 35 35 39 39 39 38 38 41 39 31 29 26 37 39 43 43 34 29 37 30 32 25 26 32 41 47 47 50 50 52 49 48
48 45 46 52 54 49 39 33 35 42 41 40 32 37 32 35 34 35 35 37 41 43 43 35 28 35 38 42 43 37 41 29 29 20 16 24 28 31 41 43 47 51 54 47 48
46 40 48 53 52 42 32 33 38 44 45 40 37 35 39 37 37 35 33 38 40 40 41 36 33 30 36 33 33 34 31 32 33 30 18 18 27 40 44 44 45 49 52 49 48
43 36 50 53 38 39 33 38 45 41 43 45 43 43 39 36 32 30 31 37 43 41 36 40 35 28 31 39 43 40 36 34 26 20 26 21 29 47 41 44 47 49 48 47 48
41 43 50 50 33 35 38 40 42 41 41 42 41 44 44 39 33 33 36 44 44 41 37 40 33 27 28 34 38 35 37 38 36 33 24 20 31 48 49 50 48 46 44 45 46
42 36 42 44 44 41 39 38 37 45 43 46 44 44 41 39 38 34 35 43 44 44 48 45 36 31 27 30 34 32 34 37 35 27 29 31 35 44 45 48 49 45 44 45 46
44 38 40 33 38 41 43 40 37 38 43 46 43 43 40 36 37 35 38 41 44 47 45 40 32 33 35 37 34 35 34 35 32 34 29 35 37 42 46 46 49 50 45 45 46
42 40 42 40 44 39 38 37 38 41 43 41 39 43 42 38 40 36 38 39 39 42 41 41 32 33 32 36 35 33 36 36 36 37 37 38 37 48 48 51 50 47 46 46 47
44 46 45 43 42 38 37 38 40 45 45 45 45 43 41 44 47 48 48 45 45 43 38 36 33 32 29 36 35 29 34 37 39 40 40 34 41 48 46 47 45 45 48 48 47

GFSSW_sfc_temp_003.txt.gz
Temp
66 66 66 66 65 65 65 65 65 65 65 65 65 65 67 66 65 61 54 62 63 72 71 66 65 63 63 60 61 59 50 46 49 50 55 62 61 67 69 67 69 72 72 74 71
66 66 66 66 65 65 65 65 65 65 64 65 65 65 66 65 60 57 65 70 71 72 64 61 58 60 56 57 57 55 48 49 55 56 57 61 61 63 64 65 66 69 73 73 71
65 66 66 65 65 65 65 64 64 64 64 64 64 65 64 65 55 58 70 71 72 71 66 62 60 59 54 55 54 53 49 54 57 60 61 59 60 64 62 59 65 67 69 71 70
63 65 65 65 65 65 65 65 64 64 63 63 63 64 63 62 46 60 71 72 73 68 64 59 57 52 50 49 54 49 53 55 58 61 59 57 60 58 60 63 69 68 69 69 71
63 62 65 65 64 65 65 64 64 64 63 63 63 63 59 53 54 65 68 67 65 64 61 58 52 51 48 49 51 49 51 55 57 57 57 59 56 58 58 64 68 68 66 68 69
63 61 62 63 64 64 64 64 63 64 63 62 62 62 54 45 61 62 65 63 62 64 59 59 53 54 50 49 49 51 51 52 54 56 57 55 57 57 61 64 63 64 66 68 67
62 61 60 62 63 63 64 63 63 63 63 63 62 59 50 49 61 60 62 60 61 60 55 58 58 54 52 48 53 51 47 50 52 54 54 57 51 52 63 63 62 63 65 67 68
61 61 59 60 61 63 63 63 63 63 63 63 62 54 45 60 59 59 61 59 61 61 60 59 59 54 51 53 50 47 47 40 50 52 54 56 45 56 62 61 60 62 62 63 67
59 60 61 59 60 61 62 62 62 61 62 62 54 49 43 62 54 58 59 57 58 58 59 63 58 51 50 43 40 41 35 38 44 53 53 51 46 55 61 58 58 60 61 61 64
59 59 60 59 58 59 60 62 61 59 58 58 56 46 49 49 55 56 58 58 54 54 53 52 47 42 42 39 31 33 34 39 40 48 49 46 46 52 56 57 58 58 59 60 61
59 59 59 59 58 59 58 53 47 45 48 44 45 46 51 55 58 54 57 54 52 49 40 45 38 34 39 41 41 39 37 37 43 48 45 45 46 50 54 53 54 56 58 60 60
58 57 58 58 59 58 56 49 48 50 40 48 48 49 53 55 48 51 57 47 45 38 41 40 34 41 43 42 41 40 37 37 44 46 45 44 42 49 52 53 55 56 57 58 59
57 56 57 58 58 55 52 51 53 54 41 43 47 47 49 52 47 47 52 46 41 37 38 35 39 44 42 39 39 40 37 39 38 42 45 42 40 46 53 55 56 57 59 61 61
55 55 56 57 51 54 49 53 53 53 28 37 40 45 48 51 44 54 54 48 42 38 41 39 44 41 37 36 39 33 41 40 38 35 29 41 28 43 48 50 52 54 57 59 60
54 55 55 56 49 49 52 54 53 48 15 38 40 54 50 46 47 46 54 51 38 37 38 35 36 35 36 37 40 37 42 39 38 35 32 35 30 37 44 43 48 52 54 56 59
54 55 55 52 51 51 54 53 49 31 16 35 41 42 42 44 46 48 49 54 51 42 42 39 43 41 39 42 42 43 39 38 37 35 25 32 32 34 42 45 48 52 55 55 59
53 53 52 53 47 55 53 47 31 22 38 34 37 42 42 39 42 44 41 39 37 31 31 38 39 41 42 37 40 40 33 26 24 23 23 35 31 37 46 50 51 53 55 56 58
53 53 53 53 53 53 50 37 26 33 33 43 42 42 38 42 42 42 39 36 41 37 32 24 24 38 41 39 35 35 34 26 19 20 25 33 28 36 47 53 53 56 57 58 57
53 47 48 49 53 51 42 31 30 34 39 39 41 36 35 40 41 40 38 38 42 40 32 28 28 38 39 42 42 34 30 39 28 29 24 30 35 43 46 49 51 52 54 55 56
48 46 45 51 53 48 37 33 36 41 43 42 33 38 33 36 35 37 37 39 40 44 45 38 28 36 39 41 41 38 40 28 29 21 19 27 29 32 41 47 50 51 52 56 56
46 41 47 52 52 42 32 35 38 44 45 40 37 35 37 36 36 34 34 38 41 39 43 40 33 32 37 34 34 34 32 32 32 29 23 23 31 42 44 47 48 48 53 55 54
42 36 48 50 37 35 34 38 45 41 44 44 43 41 37 38 36 35 32 37 43 41 36 40 35 29 31 40 43 41 37 36 27 25 28 26 30 50 49 47 48 50 52 52 51
40 43 49 47 33 35 39 40 43 41 41 42 41 43 42 38 33 34 35 43 43 41 37 39 33 25 26 34 39 34 37 38 37 34 27 24 30 49 48 47 50 49 50 50 47
42 36 42 44 43 37 36 37 38 45 42 45 42 43 40 38 40 35 35 42 43 43 47 45 36 28 28 32 34 31 35 36 33 28 29 30 34 42 46 47 48 50 51 48 46
44 37 40 34 38 40 41 40 37 37 43 44 41 43 40 37 38 36 36 39 42 45 44 41 31 33 35 37 34 34 34 35 32 33 29 35 35 42 46 46 48 50 50 46 45
39 40 39 38 43 41 37 35 37 39 42 40 39 44 44 39 41 35 38 38 38 41 41 42 33 34 32 36 35 32 35 35 36 36 35 37 35 47 49 49 47 48 48 45 45
44 46 43 42 41 38 35 38 39 43 44 45 44 43 41 43 48 48 48 46 45 42 39 37 33 32 29 36 34 29 34 35 36 39 37 32 40 47 46 44 44 47 46 47 47

GFSSW_sfc_temp_006.txt.gz
Temp
65 66 67 67 66 66 65 65 66 65 65 65 65 65 66 66 65 63 62 70 71 72 72 73 72 72 72 69 70 70 61 58 60 61 65 71 69 76 78 76 78 80 80 82 81
65 65 66 66 66 66 65 65 65 65 65 65 65 65 66 65 67 62 71 71 72 72 71 68 66 69 67 66 67 65 59 61 69 69 66 70 70 73 71 73 75 78 83 81 81
64 64 64 66 66 65 65 65 65 65 65 64 64 65 64 66 57 61 71 71 72 73 72 71 69 67 62 65 64 63 58 67 64 68 69 68 68 73 70 68 74 75 79 80 80
63 63 63 63 65 65 65 65 65 64 64 63 63 64 63 61 47 65 70 72 72 74 68 67 65 61 59 57 64 56 63 64 65 67 65 64 69 67 69 72 79 78 79 78 79
61 62 63 61 63 64 64 65 65 64 64 63 63 63 63 56 56 70 69 69 73 70 64 63 61 61 56 59 59 57 62 63 65 63 65 67 64 65 67 74 77 77 77 77 79
61 61 61 61 61 62 63 64 64 64 64 63 62 63 61 51 68 69 70 69 70 67 64 62 62 63 59 57 57 59 58 60 62 63 64 61 63 66 68 74 73 75 75 78 79
61 60 61 61 60 61 62 64 64 64 63 63 62 64 56 59 69 70 69 67 67 68 60 62 65 61 61 55 59 58 53 59 61 62 60 64 57 60 70 72 71 73 76 77 79
61 60 60 61 60 59 60 64 63 63 63 63 63 61 54 64 69 65 69 67 68 69 66 67 66 61 58 59 57 53 53 49 58 59 62 61 51 64 69 69 68 71 74 75 77
60 60 59 60 60 58 59 61 62 62 62 62 59 57 51 64 58 66 69 64 65 66 67 67 64 58 56 51 48 51 47 47 52 60 59 58 55 63 69 67 66 70 72 74 75
60 60 59 59 59 58 58 60 62 61 62 62 58 50 55 53 59 62 66 66 61 61 58 57 56 51 51 48 43 46 44 48 49 55 55 53 54 62 66 65 65 68 71 72 72
58 58 58 58 59 59 56 55 48 48 54 52 52 52 54 60 63 58 64 61 61 57 48 52 45 41 49 51 52 48 46 47 52 55 51 51 53 58 62 63 63 65 67 69 72
56 56 56 56 58 58 54 48 53 59 45 54 55 54 57 60 51 55 63 54 52 47 50 45 39 51 51 50 47 47 45 45 51 54 51 51 50 56 59 60 63 64 66 68 71
53 55 55 56 56 56 51 51 56 54 48 47 53 52 54 57 52 51 58 54 50 45 46 44 46 49 47 46 43 45 43 44 44 50 52 48 47 56 62 64 64 65 66 68 69
54 55 55 56 52 55 50 55 53 50 35 40 44 50 54 56 49 59 61 55 48 45 46 46 52 45 44 43 46 40 49 46 43 41 37 47 37 52 58 59 61 63 65 66 68
54 55 55 55 47 49 55 55 50 47 27 43 43 58 55 51 51 49 60 54 45 45 45 43 42 41 39 42 47 43 47 45 44 41 39 42 32 47 54 52 57 63 66 69 70
56 55 55 52 52 55 55 52 48 32 26 37 43 42 43 48 48 50 50 56 54 46 46 47 50 47 47 48 48 48 44 43 43 39 28 40 39 42 51 56 59 62 66 69 70
56 54 52 53 43 57 53 46 31 29 43 35 38 42 43 42 43 46 43 41 40 32 33 41 43 47 48 42 46 45 38 30 27 26 30 46 40 43 54 57 60 62 66 69 70
53 53 52 51 55 54 48 37 29 37 40 45 44 44 40 44 43 43 40 37 44 41 37 33 34 43 47 43 42 40 40 33 25 30 35 44 34 44 58 61 63 64 65 67 68
53 52 51 54 57 52 40 31 34 41 45 41 42 37 38 43 44 41 40 41 45 45 35 33 32 44 46 48 47 38 31 44 33 36 27 38 43 53 57 55 59 61 64 64 65
45 50 50 56 54 47 36 34 38 47 48 47 38 42 36 39 40 41 41 47 46 49 51 42 32 44 45 46 46 42 45 31 31 23 24 36 37 41 50 54 58 59 61 62 64
46 40 48 55 50 39 33 34 42 49 50 45 42 41 43 40 42 41 42 46 49 48 50 46 39 37 40 36 40 36 33 34 36 34 27 29 38 55 52 53 54 57 60 61 62
43 34 52 50 37 36 36 37 47 46 50 48 49 47 44 44 40 41 41 45 51 49 41 47 40 32 37 49 50 48 41 39 29 28 32 33 36 57 56 57 56 57 59 61 61
39 40 50 47 35 36 40 40 46 45 46 47 45 48 48 44 38 43 43 49 50 48 45 47 35 30 35 40 44 38 43 42 36 34 30 28 36 53 55 56 58 58 59 61 60
39 34 42 42 47 42 42 42 41 49 47 49 46 48 45 43 45 41 41 46 50 50 48 48 41 34 33 36 42 33 38 37 34 30 35 36 39 47 51 53 56 58 58 59 60
42 38 42 35 41 47 47 45 42 41 48 50 45 46 44 40 41 40 43 44 46 48 48 46 33 35 38 40 38 36 35 36 32 37 32 40 42 48 52 53 55 57 57 57 56
37 40 47 43 46 47 43 43 42 43 46 43 44 46 46 43 43 41 44 44 44 48 45 46 34 35 32 39 39 34 37 37 36 38 40 42 41 52 55 56 53 52 51 52 54
44 46 46 41 42 44 43 44 44 47 47 48 48 46 44 46 50 52 51 50 48 46 43 39 35 33 31 42 40 32 36 37 37 40 41 35 45 53 50 48 46 47 51 52 54

GFSSW_sfc_temp_009.txt.gz
Temp
64 64 65 65 66 66 66 65 65 66 65 65 65 65 66 66 65 67 63 72 75 73 71 76 76 76 76 72 75 75 62 59 63 66 69 79 75 80 83 79 83 85 84 85 85
63 64 64 64 65 65 65 66 65 65 65 65 65 65 65 65 69 65 73 73 72 73 72 71 69 72 69 69 70 66 59 62 73 74 72 75 74 77 74 75 77 81 86 86 85
63 62 63 63 63 64 64 65 65 65 65 65 64 64 64 68 62 66 76 72 72 73 75 75 74 71 65 69 67 66 59 69 72 72 73 71 73 77 73 70 77 77 82 86 84
62 62 62 62 63 63 63 65 65 65 65 64 64 64 64 65 47 69 70 72 72 75 73 71 69 64 62 61 68 61 67 69 70 72 68 67 73 71 73 74 81 83 85 85 82
62 62 61 61 62 62 62 63 64 65 64 64 63 64 64 54 56 73 69 71 74 70 67 66 64 65 59 64 66 61 64 69 70 68 69 70 67 68 70 77 80 81 80 79 81
62 62 61 61 61 61 61 62 63 65 64 63 63 63 62 51 70 72 74 73 74 69 65 67 64 68 63 64 61 65 64 66 67 67 67 64 65 68 70 76 76 77 77 79 81
62 62 61 60 60 61 61 60 62 64 64 63 63 65 60 60 74 74 73 72 74 71 62 66 64 63 64 58 65 62 56 62 64 65 63 67 59 61 71 74 73 75 77 78 80
61 61 60 60 60 60 60 59 60 63 63 63 63 65 56 68 75 70 73 70 74 74 70 69 66 62 61 63 60 55 58 52 64 64 66 64 52 68 73 73 71 74 76 77 79
60 60 59 60 59 59 59 58 59 61 63 63 61 61 55 65 62 70 73 67 69 70 70 70 64 60 59 53 52 55 50 53 57 65 63 61 57 68 71 71 71 73 75 76 78
59 59 57 58 58 58 58 58 58 59 61 62 61 53 59 57 63 67 72 70 65 64 61 60 58 54 54 52 45 50 49 53 53 61 59 57 57 65 69 69 68 70 73 74 76
57 57 56 57 56 57 58 52 50 48 52 54 55 56 58 63 66 62 68 65 64 60 49 53 45 45 53 56 56 54 50 51 57 62 56 54 56 61 66 67 66 68 70 71 74
57 55 56 55 56 56 56 45 48 51 44 58 58 59 62 64 53 59 67 57 55 48 54 45 41 54 58 56 53 51 49 49 55 59 55 53 53 60 63 64 67 67 68 69 72
56 55 55 55 56 56 54 49 52 52 46 49 56 56 56 60 55 54 61 59 53 50 49 46 50 53 53 50 47 49 47 49 49 54 55 51 50 57 65 67 68 69 69 70 71
56 55 55 56 53 50 50 54 52 51 34 40 45 53 56 59 51 62 64 58 52 48 50 49 56 49 49 46 50 44 55 52 48 44 41 51 39 53 61 63 66 68 69 70 71
57 56 55 55 51 48 54 55 52 48 27 42 45 62 58 54 53 52 64 56 48 50 50 46 46 46 44 47 52 46 50 48 47 43 41 45 38 49 60 57 63 68 68 70 72
57 56 56 55 53 56 56 52 49 32 27 37 44 44 45 52 51 53 53 59 58 50 50 50 54 51 50 52 52 51 46 45 44 38 29 41 43 45 53 59 61 67 69 70 73
56 55 51 54 46 59 54 46 30 27 41 35 39 44 44 43 45 47 44 43 42 33 35 44 46 50 52 45 49 46 38 33 29 27 31 50 44 48 58 62 63 63 66 69 72
55 53 54 55 53 55 47 38 28 38 41 47 43 43 39 44 45 46 43 39 48 46 41 34 35 45 49 46 44 41 41 35 28 33 38 49 39 48 61 65 65 66 67 68 70
54 55 52 52 54 52 38 31 34 42 47 42 42 37 38 43 44 44 44 42 48 49 38 38 36 49 50 51 49 42 35 47 35 39 31 40 47 55 60 60 63 63 64 65 68
47 50 50 56 58 47 37 34 37 51 51 48 39 42 35 39 39 42 42 50 46 52 54 45 35 46 49 50 50 46 49 32 32 24 27 39 42 44 53 56 61 62 62 65 67
47 41 49 58 54 40 34 34 42 53 53 48 45 44 44 42 45 43 44 50 54 52 53 49 42 39 43 40 43 40 37 35 39 36 28 28 38 55 54 56 56 58 61 62 63
45 35 50 57 36 39 37 38 46 48 51 50 52 51 49 48 46 47 46 48 55 54 44 50 42 33 39 50 53 49 42 40 30 31 33 34 35 56 58 59 60 59 61 63 65
43 41 51 49 35 37 38 40 48 46 48 50 48 52 53 49 43 48 48 53 54 51 48 48 38 31 35 43 49 43 46 46 42 37 30 28 37 58 57 57 58 59 62 63 63
38 35 41 43 46 45 38 39 42 49 50 52 50 53 50 48 49 46 45 49 53 53 49 52 43 35 34 38 44 35 40 42 37 31 35 37 40 49 53 55 58 60 62 62 62
40 40 45 37 41 44 46 45 41 42 51 53 48 50 49 44 45 44 47 48 50 51 50 48 33 37 41 43 42 40 39 40 33 36 31 39 42 48 52 54 56 60 60 59 58
38 39 45 46 51 50 47 46 45 46 49 46 47 50 50 47 48 43 47 47 46 49 47 47 36 36 33 41 42 38 43 41 39 38 36 36 37 51 55 57 55 53 54 53 53
46 48 42 42 47 48 48 48 47 50 49 52 51 50 47 49 53 53 54 53 52 48 44 41 35 33 32 44 42 35 39 38 38 41 39 34 42 51 52 51 48 47 48 49 53

GFSSW_sfc_temp_012.txt.gz
Temp
63 64 64 64 64 65 65 65 66 66 66 66 65 65 65 65 65 64 58 68 71 75 72 73 73 72 72 67 70 70 54 51 55 59 63 73 69 72 74 70 74 74 73 75 79
63 63 63 63 64 64 64 65 65 66 65 65 65 65 65 64 66 62 71 75 75 74 70 68 66 69 63 64 64 59 52 55 65 67 65 69 69 69 67 68 67 71 77 79 78
63 63 63 63 63 63 63 64 64 65 65 65 65 64 64 65 57 64 76 74 73 74 71 72 72 68 60 63 63 60 52 63 66 69 69 66 66 70 66 62 68 68 73 76 76
63 62 63 62 62 62 62 63 63 63 65 65 64 64 64 62 46 68 74 73 73 73 69 68 66 60 57 56 64 56 63 64 65 69 67 63 68 65 66 66 73 73 74 73 72
62 62 62 62 62 62 62 62 62 63 64 64 64 64 61 53 57 70 70 71 72 68 65 65 61 60 55 60 62 58 61 66 67 66 65 67 62 62 64 70 73 74 74 72 71
62 62 62 62 61 61 61 61 61 62 62 64 63 63 57 49 70 73 73 72 70 66 64 66 63 64 60 60 59 62 62 63 64 65 64 62 61 62 64 70 70 71 70 71 71
62 62 61 61 61 61 61 61 61 60 61 64 63 63 57 57 74 70 69 71 73 68 61 67 66 61 61 57 63 61 53 58 59 61 60 62 55 57 65 68 67 67 69 72 72
61 61 60 60 60 60 60 60 60 59 60 63 64 61 53 71 71 70 70 68 72 72 66 67 66 60 59 61 59 52 52 44 59 61 62 59 46 60 67 65 64 66 68 70 71
59 59 59 58 58 58 59 59 59 60 60 62 59 57 51 65 62 69 71 66 68 68 66 69 64 58 58 49 45 49 41 46 52 61 59 56 49 61 66 65 62 63 65 68 70
58 58 58 57 57 57 57 58 59 58 59 60 62 51 58 55 63 67 70 70 64 63 61 59 56 49 49 45 36 42 43 48 47 55 55 52 51 58 62 63 60 61 62 63 66
58 57 57 56 56 56 55 53 47 48 51 48 51 55 58 64 66 63 68 65 64 58 48 53 44 40 48 50 51 50 47 45 51 58 52 50 51 55 59 60 60 61 62 64 66
57 56 56 56 56 57 54 47 48 48 42 52 58 58 62 62 53 58 67 56 53 46 51 45 39 50 55 55 51 49 44 43 50 56 51 48 48 53 57 58 60 61 62 63 65
56 56 56 56 56 54 50 50 53 50 43 47 55 56 56 60 53 53 60 58 51 46 46 42 48 54 51 49 46 45 43 44 44 50 50 47 43 48 57 59 61 62 64 65 64
56 57 57 55 51 52 49 54 52 50 34 39 44 54 57 57 51 61 63 58 52 46 49 48 53 50 47 46 48 40 50 49 47 40 32 46 28 43 51 54 57 58 58 60 62
57 57 57 56 49 47 50 52 51 46 25 40 44 62 57 52 52 52 63 57 48 49 49 42 45 45 43 46 50 44 49 46 44 38 33 36 30 39 50 48 53 54 58 59 61
56 56 56 52 51 54 53 51 46 30 26 35 43 45 45 51 51 53 54 58 58 50 51 48 53 49 48 51 50 50 45 42 40 35 21 33 35 37 44 50 53 53 57 59 60
56 56 54 54 44 57 50 44 30 25 38 35 38 44 45 44 45 47 44 42 39 33 35 42 44 49 51 43 47 46 38 23 21 22 21 42 36 40 50 55 56 52 55 59 60
55 54 54 54 53 55 46 35 26 36 36 44 42 44 40 44 43 43 41 38 45 43 37 30 31 44 49 44 40 40 39 25 22 20 26 40 28 39 51 55 58 58 58 58 58
55 53 49 51 54 51 38 29 30 39 44 40 40 35 35 43 43 42 40 40 44 47 34 33 35 49 49 49 47 39 31 40 31 31 23 31 38 49 54 55 57 55 57 55 57
48 50 46 54 54 47 36 34 37 41 48 46 37 42 34 39 40 40 40 47 46 50 50 44 30 44 47 48 47 42 46 31 29 14 19 29 33 36 45 47 52 52 50 53 55
48 42 48 55 53 41 33 34 40 48 52 47 43 42 42 38 42 40 42 49 50 49 52 47 37 37 41 38 37 38 35 35 34 30 20 22 30 46 46 48 48 51 52 52 53
45 36 50 54 38 37 36 36 44 47 52 51 52 49 44 44 42 42 43 48 54 52 44 48 41 27 34 46 47 45 38 38 28 23 29 28 30 52 51 50 52 52 55 51 55
42 41 51 50 34 36 39 40 45 46 47 50 49 52 51 46 41 46 47 51 52 49 45 47 35 25 28 39 45 41 42 43 40 36 28 25 31 54 54 53 54 55 54 55 58
42 35 42 44 44 41 37 39 40 48 50 53 50 53 50 47 48 44 44 48 51 51 51 51 41 30 25 30 37 31 37 42 38 30 31 33 36 45 49 51 49 49 52 53 54
42 40 44 37 41 42 42 43 40 41 51 53 48 50 48 43 43 43 47 46 49 49 49 45 31 33 38 41 39 37 37 39 35 35 31 35 36 42 46 48 51 52 50 51 50
40 39 43 46 47 41 44 40 43 47 48 47 46 50 49 45 45 44 46 46 44 47 44 44 32 34 29 39 38 35 39 40 42 40 38 38 37 47 48 51 49 44 46 47 48
45 48 42 43 46 46 45 47 47 49 49 50 51 49 46 47 50 50 50 51 50 45 43 39 35 32 26 39 37 32 38 40 41 42 40 34 41 48 47 49 46 42 44 46 48

GFSSW_sfc_temp_015.txt.gz
Temp
63 63 64 63 63 63 64 65 65 65 66 66 66 65 65 65 64 61 56 63 66 73 73 69 67 66 65 60 62 61 46 43 49 52 56 66 62 68 69 66 68 67 66 72 76
63 63 63 63 63 63 63 63 64 65 65 65 65 65 65 64 60 58 67 72 73 74 67 63 61 63 55 57 58 53 45 48 57 59 58 63 61 61 63 64 61 63 71 71 75
63 63 63 63 63 63 63 62 63 64 64 65 65 65 64 64 56 58 72 73 74 74 68 66 65 62 54 55 55 54 47 56 60 63 63 62 61 64 59 57 63 64 65 69 69
63 63 63 63 63 62 62 62 62 62 63 64 65 64 63 60 44 61 74 75 74 71 66 62 60 54 52 51 57 49 57 60 61 63 62 59 63 59 59 60 66 66 68 69 66
62 62 63 61 62 62 62 62 62 62 62 63 64 64 59 52 53 68 72 73 70 67 60 58 55 54 50 53 55 52 56 61 62 62 61 63 58 58 58 64 67 68 69 65 67
61 62 62 62 62 61 61 61 62 61 61 62 63 63 55 47 68 69 68 67 66 64 59 59 58 58 54 54 53 57 58 57 59 59 59 59 57 57 58 65 63 65 66 65 65
60 61 61 60 60 60 60 60 61 61 60 60 62 61 54 53 68 69 69 68 67 63 59 64 64 59 55 53 58 57 50 53 54 57 56 60 52 53 60 62 61 61 61 64 66
60 59 59 59 59 59 59 59 60 60 60 60 61 58 47 67 66 67 67 66 69 69 65 66 65 60 58 56 55 49 48 40 52 57 57 56 44 56 61 58 59 62 64 63 66
58 58 58 58 58 58 58 58 59 59 60 60 56 52 47 65 62 66 66 64 65 61 63 68 62 55 57 50 42 43 35 40 46 58 56 53 46 57 61 60 56 59 61 63 65
58 58 57 57 57 57 56 58 57 58 57 58 57 48 54 53 61 65 66 68 62 59 55 55 53 48 49 45 34 37 36 42 43 51 53 49 47 54 58 57 54 55 56 57 60
58 57 57 57 57 56 53 47 43 45 48 47 48 51 56 62 65 60 65 64 61 57 47 51 43 39 39 43 45 43 41 40 45 53 48 46 46 50 55 54 55 57 54 57 60
57 57 57 57 57 57 51 42 46 46 42 53 54 55 60 61 52 57 64 54 51 44 47 42 36 44 51 50 47 44 41 38 45 51 47 45 45 51 54 55 57 58 56 55 56
57 57 57 58 56 51 47 47 51 51 40 45 51 54 55 59 51 52 58 54 48 45 45 38 44 50 48 45 44 39 38 39 40 45 44 42 39 44 51 54 57 59 60 59 57
57 57 57 57 49 48 45 51 51 50 32 38 44 53 56 56 48 59 60 56 51 45 45 46 51 49 45 43 45 36 46 45 42 36 29 40 26 35 46 49 54 54 53 57 60
57 57 56 55 47 43 48 51 50 44 23 39 44 61 55 49 50 52 61 56 47 46 46 40 44 45 41 44 46 40 46 43 41 34 30 31 27 32 42 44 50 50 54 53 54
56 56 56 51 49 49 50 51 45 28 22 36 44 45 44 48 49 51 53 57 56 50 49 46 50 47 45 49 47 48 42 40 37 31 18 29 30 29 38 45 47 51 50 54 55
55 55 54 53 44 52 50 43 28 22 37 34 38 44 43 42 44 46 45 40 37 32 33 42 41 45 48 40 43 42 33 18 21 23 20 36 31 36 46 51 52 53 52 55 55
54 54 52 53 52 50 45 35 23 33 34 42 43 43 39 43 42 44 41 36 41 38 29 26 25 40 45 41 37 36 35 22 20 18 24 36 28 36 50 54 53 55 54 54 54
54 47 48 50 53 48 38 25 27 33 41 40 39 35 37 43 40 41 40 39 41 40 30 26 30 45 45 47 44 36 29 38 26 26 17 27 34 44 50 50 49 50 51 52 51
47 44 45 53 52 45 35 32 33 37 44 45 33 37 32 38 36 39 38 44 43 45 44 40 28 42 44 46 45 40 42 25 22 13 17 25 27 34 41 44 48 47 46 48 51
44 40 47 52 50 40 32 33 38 46 49 44 38 38 38 37 38 38 37 45 47 45 46 45 36 35 43 36 34 35 30 32 31 26 17 18 26 41 43 43 45 47 49 51 52
42 35 47 50 37 37 35 37 43 43 47 47 48 44 39 39 37 36 36 43 50 50 41 47 38 27 32 41 44 40 35 34 23 21 25 22 29 49 50 45 49 51 52 50 50
39 40 49 47 33 35 38 41 44 44 47 49 47 49 47 41 38 42 44 48 51 49 42 46 34 22 30 35 42 37 38 39 36 32 27 24 30 47 48 51 54 52 48 50 52
37 31 38 41 42 39 37 40 38 47 47 51 49 49 45 45 45 42 39 46 48 48 51 50 37 27 24 27 35 29 35 39 37 29 29 31 35 42 46 48 49 50 53 52 50
40 37 38 29 37 38 42 41 40 40 49 50 47 47 45 39 41 40 41 42 46 48 49 44 27 29 35 37 36 35 36 37 33 35 30 36 37 42 47 47 47 48 47 47 46
39 38 41 38 40 39 40 38 42 44 44 44 44 46 46 41 42 39 44 41 39 41 41 42 31 33 29 36 36 32 37 38 37 37 38 39 38 49 51 51 49 42 44 45 45
44 46 42 39 38 38 39 43 43 45 47 47 46 44 42 43 46 45 50 48 46 43 42 39 33 26 21 36 34 29 35 38 39 42 42 35 42 48 47 46 42 41 43 42 44

GFSSW_sfc_temp_018.txt.gz
Temp
63 64 64 64 63 63 64 64 63 64 64 65 66 66 65 65 64 59 56 61 64 73 72 67 66 64 63 57 60 58 44 41 47 49 52 60 58 65 67 62 63 64 66 70 73
63 64 63 64 64 63 63 63 63 63 63 64 65 65 65 64 58 56 66 70 72 73 65 60 58 60 54 55 56 51 42 47 55 55 53 60 58 60 62 61 59 62 66 71 71
63 63 63 63 62 63 63 63 63 63 62 63 63 65 64 63 55 56 71 71 72 73 67 64 62 59 52 53 53 51 44 55 57 60 59 58 59 60 57 56 59 59 63 66 66
61 62 62 62 62 62 62 61 62 63 62 62 62 65 63 59 42 61 73 72 74 69 64 61 58 51 50 49 55 47 54 57 58 61 58 56 60 55 58 60 64 61 64 65 66
61 60 60 61 61 62 62 62 62 62 62 62 61 62 58 50 52 68 72 72 70 65 59 57 53 52 48 51 52 48 52 58 60 59 58 60 57 57 57 63 65 64 65 65 65
60 59 61 61 61 60 60 61 61 61 62 62 61 60 53 44 66 68 67 65 66 62 57 57 55 56 52 51 51 54 56 55 57 57 57 56 55 56 57 62 62 62 62 61 64
60 60 59 59 60 59 60 60 60 60 61 61 60 58 51 51 67 66 68 62 64 63 56 59 59 57 55 50 56 55 48 51 53 54 53 57 53 50 60 61 59 58 59 62 61
59 59 58 58 59 59 59 59 59 59 60 60 60 56 48 65 66 66 67 64 66 65 64 64 63 57 54 54 52 48 47 40 51 54 56 55 45 54 59 55 56 58 57 60 64
59 59 58 58 58 58 58 58 58 59 59 60 54 52 47 65 59 65 64 63 62 62 62 66 61 54 52 45 40 42 34 38 44 54 54 51 44 56 61 56 54 54 54 58 61
58 58 58 58 58 57 57 57 57 57 56 58 55 47 52 52 60 63 64 65 59 57 56 55 51 47 46 45 33 35 33 38 40 49 50 47 46 52 55 55 53 54 54 54 57
58 57 57 57 57 57 53 46 42 41 47 46 48 50 53 60 64 60 64 61 57 53 45 49 43 40 42 41 44 46 40 37 43 50 46 45 44 48 53 51 51 55 54 55 57
58 57 57 57 58 57 49 40 44 45 39 49 51 53 59 60 52 57 64 54 51 44 48 44 39 47 48 48 44 43 39 36 43 47 45 43 43 49 52 53 55 56 57 58 57
57 57 57 57 57 50 47 44 50 51 39 44 50 51 55 58 51 52 58 54 48 45 44 39 43 49 46 43 42 39 37 37 38 43 41 40 41 43 48 51 54 58 59 59 58
57 57 57 55 49 45 44 50 51 49 28 37 43 49 55 55 47 59 61 54 50 44 45 44 49 45 42 42 43 34 43 43 41 36 28 38 26 34 43 46 50 50 48 51 53
56 56 56 56 47 44 47 48 49 44 20 40 43 59 55 48 50 51 60 56 45 45 46 39 43 43 41 43 46 40 45 42 39 32 28 29 26 31 38 41 45 48 51 50 52
55 55 55 51 49 50 49 49 45 28 20 35 43 44 44 47 48 51 53 57 56 48 46 43 48 46 44 47 46 47 41 37 34 29 18 27 28 28 36 41 44 48 51 53 54
55 56 53 52 45 50 49 42 25 21 34 34 38 44 42 42 43 47 44 42 38 33 33 41 40 45 47 40 43 41 33 19 17 14 20 31 27 30 41 46 46 49 50 51 52
56 53 52 52 51 49 46 33 22 31 33 43 43 43 37 42 43 44 42 37 42 37 34 28 25 40 44 40 37 35 34 22 20 17 21 32 26 35 45 50 50 51 50 50 51
54 50 48 49 52 48 39 26 27 31 40 40 41 35 37 39 41 42 40 39 39 40 30 26 29 43 44 45 43 34 26 36 24 22 16 25 31 42 46 45 45 48 49 49 50
42 44 45 51 51 45 35 32 33 37 44 44 33 36 32 35 35 39 39 43 41 44 43 37 27 40 42 45 43 38 40 24 19 10 15 23 25 33 40 41 46 46 46 48 50
41 37 46 52 49 39 32 32 37 45 47 43 37 37 36 36 36 35 36 41 45 43 45 40 33 32 39 34 33 33 28 30 29 24 17 20 26 38 41 41 43 45 47 48 50
40 29 48 51 37 37 33 35 41 43 45 44 44 41 37 39 36 35 34 40 47 46 38 43 34 21 31 39 41 38 34 32 20 20 22 22 26 45 42 43 45 50 52 52 54
36 36 46 45 33 35 39 41 43 44 43 46 44 45 44 38 34 38 41 46 48 47 41 44 33 21 27 35 38 34 36 36 33 29 19 23 28 44 44 50 52 50 51 50 51
35 29 36 41 40 37 39 37 39 46 46 47 44 47 44 40 42 38 39 45 50 49 50 47 34 26 23 26 33 28 34 36 33 26 26 29 34 42 46 48 51 52 51 49 49
37 37 40 31 36 39 42 41 39 39 45 48 45 45 43 38 39 37 40 41 46 49 48 43 27 28 33 36 34 34 34 35 30 34 29 35 36 41 45 48 50 51 47 47 44
39 38 41 35 39 37 38 36 39 41 42 41 41 44 45 40 40 37 40 38 38 40 40 43 32 34 31 34 33 30 35 35 37 37 38 38 37 47 51 51 46 43 44 44 45
39 45 41 38 36 35 36 40 41 43 45 45 44 42 41 42 45 44 46 45 43 40 37 37 32 29 20 33 32 27 33 35 36 37 37 34 41 50 47 46 41 41 42 44 46

GFSSW_sfc_temp_021.txt.gz
Temp
64 64 64 64 63 63 63 63 64 63 63 63 64 64 66 65 64 58 54 60 63 71 72 66 65 63 62 56 59 55 43 40 45 47 50 56 55 61 62 60 62 62 62 67 70
62 62 62 64 64 63 63 63 63 63 63 63 63 62 65 64 57 55 64 69 71 72 63 60 57 59 52 54 55 50 42 45 53 53 51 56 55 56 59 58 58 60 65 67 69
62 62 61 61 62 61 62 62 62 62 62 63 63 63 62 62 53 54 69 70 71 72 66 63 61 58 52 52 52 50 44 52 55 58 58 55 56 58 55 55 57 57 61 63 64
62 61 61 60 60 61 61 62 62 63 62 62 62 62 61 58 41 61 71 71 71 69 63 59 56 51 49 48 53 45 53 55 57 60 57 53 58 54 57 59 61 60 62 64 63
61 61 60 61 60 60 60 60 62 62 61 62 62 62 56 48 50 67 71 71 69 64 59 55 51 51 47 49 50 47 50 56 58 58 55 57 55 54 55 61 63 61 63 62 63
60 60 59 59 59 60 60 60 60 61 61 61 61 60 52 43 65 67 66 64 65 61 56 56 53 55 50 50 49 53 54 55 55 56 55 54 53 54 55 60 60 59 60 60 61
60 60 59 59 59 59 59 59 60 60 60 60 61 57 50 51 65 64 64 64 63 61 54 57 58 55 53 50 55 53 47 49 52 54 53 54 51 48 58 60 57 58 57 59 60
60 59 59 59 58 58 58 59 59 59 59 59 60 53 47 63 64 63 64 60 61 62 61 61 61 55 52 53 51 47 45 39 49 53 54 54 44 53 57 54 55 56 56 57 58
59 59 58 58 58 58 58 58 58 58 59 60 53 51 45 64 57 61 64 60 60 60 60 65 59 52 50 44 39 42 33 37 44 53 52 49 42 53 57 56 55 55 53 55 57
59 59 57 58 57 57 57 57 57 56 55 56 54 46 51 51 59 61 61 64 58 56 56 55 50 43 41 39 32 34 34 36 38 46 47 44 43 51 55 52 51 51 53 53 56
58 58 58 58 58 57 52 45 41 41 46 43 47 48 52 59 63 58 61 59 56 53 45 49 43 40 42 41 41 41 38 35 40 48 44 43 42 47 51 49 48 50 52 55 57
58 57 57 57 57 56 48 40 44 45 35 48 50 52 55 59 51 54 61 52 49 43 46 44 40 47 49 47 44 45 41 34 41 45 43 41 41 48 51 53 55 56 57 58 56
57 57 57 56 56 50 46 44 49 48 39 43 48 49 53 57 50 51 58 53 47 43 44 41 43 49 46 45 42 36 35 35 37 41 40 38 38 42 47 49 51 54 56 58 56
56 56 56 55 49 46 43 51 49 47 25 35 40 48 54 54 46 58 60 54 50 43 43 43 49 45 43 41 42 33 42 42 39 34 28 37 26 34 43 45 45 47 48 49 51
54 53 55 55 46 44 48 47 49 44 12 38 41 56 54 47 49 51 58 56 45 45 45 38 43 41 39 42 44 38 43 40 37 31 27 28 26 32 36 40 44 46 47 49 51
55 56 55 51 49 50 48 48 46 22 22 34 43 43 45 46 47 51 52 57 55 47 46 42 47 45 43 45 45 45 39 35 31 29 18 26 26 30 35 38 42 44 48 50 50
55 55 51 52 44 48 47 42 22 19 33 34 38 44 43 42 44 46 44 41 38 34 33 39 39 44 46 40 43 40 32 19 17 15 19 29 26 32 40 42 43 46 47 48 48
55 53 51 50 48 47 43 31 23 31 30 42 43 43 37 42 43 42 41 37 40 38 32 30 26 39 43 40 37 33 34 22 19 16 21 30 25 35 42 44 46 46 45 47 49
54 47 47 46 50 47 38 27 28 31 36 40 42 35 35 39 41 40 38 38 40 39 31 26 29 42 43 43 42 33 25 34 24 22 15 23 30 40 44 43 46 46 47 46 48
44 41 42 49 49 44 35 32 32 37 44 41 32 36 32 34 36 37 38 43 42 42 41 36 26 39 41 44 42 37 39 25 19 12 16 22 24 30 37 39 43 43 44 46 47
43 37 46 52 48 38 32 32 39 47 45 41 34 35 36 35 37 36 36 40 44 42 42 39 33 34 38 34 33 34 28 29 28 23 16 17 26 36 38 39 41 44 46 46 46
38 30 45 49 35 36 34 36 42 43 44 42 42 40 38 38 34 33 34 39 45 44 38 41 33 23 31 38 40 37 33 31 21 18 20 20 25 42 41 41 43 49 49 48 48
35 35 44 43 34 36 39 41 42 41 41 43 41 44 42 37 33 36 38 45 46 44 40 42 30 19 27 33 37 33 34 34 31 27 18 21 27 43 41 47 50 49 50 53 50
35 30 37 38 40 38 37 36 38 44 43 45 43 45 42 39 40 36 38 43 46 47 49 46 33 26 22 26 31 27 32 34 31 23 25 28 31 42 44 45 50 51 46 47 48
36 36 40 34 39 40 40 39 37 37 44 45 42 43 41 35 37 35 39 40 46 49 45 41 27 27 32 35 32 33 33 34 28 34 26 31 33 41 45 48 50 45 45 46 45
36 39 42 35 36 35 37 36 38 40 41 40 40 43 42 38 38 35 39 38 39 43 42 42 31 31 29 33 32 29 33 34 35 35 35 36 35 47 50 51 49 43 43 42 42
37 42 38 37 34 33 35 38 40 42 43 43 42 40 39 41 42 43 44 44 43 40 37 36 32 29 22 31 31 27 32 34 34 36 36 30 40 49 48 47 43 41 41 41 42

GFSSW_sfc_temp_024.txt.gz
Temp
63 63 63 62 62 64 63 64 63 63 63 63 64 64 62 65 65 58 52 59 62 70 71 65 64 62 60 55 57 54 43 39 45 46 49 54 53 59 59 57 61 61 60 64 65
62 63 63 63 63 61 61 61 63 63 63 63 63 63 62 61 57 53 63 68 70 71 63 59 56 58 52 53 54 49 42 44 52 52 52 53 53 54 56 55 56 58 63 64 64
62 62 62 62 62 61 59 58 60 62 62 62 63 63 63 59 51 52 68 69 70 70 65 62 60 57 50 51 50 49 44 51 54 57 57 54 53 56 52 52 55 54 58 63 59
61 61 61 61 60 60 60 59 60 62 62 62 62 62 62 56 40 59 70 70 70 68 63 59 56 50 48 47 52 45 52 54 56 59 56 52 55 52 54 57 60 58 58 61 61
61 61 61 60 60 60 60 59 60 61 61 61 61 61 56 49 49 63 70 70 68 64 59 56 51 50 47 49 51 47 50 54 57 57 55 56 53 53 53 59 60 60 62 60 60
61 61 60 60 60 59 59 59 59 60 61 61 61 60 51 44 63 64 65 65 65 61 55 55 52 54 51 49 49 52 53 54 54 55 55 53 52 52 54 57 57 57 59 60 59
60 59 59 59 59 59 59 59 59 60 60 60 60 57 48 50 60 61 64 62 65 61 55 57 57 54 52 48 53 52 46 48 51 53 52 53 48 47 56 59 57 55 55 58 60
59 59 59 58 58 58 58 58 58 58 59 59 60 54 45 63 58 59 63 58 61 61 60 60 59 54 50 52 50 46 45 38 48 52 53 53 41 51 56 54 54 54 54 55 58
58 59 59 58 58 58 58 58 58 58 59 59 52 48 46 62 56 61 62 57 58 59 60 64 60 53 48 43 41 42 33 36 43 51 50 47 40 51 53 51 50 51 52 55 55
57 59 58 58 58 58 58 57 57 55 54 55 53 45 50 49 57 61 60 61 57 56 55 54 51 45 40 44 31 34 34 35 37 44 45 43 41 49 52 51 50 50 50 51 54
58 58 57 58 57 57 52 45 40 39 45 40 43 47 51 55 61 57 58 58 56 51 45 51 42 40 43 41 41 40 37 35 39 46 42 41 40 46 51 48 48 49 52 53 56
58 57 56 57 56 56 47 39 44 44 34 47 48 51 54 57 50 54 59 51 50 43 45 43 40 45 46 46 43 41 37 34 40 44 41 40 39 46 51 49 52 54 54 55 55
54 56 55 55 55 50 44 44 48 48 36 43 47 48 52 57 50 50 55 51 47 44 44 42 43 49 47 44 43 41 39 35 36 40 38 36 37 40 46 47 49 51 51 52 53
56 53 54 54 48 46 42 49 49 46 22 34 41 47 51 54 46 58 55 51 46 39 40 42 46 45 42 41 42 36 41 40 38 33 28 36 26 35 41 41 45 45 44 47 49
56 56 54 54 45 43 46 49 47 43 9 37 41 54 53 47 48 51 55 51 44 43 41 37 40 42 41 42 44 39 43 39 36 31 27 29 26 33 36 39 41 44 45 46 47
56 56 54 49 47 49 47 46 43 21 16 34 42 43 43 45 46 50 52 56 53 45 45 42 48 46 43 44 46 43 38 34 31 28 19 26 25 30 34 35 41 43 45 45 45
55 54 51 50 43 49 46 39 21 19 33 34 38 43 41 42 44 46 44 41 38 33 33 40 40 44 45 39 43 39 32 20 18 15 20 27 26 31 37 40 41 43 44 45 46
56 53 50 48 47 46 42 30 24 31 31 41 43 41 37 42 42 42 41 37 41 37 31 30 30 41 43 39 36 34 33 22 18 15 20 29 24 34 40 42 43 43 42 45 48
54 44 43 46 49 45 34 23 24 31 35 39 41 36 36 40 41 40 38 36 38 37 30 27 28 41 42 42 41 33 25 33 22 19 15 24 30 38 41 40 42 43 45 46 49
42 40 42 51 50 41 33 32 33 37 45 40 33 35 32 35 36 37 35 40 39 41 39 34 27 38 41 43 41 38 39 26 20 13 17 22 23 29 35 39 42 43 43 45 50
40 36 45 49 45 39 31 33 41 47 44 39 33 34 34 35 37 35 35 39 41 40 42 37 32 34 38 34 33 34 29 29 27 23 17 17 27 35 36 37 38 41 45 46 47
37 31 45 46 36 37 35 37 43 41 42 42 40 38 35 36 32 32 33 37 45 44 37 39 32 22 32 37 39 36 32 30 20 18 22 19 25 40 39 39 43 46 48 46 46
34 34 44 43 34 36 38 39 41 41 41 41 40 43 41 36 33 35 37 43 45 43 40 41 29 19 27 33 36 32 33 32 29 25 17 18 27 42 40 43 47 50 51 48 45
34 30 37 42 42 39 37 35 37 43 42 43 41 42 40 37 39 35 36 42 44 45 49 45 33 27 22 25 31 27 31 32 30 19 24 25 29 40 43 46 50 51 48 47 47
36 36 40 33 34 38 37 37 36 37 42 43 40 40 39 33 35 34 37 39 44 47 43 40 26 27 31 34 33 33 33 32 28 30 24 28 31 39 45 48 50 48 46 45 41
36 36 42 35 34 33 36 35 37 38 39 38 39 42 40 36 38 35 38 36 37 42 39 39 29 28 24 32 31 28 32 33 32 33 34 35 34 46 49 50 47 46 43 40 38
37 43 40 36 33 32 33 36 39 40 41 41 41 39 38 39 40 42 44 44 41 38 36 38 32 26 22 30 30 26 30 33 33 35 36 30 39 47 43 47 46 42 41 40 40

GFSSW_sfc_temp_027.txt.gz
Temp
62 63 64 64 63 63 63 62 62 63 63 64 63 63 64 62 62 61 53 60 64 69 70 65 64 63 63 59 60 58 49 44 49 49 54 61 60 65 67 66 67 71 70 69 69
63 63 62 62 62 61 62 62 61 60 63 63 63 63 63 61 57 54 63 68 70 71 65 60 56 60 55 56 57 54 47 47 55 57 56 59 61 62 64 61 65 67 69 67 67
63 63 62 61 61 61 61 61 59 59 59 62 63 62 62 61 52 54 67 69 70 70 67 63 61 59 53 54 53 52 48 54 56 59 61 58 59 63 61 60 64 64 66 67 66
62 62 61 61 61 61 60 60 59 59 60 61 62 62 62 56 42 60 69 70 70 69 64 60 57 53 50 48 54 49 54 56 58 60 59 57 61 59 61 63 67 66 67 68 68
62 61 61 60 61 60 60 60 60 60 60 61 61 61 55 48 50 63 67 68 68 65 59 57 54 53 49 51 52 51 52 56 59 59 58 59 57 59 58 63 65 64 66 67 68
62 60 59 60 60 59 59 59 60 60 60 61 61 60 50 42 63 62 64 64 64 62 59 58 57 57 53 52 52 54 55 55 57 57 58 55 55 56 59 62 62 61 64 66 66
60 59 59 60 59 59 59 59 59 59 59 60 59 57 47 48 61 59 62 61 65 62 56 60 60 56 54 49 55 54 49 52 53 55 55 56 51 50 60 62 61 62 62 63 65
59 58 57 58 59 59 59 58 58 59 58 59 59 53 44 62 59 60 61 60 64 63 62 61 61 56 54 55 52 48 50 43 52 53 55 57 46 55 59 57 58 60 60 59 62
58 57 57 58 59 58 58 58 58 58 58 59 51 48 43 62 55 60 60 57 58 59 59 63 60 54 53 46 43 45 37 40 46 53 53 51 45 54 57 57 57 58 58 58 60
59 58 58 56 58 57 57 57 57 55 54 55 52 42 49 48 56 57 61 59 56 55 54 55 52 46 47 44 35 37 38 40 42 48 48 46 45 52 55 54 54 56 57 58 59
58 55 57 56 56 56 51 45 40 39 44 39 42 45 50 55 60 56 58 56 55 51 44 50 43 39 46 47 43 42 40 40 44 48 46 44 43 48 53 52 52 54 56 59 60
58 56 52 55 56 55 48 40 43 45 35 45 47 47 52 54 50 53 58 50 46 42 46 43 40 47 49 46 44 43 39 38 43 47 45 42 42 49 52 51 54 55 55 56 58
57 55 52 54 55 49 44 43 47 46 36 43 47 48 49 52 49 49 53 50 44 39 43 41 44 49 47 44 42 41 39 38 40 43 43 40 41 44 50 51 52 52 52 54 55
56 56 53 54 48 45 42 48 47 46 22 35 41 46 50 51 46 56 53 49 45 40 43 41 46 47 45 43 44 38 45 42 40 38 34 40 33 41 43 47 50 48 48 50 52
56 56 55 54 45 42 46 49 46 41 12 38 41 52 52 47 48 47 53 52 43 40 41 36 41 42 42 43 46 41 44 40 38 35 34 34 33 40 42 44 47 47 47 49 51
55 55 54 48 46 46 46 47 42 22 14 34 41 42 43 47 46 47 47 50 51 43 43 42 45 43 42 45 44 44 40 36 34 33 27 31 32 37 40 43 45 47 48 49 51
56 54 50 48 41 47 45 39 22 21 33 34 37 43 42 41 43 45 43 40 38 33 33 40 40 43 45 41 44 42 36 25 24 23 27 31 30 37 42 45 47 47 48 51 51
55 53 50 48 46 45 41 29 19 31 30 41 42 41 38 41 42 43 41 38 40 38 33 31 30 40 45 42 38 37 37 27 24 23 27 31 28 39 44 46 48 49 50 50 52
53 43 43 47 50 46 36 25 22 30 35 39 42 34 36 40 41 40 37 37 39 39 33 31 30 41 42 43 42 36 29 36 24 22 23 28 33 42 45 45 47 48 49 50 51
41 39 41 48 48 41 36 33 35 38 42 40 33 35 31 36 36 37 35 39 39 41 40 36 28 39 41 43 42 39 39 29 25 17 21 27 28 35 40 43 45 47 47 48 50
39 37 45 47 44 38 32 34 40 44 43 38 33 33 33 34 35 34 35 40 43 41 42 38 34 34 40 36 34 35 31 30 30 27 24 24 32 39 41 44 45 47 48 49 49
36 32 45 45 36 38 35 37 43 41 43 41 40 38 34 34 32 33 34 38 45 45 38 40 33 28 34 39 41 38 34 33 25 23 24 24 31 44 43 44 46 47 50 51 50
34 34 44 43 34 36 40 40 40 40 40 41 39 41 39 36 33 35 38 43 45 44 40 41 31 22 30 34 37 34 35 34 31 29 23 25 33 43 42 45 47 49 50 50 49
34 30 37 39 39 36 35 34 36 42 41 42 40 41 38 37 38 35 36 42 44 45 49 45 33 28 25 28 33 30 33 34 32 25 26 28 32 42 44 44 48 50 50 48 46
35 36 40 32 34 34 35 36 34 36 41 42 39 39 37 32 33 33 37 38 43 47 43 41 28 27 33 35 33 34 34 32 29 32 27 32 31 40 43 45 48 51 47 46 43
35 36 41 34 33 32 35 33 35 37 37 37 38 39 38 36 37 34 37 35 36 39 39 39 30 29 26 34 33 30 33 33 34 35 33 35 35 47 48 47 50 47 43 43 42
41 43 40 35 31 30 32 35 37 38 39 40 41 41 37 38 39 40 41 42 42 39 36 38 32 25 23 32 31 26 31 33 35 35 37 31 40 45 44 46 45 42 41 40 40

GFSSW_sfc_temp_030.txt.gz
Temp
63 64 64 63 62 62 62 62 63 61 63 64 63 63 63 63 61 59 57 67 69 70 71 69 67 69 70 67 68 69 62 58 60 61 66 71 70 74 75 75 76 79 78 77 79
62 63 64 63 61 61 61 61 61 61 61 63 63 63 63 62 57 54 66 70 70 71 66 64 59 65 64 64 65 65 59 61 69 69 68 70 72 73 72 72 73 75 78 75 73
62 62 63 61 61 61 61 61 61 60 61 61 61 62 62 63 55 57 67 69 70 71 69 68 66 64 59 62 62 63 60 66 65 68 69 69 70 72 71 68 75 73 74 75 70
61 61 61 60 61 61 61 60 60 60 60 60 61 61 62 59 39 61 68 68 70 72 68 65 62 57 57 56 63 56 64 66 65 65 65 66 71 68 71 74 77 76 75 76 74
60 60 60 59 60 60 60 60 60 60 60 60 60 61 59 50 51 65 64 69 69 69 64 61 59 58 55 58 59 58 60 64 65 64 65 66 65 68 68 74 76 75 74 76 77
60 60 60 58 59 59 59 59 60 60 60 60 61 60 54 43 69 64 60 64 68 67 64 64 62 64 60 58 58 62 60 63 65 64 64 61 64 64 69 74 73 73 75 77 78
61 59 57 56 55 58 59 59 59 60 59 59 59 59 51 50 66 63 61 62 69 68 62 66 68 62 62 56 63 61 56 59 60 62 62 64 59 59 70 74 71 74 76 75 77
60 59 57 57 57 59 59 59 59 59 59 58 59 56 44 65 65 61 61 65 67 70 67 66 69 64 62 63 59 56 57 48 61 62 62 61 54 63 69 69 69 71 74 74 75
59 58 57 56 57 58 58 58 59 59 59 58 55 53 46 64 57 63 63 59 61 64 66 66 64 60 59 54 49 53 48 50 52 60 61 59 55 64 67 64 66 69 71 72 72
59 58 55 57 57 56 57 56 56 57 57 58 57 45 53 52 59 60 63 60 58 56 56 56 55 53 56 52 42 45 48 49 50 55 56 54 56 60 64 64 64 68 70 72 72
58 58 54 56 57 56 56 54 49 47 50 47 48 46 53 60 63 59 60 56 58 55 45 53 46 44 52 55 53 53 49 49 52 53 53 54 54 58 62 64 63 66 69 71 72
58 55 52 56 56 55 55 49 47 49 42 50 49 48 52 56 51 56 61 49 49 44 49 44 42 54 57 54 52 51 48 47 50 52 53 52 52 58 62 62 63 64 66 69 70
57 54 53 56 56 54 51 49 54 53 41 44 48 47 49 55 51 52 55 47 48 43 46 40 48 55 52 50 49 49 47 45 47 50 51 50 52 53 55 59 59 60 61 63 64
57 55 54 56 53 51 49 53 54 53 34 35 41 46 49 50 47 54 52 48 44 39 44 42 48 51 50 48 52 45 51 48 45 46 45 49 47 51 53 55 57 58 60 62 64
56 56 55 55 52 49 50 54 53 49 25 40 40 51 52 49 48 46 53 50 42 38 42 36 42 48 46 49 53 47 51 48 46 44 43 43 43 49 54 52 54 57 58 61 62
56 55 54 54 54 51 54 54 51 33 25 35 41 44 44 49 48 49 48 51 51 42 42 40 45 43 42 47 52 50 48 46 45 44 35 41 41 47 51 53 53 56 59 61 62
56 55 54 54 49 54 54 49 33 29 35 35 38 45 46 43 43 44 41 41 39 34 34 37 37 42 43 39 45 47 43 35 33 32 36 39 38 49 52 54 55 56 58 61 63
56 54 53 55 55 54 51 41 30 32 33 42 45 46 41 46 40 42 42 39 46 43 39 35 32 37 41 42 38 44 44 39 31 33 37 37 37 48 53 56 56 58 58 61 61
53 55 53 55 55 53 45 33 31 32 38 43 45 40 40 44 45 45 44 43 45 47 38 36 33 45 45 47 48 42 38 44 34 33 35 42 44 50 51 52 55 57 59 58 59
52 51 51 55 55 50 44 34 36 40 45 46 38 42 36 39 41 44 43 46 45 48 49 42 32 43 44 48 48 46 47 37 36 29 31 39 41 45 47 51 54 56 58 60 60
50 49 52 54 53 49 35 36 42 48 48 45 41 41 41 39 43 42 42 46 49 47 50 47 43 37 44 42 42 41 40 39 42 37 36 38 43 54 53 55 55 57 58 58 58
48 44 53 53 46 45 39 40 44 46 50 48 48 45 44 43 42 42 42 46 52 51 45 46 41 34 38 44 46 45 43 44 38 31 35 36 44 55 56 55 55 57 59 59 57
45 46 55 53 41 43 46 45 45 47 47 47 45 47 47 44 40 43 44 48 51 50 47 48 39 30 32 40 43 40 42 42 39 38 32 36 44 52 53 54 58 56 59 58 54
46 41 49 51 47 45 42 43 43 48 47 48 47 49 47 44 47 42 42 46 49 50 49 50 41 36 35 35 41 35 40 41 40 34 37 40 44 49 53 54 57 58 58 56 53
45 39 43 41 44 44 43 43 42 43 48 49 46 47 46 42 43 42 44 45 47 49 49 48 34 35 40 40 39 39 39 39 34 41 37 42 41 50 54 54 56 57 54 53 51
40 39 46 43 41 42 42 43 42 44 44 45 45 47 48 45 46 42 46 46 44 47 47 46 34 35 33 38 38 35 40 41 40 41 41 44 43 55 58 56 55 54 51 49 48
44 46 41 40 41 43 43 42 43 45 47 47 48 48 46 47 50 51 52 53 51 47 44 44 36 34 32 37 37 32 38 40 41 43 43 38 47 54 52 53 52 51 49 47 46

GFSSW_sfc_temp_033.txt.gz
Temp
62 63 63 63 64 62 62 61 62 62 63 61 64 63 64 63 63 63 55 67 72 72 71 71 69 69 71 68 74 74 55 54 62 65 68 78 73 79 82 79 81 84 83 81 83
63 62 62 62 62 62 61 61 62 61 61 61 63 63 63 63 63 58 67 67 72 71 69 66 62 66 63 65 67 64 59 61 72 73 70 75 74 77 73 74 77 79 82 81 79
62 61 61 61 61 61 61 61 61 61 60 60 61 62 62 64 57 61 72 69 71 72 68 72 69 64 60 65 65 64 60 68 72 71 73 73 73 79 74 72 77 76 79 78 76
61 61 61 60 60 60 61 61 61 61 61 59 61 61 62 62 45 71 70 70 70 73 68 67 65 57 58 57 65 59 66 70 72 70 67 69 75 72 74 77 83 82 80 80 77
62 62 60 59 59 59 59 60 60 61 61 60 59 61 60 53 56 68 66 68 67 68 63 65 62 59 56 61 64 59 66 69 70 67 68 72 71 72 73 79 80 80 78 79 80
61 60 60 59 58 55 57 58 59 60 60 60 60 60 56 45 71 70 63 64 62 62 66 68 64 66 61 61 61 63 64 65 67 65 66 65 69 70 73 79 77 78 77 80 81
60 60 59 58 58 57 56 58 59 60 60 60 59 61 53 53 70 67 61 63 64 61 65 70 71 63 64 58 66 64 59 61 63 64 64 66 61 63 73 77 74 76 78 79 81
60 59 59 57 57 58 58 58 59 59 59 59 59 59 48 66 70 64 60 60 64 65 71 70 73 66 62 66 62 57 57 50 60 61 65 63 55 69 74 73 72 76 78 79 80
59 59 58 56 58 58 57 58 58 59 59 59 57 55 48 67 59 65 60 59 62 62 68 70 68 61 62 55 51 55 47 52 55 63 62 59 57 69 73 70 70 74 76 77 78
58 58 56 57 57 57 57 57 57 57 58 61 59 47 55 53 59 59 61 57 54 60 56 55 56 54 55 54 43 48 49 54 54 57 59 58 57 66 67 68 68 71 74 75 76
57 56 56 57 57 57 58 58 51 48 53 49 50 50 51 57 62 56 57 54 59 55 47 54 48 46 53 57 59 58 53 52 58 57 55 55 58 62 66 67 67 70 71 73 76
56 55 56 57 57 56 60 51 49 51 44 53 53 51 54 56 50 55 59 48 51 46 54 45 44 56 60 60 56 54 52 50 56 57 55 57 55 61 64 64 67 68 70 72 74
56 55 56 56 56 58 55 51 58 56 42 43 49 47 50 54 51 49 53 48 46 49 48 45 49 58 55 54 52 53 51 51 49 53 56 53 51 55 62 62 64 64 66 68 70
57 56 56 56 53 56 51 56 57 55 34 36 42 47 53 52 45 53 53 48 42 47 47 45 52 53 52 51 55 47 57 52 48 47 45 55 47 54 56 57 59 61 65 66 67
57 56 56 57 56 52 53 58 58 52 26 39 39 52 50 47 48 46 53 49 39 39 42 37 44 49 49 52 57 50 55 52 50 46 46 48 45 54 57 53 56 59 62 64 65
56 57 55 58 59 56 59 59 53 33 26 35 42 43 43 47 47 48 47 50 48 42 42 40 46 45 46 54 57 55 51 50 50 46 35 47 47 49 52 57 57 60 63 64 66
56 56 55 59 54 60 58 53 33 30 36 36 40 45 46 43 43 45 39 38 36 33 33 35 36 41 45 46 51 52 47 36 33 32 35 44 41 52 57 61 60 60 62 64 66
55 55 58 60 61 58 55 43 31 35 36 46 46 49 40 42 40 44 41 38 47 45 36 34 30 37 40 43 42 46 48 40 31 34 39 41 37 49 59 60 62 62 62 64 64
54 60 57 61 59 57 48 34 34 35 42 46 49 43 40 46 46 45 48 44 46 49 37 35 33 41 40 46 50 43 39 48 39 42 39 44 48 53 55 56 58 59 61 62 62
56 57 57 60 59 52 46 35 38 43 48 50 42 45 39 43 46 49 48 50 47 51 53 46 33 40 40 46 46 45 51 37 38 30 34 42 45 46 48 51 56 58 60 62 63
55 53 57 60 56 52 36 39 46 52 51 48 46 45 44 42 47 47 46 49 53 50 54 51 45 39 43 42 42 42 40 43 43 41 36 40 44 57 53 56 56 59 61 61 61
53 46 57 59 50 52 44 44 45 50 53 51 51 49 48 48 46 47 46 50 55 55 48 49 45 35 39 47 50 49 47 48 39 35 41 39 43 61 59 58 58 58 60 62 61
51 54 59 58 45 47 50 49 50 50 50 50 48 51 51 48 43 47 48 52 54 53 50 51 41 31 33 42 46 42 46 47 44 42 35 37 43 59 59 58 60 59 61 62 59
51 43 56 59 55 52 48 48 47 51 51 52 51 53 50 48 51 46 46 49 53 53 49 53 45 38 37 37 45 38 44 45 42 36 41 43 47 51 55 56 58 60 60 60 58
51 42 46 45 50 50 49 48 46 46 52 53 49 50 49 45 47 45 48 48 50 49 52 51 35 37 43 43 42 42 43 43 37 42 39 47 47 53 56 57 58 59 58 56 55
42 39 47 49 48 48 46 47 46 48 48 48 47 50 51 48 50 46 48 49 47 50 49 50 36 38 34 42 41 38 43 45 43 43 45 47 46 58 60 59 57 57 54 52 51
50 49 43 46 48 48 48 47 46 49 50 51 51 51 49 51 55 56 57 57 54 49 47 46 38 34 34 40 39 34 41 43 45 47 47 41 50 57 55 55 54 55 52 50 50

GFSSW_sfc_temp_036.txt.gz
Temp
64 64 63 62 62 62 62 62 62 61 62 63 63 63 63 64 63 60 53 63 69 72 70 69 67 66 67 64 68 66 49 45 50 55 63 73 69 73 72 70 70 72 71 73 75
63 63 62 62 61 61 61 61 61 61 61 62 62 61 63 62 59 56 67 69 72 74 67 63 59 63 60 61 63 59 49 51 59 62 64 71 71 69 67 67 66 70 74 75 73
63 62 62 62 61 61 61 62 61 61 60 61 60 61 62 62 53 55 71 70 70 73 69 68 66 62 56 60 60 59 52 60 58 64 67 70 68 70 66 62 68 68 70 72 69
62 62 61 61 61 60 61 61 61 61 60 60 60 60 61 59 40 63 73 71 70 72 67 64 63 56 54 53 62 55 61 63 66 68 66 65 70 67 68 66 73 72 73 72 70
62 61 61 60 60 60 59 58 59 60 59 59 59 59 58 50 51 69 72 72 69 66 63 60 59 57 52 57 60 56 61 65 68 64 63 68 65 64 65 70 74 74 74 68 71
62 61 60 59 59 59 58 56 59 59 60 60 60 61 54 43 68 69 65 65 65 62 64 63 61 63 58 59 57 61 61 63 65 62 64 63 63 63 65 70 70 70 68 70 72
61 61 60 58 58 58 57 58 58 58 59 60 60 59 51 50 68 66 64 61 64 62 61 65 68 62 60 55 64 62 54 59 59 61 61 62 56 58 67 68 68 67 67 71 72
60 60 59 57 57 58 58 58 59 59 59 59 59 57 46 65 67 65 63 59 63 63 62 67 68 64 60 61 59 55 53 46 57 60 62 60 48 61 67 64 64 66 67 68 71
59 58 58 58 58 58 58 58 58 59 59 59 55 52 45 66 58 64 65 57 61 60 60 62 62 59 58 49 46 50 42 46 52 61 59 56 50 62 66 65 62 64 67 68 69
57 58 58 58 58 57 57 57 58 57 58 61 59 47 53 52 60 62 63 59 56 54 52 51 53 50 50 45 35 41 43 48 48 55 56 53 51 59 61 59 59 60 63 64 67
57 57 58 58 58 57 56 55 48 47 52 47 47 48 52 56 63 57 59 54 54 51 44 49 43 41 46 51 51 52 48 47 53 57 53 51 53 57 60 59 57 59 61 63 65
57 57 57 57 57 58 57 50 49 51 41 53 53 52 55 55 47 52 58 46 47 43 50 44 39 51 55 55 53 51 48 47 52 55 51 51 51 56 58 59 60 59 60 61 63
57 57 57 57 57 56 53 51 58 56 39 45 49 48 49 50 46 47 51 46 44 44 45 42 48 56 54 52 50 48 47 47 45 50 52 49 44 50 57 60 61 57 56 59 60
56 57 57 57 52 55 50 56 58 55 33 36 42 46 50 49 44 52 51 47 44 45 48 44 53 52 52 51 53 43 54 52 47 43 36 49 34 47 52 52 54 51 53 56 58
56 56 57 56 52 52 53 58 58 51 23 40 42 54 51 45 45 45 53 50 41 44 44 38 45 46 47 50 55 49 53 50 47 42 37 42 35 42 49 48 50 51 53 55 57
56 56 56 57 55 57 58 57 51 32 25 35 42 44 44 48 47 48 48 50 47 44 43 41 46 44 44 52 56 55 48 47 44 41 26 39 40 38 44 48 50 53 54 56 56
56 56 55 58 51 59 57 50 32 28 36 36 39 43 45 43 44 44 39 38 35 32 32 37 36 43 45 44 50 50 40 29 25 25 25 41 37 40 49 53 53 53 54 55 57
55 54 56 58 60 57 51 39 29 36 35 46 45 46 41 44 42 41 38 35 42 41 35 32 28 36 41 43 42 43 41 30 24 23 26 38 30 40 52 54 56 56 55 55 55
55 56 55 58 59 55 43 33 32 33 43 46 48 40 39 45 46 41 40 39 42 43 35 33 32 39 41 44 47 41 34 42 31 34 25 31 39 45 50 51 52 53 55 54 55
51 54 55 59 58 50 42 35 39 44 48 50 41 45 39 44 44 45 43 46 44 48 50 42 32 38 39 44 45 44 48 33 29 22 24 32 35 36 42 46 50 51 52 55 56
50 50 53 59 55 46 35 39 46 52 52 47 46 45 44 42 45 45 44 48 52 49 52 48 40 35 38 36 36 37 35 38 37 32 25 26 31 44 46 49 49 52 55 54 54
49 42 55 56 44 48 40 46 47 51 53 51 50 48 46 46 44 44 43 47 54 52 45 46 40 32 35 46 49 45 42 42 32 28 30 28 31 53 50 51 53 53 53 55 54
46 50 56 54 40 43 48 49 51 50 50 51 49 50 51 46 42 45 46 50 52 50 45 47 36 28 33 39 44 39 44 45 41 36 31 25 30 51 50 50 53 52 54 54 53
48 40 50 52 52 48 46 47 46 50 51 52 51 51 48 45 48 43 44 48 50 51 50 49 41 32 25 30 38 34 40 42 36 27 33 33 37 44 48 49 52 52 52 52 51
48 40 45 39 45 47 48 48 47 46 51 52 48 49 48 42 44 43 45 45 49 48 48 46 30 32 39 42 38 38 39 40 33 38 30 38 41 46 49 49 51 52 51 51 49
40 38 43 44 48 46 43 46 46 47 47 47 46 50 49 45 46 43 45 44 42 46 44 45 31 32 30 40 38 33 40 41 41 40 40 41 41 50 51 51 51 50 50 49 47
45 48 41 45 46 44 43 45 46 48 49 51 49 48 47 46 50 51 51 51 48 44 42 40 32 28 25 37 35 28 36 39 41 42 42 36 44 50 49 51 50 48 49 47 46

GFSSW_sfc_temp_039.txt.gz
Temp
64 64 64 63 63 62 62 62 62 62 62 62 63 63 63 63 64 58 51 62 64 71 72 64 63 63 64 59 64 63 47 43 47 52 57 65 63 67 70 67 68 65 66 68 72
63 63 62 62 61 61 61 61 62 61 61 62 62 62 62 62 58 52 62 68 69 72 64 58 55 59 55 56 57 52 47 48 57 58 57 61 63 64 63 63 63 62 67 70 69
63 64 62 62 61 61 61 61 61 60 61 61 61 61 61 62 51 52 67 69 69 71 66 63 61 57 54 56 54 54 48 57 60 63 58 59 60 68 63 57 63 61 62 66 65
63 62 62 61 60 60 60 59 59 61 60 60 61 59 58 57 38 62 71 70 71 67 64 60 58 50 50 51 58 51 58 60 62 58 56 57 65 66 63 62 66 67 67 65 64
62 62 62 61 60 60 59 59 59 59 59 59 59 59 56 46 48 66 71 71 68 64 60 57 54 51 48 53 56 52 58 62 62 59 58 60 60 62 63 66 69 69 68 65 65
61 61 61 59 59 59 58 58 58 59 60 60 59 59 51 40 63 65 66 67 64 61 59 58 55 57 52 54 53 57 59 60 62 60 61 56 62 62 62 66 67 68 65 64 66
61 60 59 59 59 58 58 58 59 59 59 60 60 59 49 47 62 62 63 59 63 61 58 60 60 57 56 52 60 58 53 56 57 59 59 61 56 56 62 65 64 63 64 67 68
60 60 59 59 59 59 59 59 59 59 59 59 59 54 42 61 59 61 61 58 62 60 60 61 60 58 52 56 54 52 51 43 54 57 60 60 45 58 63 58 60 61 60 64 68
59 59 59 59 58 58 58 58 58 59 59 59 52 47 42 64 55 59 60 57 60 59 59 63 58 53 54 45 42 45 38 42 49 58 57 54 46 58 62 60 60 59 61 62 64
59 58 58 58 58 58 58 59 59 57 56 59 57 45 50 50 55 58 59 59 55 53 53 53 50 43 44 43 34 39 40 44 45 52 55 50 49 56 58 58 57 57 58 60 63
59 58 58 58 58 59 54 48 45 41 47 45 46 46 51 56 60 55 57 54 53 51 43 48 42 38 44 44 45 46 45 43 48 55 51 48 50 56 56 53 54 56 58 59 62
57 57 58 58 58 58 55 45 49 48 38 50 51 50 53 55 47 51 56 46 46 41 47 41 37 46 50 49 47 45 43 43 47 54 50 47 47 54 55 54 56 57 57 58 58
57 57 57 58 57 53 49 49 55 53 39 44 49 47 48 51 47 45 51 47 43 42 42 38 43 51 49 46 45 43 41 42 43 47 48 45 43 48 53 55 58 55 55 57 59
57 57 57 57 50 49 46 53 53 51 32 36 42 45 48 47 42 51 51 48 44 41 44 43 50 49 46 45 47 38 49 48 45 41 34 47 31 43 49 53 53 52 51 53 54
56 56 57 57 46 46 50 53 52 46 21 41 42 51 48 43 44 45 53 47 42 41 44 38 42 44 44 46 50 45 50 46 44 39 37 38 32 40 47 44 47 48 48 50 53
56 56 56 52 48 54 53 51 49 30 23 34 43 40 42 42 43 45 46 49 49 43 43 41 45 42 42 49 52 52 45 43 41 38 26 35 34 35 40 46 45 47 49 52 53
55 56 54 55 47 56 52 46 29 21 37 35 39 44 45 43 42 43 40 39 37 31 33 37 37 43 44 42 48 46 37 25 24 23 23 36 33 40 47 47 48 48 49 52 52
55 55 53 54 53 52 47 37 25 35 34 44 45 45 39 44 40 41 38 37 41 37 35 32 30 38 41 40 38 39 38 28 22 20 25 35 29 38 47 52 55 52 51 51 51
54 47 47 51 54 51 41 25 27 32 39 43 45 39 39 44 41 40 38 38 41 41 33 31 29 40 42 42 42 40 36 40 30 28 21 29 34 44 46 47 50 51 51 50 50
43 44 47 53 53 47 36 30 32 41 45 46 38 40 37 41 41 40 38 43 40 46 46 40 31 37 41 44 45 42 46 33 29 19 22 26 30 33 40 44 49 50 50 50 51
42 40 48 53 48 43 29 30 42 49 49 43 42 40 38 38 42 39 38 43 46 46 48 44 38 34 38 37 36 37 35 37 35 28 22 22 29 42 45 47 48 49 52 51 50
40 40 48 49 38 36 31 40 47 47 49 47 45 44 40 41 40 38 37 43 52 50 42 46 37 31 35 43 46 43 38 38 29 27 27 24 30 46 46 47 49 50 53 52 51
36 39 48 48 37 34 41 45 47 46 46 47 45 47 46 42 38 40 41 48 50 47 45 46 34 27 30 36 41 36 39 41 38 35 28 23 29 46 47 48 51 51 52 50 50
40 38 44 42 47 45 40 42 42 47 47 48 46 47 43 41 43 39 39 46 48 47 50 49 38 30 26 29 36 32 38 41 36 29 32 34 34 40 46 48 49 48 49 49 48
39 39 42 36 38 40 45 46 45 44 46 48 44 45 44 38 39 39 41 41 46 48 45 42 28 30 36 39 37 36 37 38 32 36 30 37 37 43 46 46 48 48 49 47 46
38 35 41 34 41 38 40 43 43 43 44 43 44 46 45 41 40 38 41 39 38 40 40 40 27 29 26 39 37 32 37 38 39 39 38 39 36 49 49 47 46 46 48 46 45
35 38 38 40 39 37 41 42 44 43 46 47 46 44 41 43 45 44 45 46 44 41 38 37 28 23 21 34 32 27 34 37 38 42 41 35 42 48 46 48 46 45 46 45 44

GFSSW_sfc_temp_042.txt.gz
Temp
64 64 64 64 63 61 62 62 61 61 62 62 62 63 63 62 64 59 51 60 64 70 72 63 61 61 61 59 61 60 46 43 47 50 54 61 57 63 70 63 62 62 62 68 70
64 64 64 63 62 61 60 62 60 61 61 61 62 62 62 62 57 53 61 67 69 70 61 57 53 59 52 54 55 52 47 47 56 58 55 58 57 59 62 61 58 60 66 68 68
63 63 63 62 62 60 60 60 59 59 61 61 61 61 61 60 50 52 67 68 70 69 63 60 58 57 51 52 53 52 47 57 59 61 56 55 56 62 59 59 59 60 63 64 63
63 62 62 62 61 60 60 59 60 59 60 60 60 59 58 57 37 61 70 69 69 68 62 57 55 49 48 47 55 49 57 59 59 57 57 55 58 57 60 63 67 64 65 64 62
62 61 61 61 60 60 59 59 59 60 60 60 60 58 54 47 47 64 67 69 67 63 58 54 50 49 46 49 54 52 56 60 59 57 57 57 55 56 57 66 65 64 64 62 63
61 61 60 60 59 59 59 59 59 59 60 60 58 59 52 40 61 62 62 65 65 60 57 56 52 54 51 51 51 55 57 58 57 56 57 52 54 56 61 65 64 65 62 61 62
61 60 60 59 59 59 59 59 59 58 60 60 59 55 48 46 61 60 62 60 64 61 56 58 58 54 52 49 55 57 51 54 54 57 56 58 49 51 62 63 61 62 64 64 63
59 59 59 59 59 59 58 59 59 59 59 59 60 54 42 60 61 60 62 57 60 60 62 59 60 55 51 53 51 50 50 42 53 56 59 57 46 57 64 58 59 60 60 63 64
60 59 59 59 59 59 59 59 58 59 59 59 50 47 41 62 55 59 60 57 58 58 59 64 58 50 50 46 40 42 38 42 47 57 56 55 49 58 62 58 58 58 59 61 61
59 59 58 58 58 58 59 59 59 56 56 57 55 41 49 48 55 57 60 60 54 53 52 53 48 42 43 42 35 38 38 45 45 52 54 50 48 56 56 55 56 57 57 59 61
58 57 58 58 58 58 54 48 43 41 46 42 44 44 49 54 58 53 58 53 52 51 39 47 41 38 39 43 43 44 43 42 46 53 51 51 48 54 55 51 51 55 56 57 59
58 57 57 58 58 58 51 44 46 46 37 48 49 48 51 53 46 50 57 43 46 40 41 41 39 44 47 48 44 44 42 41 46 53 51 48 48 53 53 51 53 55 54 57 57
57 57 57 57 57 51 47 46 53 52 39 43 48 46 46 50 46 45 52 45 44 41 39 39 44 48 47 43 42 39 39 40 42 47 48 45 42 47 52 51 55 54 55 56 58
57 57 56 57 49 47 45 52 52 51 32 36 41 44 48 47 42 51 52 48 44 42 42 41 49 46 44 43 44 35 46 45 44 41 34 45 31 41 50 50 52 52 50 54 55
56 56 56 56 45 44 49 52 50 46 21 38 41 50 48 43 43 44 52 48 42 42 41 37 43 44 43 44 48 42 48 44 42 38 37 37 33 39 43 41 47 46 48 50 51
56 56 56 50 47 50 51 50 49 26 20 33 40 37 38 43 43 46 47 50 50 42 44 41 45 42 43 46 49 48 43 41 37 35 25 35 33 33 38 42 42 44 47 49 50
55 55 54 53 44 52 50 44 25 22 38 36 38 36 37 36 40 43 41 39 37 31 33 38 38 43 42 42 48 44 36 23 25 22 24 35 31 40 44 46 46 46 45 48 49
55 55 53 52 51 50 48 36 22 34 34 45 43 41 36 39 39 40 38 36 40 37 35 31 31 39 41 39 38 37 36 25 21 20 24 32 29 36 46 48 50 51 51 48 48
53 46 46 49 51 49 41 21 25 27 38 41 42 37 36 40 40 40 39 38 42 38 34 29 29 41 42 41 41 38 34 37 28 25 20 28 33 43 44 43 46 48 49 48 47
42 42 44 51 51 46 33 29 30 41 43 42 36 40 36 39 38 38 38 44 42 42 41 35 29 38 41 44 42 39 43 31 26 18 20 26 27 32 37 42 46 47 47 47 49
42 39 46 51 48 41 25 28 39 47 46 42 39 38 38 37 39 36 37 42 44 43 43 40 35 34 39 38 37 36 33 34 34 31 22 21 28 39 41 45 47 49 49 48 48
38 35 47 48 39 34 29 39 46 45 47 45 43 42 38 39 37 35 37 41 48 47 39 41 36 31 34 43 46 43 36 40 31 25 24 23 28 43 45 45 48 49 51 50 50
38 37 46 46 30 32 39 43 45 44 44 44 43 45 43 40 35 37 39 46 48 47 42 43 33 26 30 36 40 37 39 40 38 33 24 22 29 45 41 46 49 49 50 49 49
38 36 40 43 42 38 37 39 40 45 45 46 44 45 42 40 42 37 37 44 46 47 50 48 35 29 27 31 36 32 36 38 35 25 31 28 33 40 43 46 48 49 49 48 48
36 37 41 35 41 41 42 42 42 43 45 45 42 43 40 35 37 35 38 40 45 47 44 42 29 29 35 37 35 35 37 38 33 39 33 40 39 44 47 48 49 48 47 46 45
32 35 37 36 39 39 41 41 42 42 42 40 43 43 42 38 37 36 39 37 37 39 38 38 26 29 26 36 34 32 36 38 39 39 37 36 35 47 51 45 46 45 46 46 45
33 36 36 39 38 40 40 42 42 41 44 45 46 42 40 41 42 42 43 44 42 39 36 35 28 22 20 32 32 27 34 36 37 40 40 34 44 45 44 48 45 44 46 45 44

GFSSW_sfc_temp_045.txt.gz
Temp
64 64 64 63 63 63 62 61 61 61 60 62 62 62 63 63 62 59 50 58 63 69 71 60 59 63 59 57 58 60 47 45 47 50 52 59 54 60 64 58 60 60 61 65 66
63 64 64 63 62 62 61 60 61 60 60 61 61 62 63 61 56 52 62 66 69 69 60 56 52 59 53 53 55 51 46 48 57 56 53 57 55 56 57 58 57 57 64 66 66
63 62 62 62 61 61 60 59 60 60 60 61 61 61 60 60 50 51 66 67 68 69 60 58 56 58 52 54 51 52 47 55 57 57 55 55 57 58 55 54 58 57 61 62 63
62 62 62 61 61 60 60 60 60 60 60 60 60 60 59 56 37 59 63 68 70 67 58 56 53 50 51 49 54 48 56 59 57 57 56 55 58 55 55 58 63 63 63 62 63
62 61 61 60 60 60 59 60 60 60 60 60 60 58 55 46 47 63 66 65 66 63 57 53 49 53 50 47 51 49 56 60 57 57 57 57 54 53 53 62 65 63 62 61 62
61 61 60 60 60 60 60 59 60 59 60 60 59 58 51 39 61 62 61 62 63 60 57 54 51 58 51 48 49 53 57 55 55 55 57 54 55 53 58 61 62 62 60 60 61
60 60 60 60 60 59 59 59 59 59 60 60 59 56 48 46 61 59 60 59 63 61 56 57 57 52 50 47 54 53 50 50 52 54 53 57 49 48 58 61 59 61 60 61 61
60 59 59 59 59 59 59 59 59 59 59 59 60 53 42 60 61 60 61 58 59 60 59 59 58 53 49 51 49 47 48 41 50 53 55 53 43 53 58 56 58 58 59 62 62
59 59 59 59 59 59 59 59 58 59 59 59 49 46 40 62 53 60 60 55 57 57 57 60 57 49 48 42 38 40 35 39 46 55 53 52 46 56 60 59 55 57 57 60 62
59 59 58 58 58 58 59 58 58 56 55 56 54 40 48 47 53 56 58 58 53 52 50 52 48 41 40 39 34 36 34 41 43 51 51 48 47 54 57 58 57 57 57 56 59
58 58 57 57 58 58 52 47 43 40 45 41 42 42 48 53 56 53 56 55 52 50 41 48 39 37 38 41 41 42 39 39 45 53 50 48 49 52 54 54 51 52 53 55 58
58 58 57 57 57 58 49 42 46 45 37 47 47 46 50 51 45 49 54 46 45 39 41 40 38 43 46 46 43 43 38 37 45 51 51 49 48 54 56 56 54 52 51 53 55
57 57 57 57 57 50 45 46 52 51 39 43 47 44 45 49 44 45 49 44 42 39 39 36 43 47 46 43 42 37 38 37 39 46 47 46 42 48 53 52 55 53 53 52 55
57 57 56 56 49 46 43 51 51 50 29 36 41 43 48 46 41 52 51 46 43 38 40 36 48 45 42 42 41 33 43 44 42 40 34 46 31 41 50 50 50 54 50 51 52
56 56 56 55 44 43 48 50 49 46 21 38 41 49 46 43 44 45 53 48 40 40 41 36 40 41 39 42 46 40 45 43 40 36 35 37 33 40 44 44 50 49 48 50 51
56 56 55 50 50 48 50 49 49 24 16 32 40 39 39 44 43 46 47 50 48 43 43 40 45 45 41 46 48 47 42 39 36 34 26 35 34 33 41 42 46 48 46 48 49
55 55 54 51 43 50 51 43 26 19 37 33 35 38 39 38 40 43 41 38 36 32 33 38 39 44 43 41 44 45 36 29 24 21 22 32 32 42 45 45 45 47 46 46 47
55 54 53 51 49 49 47 35 18 33 34 44 38 37 35 39 40 40 39 36 41 37 35 32 30 38 41 39 37 37 36 25 21 20 24 32 28 37 45 49 49 48 46 45 45
53 45 45 48 50 49 41 18 24 27 37 39 36 33 35 40 41 40 38 39 40 40 33 29 32 42 40 42 41 38 30 36 26 22 19 27 33 42 44 46 44 45 45 44 45
41 42 43 49 53 48 32 28 29 39 41 41 34 39 33 37 38 38 37 42 41 43 41 36 29 38 41 43 42 38 41 30 24 16 19 24 26 32 39 43 44 44 45 45 46
41 39 45 49 51 41 24 27 38 45 44 40 37 36 37 35 38 37 38 43 47 42 42 38 34 34 40 38 35 35 32 32 32 27 21 21 28 37 40 42 44 46 47 46 46
38 34 45 47 40 38 27 37 46 44 45 43 41 40 36 39 36 36 35 38 47 45 38 39 36 30 35 42 45 40 34 35 26 23 23 22 27 41 41 42 46 47 49 49 49
38 37 46 47 29 31 38 42 43 43 43 43 41 43 41 37 34 35 38 45 47 44 39 41 30 28 31 37 40 37 37 37 35 30 24 23 29 44 40 39 44 48 49 50 48
36 31 38 43 39 35 35 38 39 45 43 45 42 43 40 37 39 35 36 43 47 48 50 47 35 30 26 30 36 34 38 37 35 26 31 31 34 40 43 41 45 48 50 48 47
35 34 37 30 38 40 38 40 40 42 43 44 41 41 39 34 35 34 37 39 43 47 43 42 32 30 35 38 34 33 35 38 34 38 30 39 34 43 44 44 45 46 45 44 44
31 31 35 34 40 40 41 40 40 42 40 39 40 41 39 36 35 35 37 35 37 38 37 37 27 29 25 35 34 32 34 36 37 39 39 37 36 46 49 46 45 47 46 45 45
32 35 34 37 39 39 37 39 40 42 42 43 43 40 38 39 41 40 41 42 41 39 35 34 28 23 21 30 31 27 33 34 36 40 39 33 44 44 43 45 48 44 43 45 44

GFSSW_sfc_temp_048.txt.gz
Temp
64 62 63 63 63 62 62 61 60 61 61 61 61 62 62 63 61 57 51 57 61 69 69 60 58 62 60 56 57 57 47 44 45 49 52 55 53 57 59 55 56 61 59 62 65
63 63 63 62 62 62 61 61 61 61 61 61 61 62 62 62 56 52 61 66 68 69 60 55 51 57 54 53 54 50 46 47 55 55 53 56 54 54 54 54 55 60 67 63 65
62 62 62 62 61 61 61 61 61 61 61 61 61 61 61 58 49 51 63 65 68 68 59 58 55 55 51 54 51 51 47 53 57 59 57 55 56 57 53 51 53 54 59 65 61
62 61 61 61 61 61 60 60 61 61 61 60 60 61 61 56 36 54 63 66 67 67 58 55 52 47 48 46 54 47 53 56 58 59 57 56 58 52 52 55 59 60 63 64 61
61 61 61 61 60 60 60 60 60 60 61 60 60 59 54 46 46 61 64 64 63 61 56 54 48 47 46 52 50 49 53 57 59 57 56 58 55 52 52 58 61 62 64 61 62
62 60 60 60 60 60 59 60 60 60 60 60 59 58 50 39 56 61 60 61 60 59 56 56 51 52 51 52 52 53 54 55 56 55 56 55 54 56 62 60 60 61 61 60 60
60 60 59 60 60 59 59 59 59 59 60 60 59 56 48 46 60 59 60 58 62 59 54 57 57 52 49 48 52 53 49 50 52 53 52 56 51 50 59 61 57 57 59 61 61
61 59 59 59 59 59 59 59 59 59 59 59 60 50 43 59 58 59 59 56 61 62 58 59 57 54 47 50 49 47 47 42 49 52 52 53 44 53 59 56 54 55 57 60 62
59 60 58 58 59 58 59 59 59 59 59 59 48 45 39 61 53 59 59 55 57 58 59 60 56 49 46 42 38 39 34 39 43 53 50 49 44 55 56 54 54 55 56 58 60
59 58 58 57 57 58 58 58 58 55 55 55 53 39 47 46 54 55 58 57 54 53 51 50 49 42 39 39 32 34 32 37 40 47 48 45 46 53 54 53 53 55 56 55 58
59 57 58 57 57 58 52 46 42 39 44 39 41 41 46 52 56 51 55 54 52 49 39 45 39 37 37 40 39 40 38 36 42 50 46 46 47 51 53 52 52 55 52 53 57
58 57 57 57 57 57 48 41 43 44 36 46 46 45 48 49 44 48 53 46 45 38 38 38 35 41 45 45 42 41 36 35 42 50 48 46 46 51 52 53 55 57 54 54 52
57 56 57 57 56 49 44 44 51 49 37 42 45 43 44 47 42 44 48 45 40 36 34 37 41 46 45 43 40 35 36 36 38 44 47 44 42 47 50 53 56 58 54 52 53
57 56 57 56 48 44 42 50 49 49 30 35 41 43 46 45 40 50 49 46 43 35 38 38 45 43 42 41 41 34 42 42 41 39 31 42 30 40 50 51 52 56 57 53 52
57 57 56 55 43 42 47 49 48 45 21 37 40 49 46 42 42 43 52 48 38 39 39 35 41 40 39 41 47 39 44 42 39 35 35 33 31 38 45 44 52 56 56 52 52
56 56 55 51 50 47 48 48 48 24 20 33 39 39 38 42 41 45 45 50 47 42 42 40 45 43 41 44 47 44 40 38 37 33 23 32 32 35 38 45 45 52 54 53 49
56 55 53 50 43 49 50 43 26 20 37 32 34 38 37 37 39 42 39 36 36 31 32 37 39 41 42 40 43 41 34 22 21 20 21 30 29 39 44 46 48 51 52 51 46
55 52 54 50 48 48 45 34 18 31 34 40 39 38 35 39 39 41 37 34 40 39 33 33 28 38 40 38 36 37 36 25 21 20 23 30 26 35 45 47 48 50 50 49 46
52 44 44 50 51 50 41 18 23 25 38 37 37 34 34 39 40 39 38 37 40 40 33 32 31 41 40 40 41 36 29 35 24 20 18 26 31 40 43 45 46 46 45 45 45
41 41 42 48 53 47 36 28 29 38 41 39 33 36 33 37 36 37 36 43 40 41 40 34 31 39 42 42 41 38 41 32 25 16 18 23 24 30 39 43 45 45 43 43 45
41 41 44 50 51 41 23 29 36 44 43 39 38 37 37 37 40 37 34 40 43 40 40 36 34 35 41 36 35 36 30 31 32 26 20 20 27 36 38 40 41 44 44 44 44
38 37 45 50 39 38 26 35 45 42 43 41 41 41 39 38 35 33 33 37 46 44 37 38 34 31 35 42 41 36 33 33 25 22 22 21 27 40 40 41 41 43 45 46 47
35 39 48 47 34 30 36 40 42 41 41 41 40 42 40 36 34 36 36 42 46 43 39 40 33 28 29 36 38 37 38 35 33 29 22 21 29 42 39 41 43 42 44 46 47
35 30 38 43 41 33 33 36 37 43 42 43 41 42 39 36 37 33 36 44 47 47 49 46 33 29 25 29 34 32 36 37 35 30 33 32 34 41 42 43 43 43 44 45 44
33 32 34 28 34 35 36 37 37 40 42 42 39 39 37 32 33 33 36 39 45 48 43 41 27 28 33 36 33 32 33 36 34 36 31 39 37 44 46 47 45 44 44 44 43
31 31 34 32 35 33 36 36 37 40 40 37 38 39 38 35 34 33 36 34 35 37 37 38 28 29 27 34 33 31 34 35 38 38 37 38 37 48 46 43 43 44 44 44 43
31 33 33 34 34 38 35 38 37 38 41 44 43 41 38 37 38 38 39 39 39 37 34 34 27 22 20 29 30 26 33 34 34 38 38 33 42 42 43 45 44 44 44 45 44

GFSSW_sfc_temp_051.txt.gz
Temp
63 64 63 63 63 62 62 62 62 62 62 61 61 62 62 61 62 58 51 59 62 67 67 61 62 61 60 56 59 58 46 44 48 51 53 58 58 61 63 61 63 65 64 65 68
63 63 63 63 62 62 62 62 62 61 61 61 61 62 61 62 56 53 61 64 68 69 59 57 53 58 55 54 55 51 44 48 56 57 53 57 57 57 60 60 60 63 67 69 66
62 63 62 62 62 62 62 62 61 61 61 61 61 61 61 59 50 51 64 62 65 67 59 59 58 57 52 54 53 51 47 54 58 58 59 57 57 59 58 56 57 57 61 65 65
63 61 62 61 61 61 61 61 61 61 61 61 61 60 61 55 37 54 62 61 64 65 60 55 54 51 49 49 52 48 54 56 57 59 58 57 59 57 57 61 62 62 63 64 66
62 61 60 61 61 61 60 60 61 61 61 60 60 60 55 46 46 61 63 60 61 60 57 53 51 50 47 50 52 50 53 53 58 57 58 59 57 57 56 61 64 64 63 64 64
62 61 61 60 61 60 60 60 60 60 60 60 60 59 51 39 57 59 60 58 58 58 56 54 52 54 51 51 50 53 55 56 57 54 56 56 55 57 61 62 62 62 62 63 64
61 61 60 60 60 60 60 60 60 59 60 60 60 56 48 46 57 59 59 57 60 60 55 57 57 54 53 50 55 53 49 52 53 55 53 56 53 52 60 62 60 60 61 63 64
61 60 59 59 59 59 59 59 59 59 59 60 59 51 43 60 59 57 58 56 58 62 60 58 59 55 51 53 51 48 49 42 49 53 53 53 45 57 60 61 58 59 61 61 65
60 59 59 58 58 58 58 59 59 59 59 59 49 46 41 61 52 54 58 53 57 59 59 60 56 52 50 45 42 44 39 42 44 54 51 52 46 57 59 56 59 58 59 61 63
59 58 58 57 57 57 58 58 58 55 54 55 53 41 47 46 53 55 58 55 55 53 52 50 49 43 42 41 35 37 37 41 42 47 49 47 47 54 55 56 60 63 58 59 61
59 58 57 57 57 57 52 45 42 40 44 40 41 41 46 51 57 52 55 51 53 49 41 45 41 37 41 43 44 41 40 40 46 50 48 46 47 52 54 53 54 59 58 60 60
58 57 57 57 57 57 47 41 44 45 36 45 45 45 48 50 44 48 55 44 45 38 41 37 36 44 47 47 43 42 39 40 46 49 48 46 46 52 52 54 57 59 62 60 61
57 57 57 57 56 49 43 44 50 49 37 42 45 43 44 47 42 43 49 44 41 36 37 36 41 47 47 43 41 39 39 38 41 45 49 46 43 47 52 54 56 58 61 62 59
57 57 56 56 48 44 42 49 50 49 30 36 40 43 46 46 40 50 51 47 41 36 37 37 46 44 44 43 43 37 44 43 42 41 36 47 34 42 49 52 53 56 59 62 57
56 56 56 55 43 42 46 48 48 44 18 37 40 49 46 42 42 44 52 48 38 38 38 35 42 43 41 43 46 41 45 43 41 38 39 39 37 42 47 47 51 55 58 61 58
56 56 55 51 50 46 47 46 48 24 19 33 39 39 39 41 42 46 46 50 48 40 40 39 46 45 44 45 46 44 42 41 40 39 30 35 36 38 42 46 50 56 59 60 63
56 55 53 49 43 48 48 42 26 18 35 32 35 37 37 37 40 40 39 38 35 32 32 38 40 42 44 41 45 43 37 29 28 26 27 34 33 41 47 49 51 53 55 56 56
54 54 52 49 47 49 45 35 21 30 33 39 39 37 35 39 39 40 37 36 40 39 34 32 30 38 41 42 40 40 38 28 21 23 28 33 30 41 48 51 51 51 51 52 52
53 44 47 50 52 50 41 18 21 29 38 37 36 32 32 38 38 39 36 36 41 41 33 32 32 41 41 42 43 39 36 38 26 25 25 31 35 43 46 48 50 50 50 49 50
41 41 42 49 52 47 36 28 31 39 40 39 32 35 28 35 33 35 35 42 40 43 42 37 31 40 42 42 42 40 42 32 28 20 22 28 29 37 42 45 47 48 48 49 48
41 41 44 51 50 41 28 30 36 44 43 38 36 35 34 35 36 33 35 41 45 41 41 38 36 35 41 38 36 37 33 34 34 30 26 24 32 40 42 46 45 46 46 47 47
38 38 46 50 39 38 30 34 44 41 43 43 43 41 38 39 38 32 33 38 46 43 38 39 35 32 35 42 43 38 36 36 28 26 26 26 31 45 44 44 44 46 47 48 48
35 41 47 47 34 29 34 39 40 40 40 41 39 42 42 37 33 36 36 43 45 43 39 40 31 29 31 37 40 38 37 37 34 31 24 27 33 44 44 46 47 47 48 48 48
35 30 41 43 42 35 33 35 36 42 41 41 39 41 38 35 37 35 35 44 46 45 48 45 34 30 26 30 34 32 35 37 34 26 30 33 37 43 47 46 47 49 49 48 48
33 31 34 35 35 33 34 36 36 38 41 41 39 37 36 32 32 32 35 41 45 46 43 40 28 29 34 36 35 35 35 36 34 36 32 39 38 45 47 48 50 50 48 46 46
32 32 32 31 34 32 35 35 35 37 38 37 37 37 37 34 33 33 36 35 37 41 40 39 28 31 28 34 34 32 34 34 36 37 37 38 37 49 51 49 46 48 47 46 46
30 32 34 32 32 36 35 36 36 37 40 43 41 40 37 36 37 37 38 39 38 37 34 35 32 28 25 30 31 28 34 34 35 38 39 34 42 49 45 46 46 47 46 47 49

GFSSW_sfc_temp_054.txt.gz
Temp
63 64 64 63 63 63 62 63 63 62 62 62 62 62 62 62 61 62 57 64 67 68 69 69 68 66 64 64 65 64 54 53 56 58 59 63 63 65 69 71 71 72 71 72 73
63 63 63 63 63 62 62 62 62 62 62 62 62 62 62 61 61 58 67 66 68 68 63 63 62 63 57 61 61 56 49 57 64 62 60 61 63 62 66 68 68 71 75 71 68
63 62 62 63 62 62 62 62 62 62 62 62 62 62 62 63 55 57 65 62 63 66 63 63 67 64 59 53 59 57 54 61 63 63 64 61 62 64 66 64 67 67 70 70 66
63 62 61 61 62 62 61 61 62 62 62 61 61 61 60 60 42 58 63 61 60 65 61 56 61 58 58 52 57 50 60 62 63 62 62 62 63 62 64 65 70 70 73 74 68
62 62 61 61 61 62 61 61 61 61 61 61 60 60 59 51 52 64 64 61 57 59 55 54 58 59 55 60 57 53 53 59 63 59 62 63 61 61 63 69 69 71 72 73 72
62 61 61 60 60 60 60 60 61 60 60 61 61 59 55 44 63 64 62 61 55 58 55 54 61 63 60 60 58 61 57 56 60 58 57 57 61 60 68 69 68 69 70 73 72
61 61 60 60 59 60 60 60 61 60 60 60 60 60 52 51 64 65 62 59 56 59 54 56 62 61 63 58 64 61 54 55 57 59 55 55 53 57 68 70 68 70 70 71 72
60 60 60 59 59 59 59 59 60 59 59 60 60 58 49 63 66 61 62 58 60 62 61 59 61 61 60 63 60 56 55 45 56 57 58 56 49 63 68 68 67 71 72 70 71
60 59 59 59 59 58 58 59 59 59 60 60 57 54 47 63 54 56 61 54 58 61 62 59 58 56 57 54 50 52 46 48 47 59 56 55 54 62 65 65 67 71 72 71 71
60 59 58 58 58 58 58 58 58 58 59 60 58 48 54 49 48 55 61 57 55 57 53 51 50 51 53 51 42 47 49 50 45 51 53 52 54 61 64 65 67 72 74 73 69
59 58 58 57 57 57 57 57 51 49 52 47 47 47 50 57 59 55 58 52 53 54 46 45 40 42 50 54 55 55 52 49 47 53 50 51 53 59 64 63 63 68 71 73 72
59 57 58 57 57 57 56 51 50 51 44 50 50 50 53 54 47 52 57 43 45 42 44 39 35 52 55 54 52 52 50 50 54 54 50 50 51 59 63 63 64 66 70 72 73
58 57 57 57 57 55 53 52 57 55 45 46 50 48 49 52 47 47 50 42 43 42 39 37 41 53 51 50 48 51 49 50 51 53 55 52 50 55 61 64 66 67 70 73 73
57 57 57 56 51 53 51 56 57 56 36 38 44 47 50 51 44 52 52 44 42 40 39 38 47 50 50 48 52 44 53 52 50 49 44 54 45 54 58 59 62 65 67 70 72
56 56 56 56 53 50 52 57 56 53 26 38 43 55 51 46 47 47 54 47 42 41 42 35 41 47 47 49 54 47 52 52 51 50 47 47 44 54 56 55 60 64 66 68 69
56 56 56 53 54 54 56 56 54 33 25 33 43 43 43 46 45 48 47 53 52 45 44 40 48 49 50 51 53 52 51 50 50 49 36 47 46 50 54 55 60 65 67 68 70
55 56 56 57 51 56 56 52 33 30 36 32 37 41 42 39 39 39 42 39 37 33 33 39 40 46 51 46 51 53 49 34 33 32 36 43 43 51 57 60 60 62 65 68 70
54 55 54 55 55 56 53 42 30 33 33 41 41 41 38 41 39 40 39 36 41 41 34 34 31 41 48 49 46 47 50 40 29 32 38 41 39 51 58 58 60 60 63 64 63
53 55 53 52 54 54 46 33 33 34 38 40 40 36 38 42 42 41 39 41 43 43 35 35 33 45 46 49 51 44 39 47 38 36 38 44 47 55 58 60 60 60 60 63 64
53 52 51 52 54 51 42 34 37 42 42 44 33 39 36 40 39 40 40 45 42 48 49 43 32 44 45 50 50 49 52 39 39 29 30 39 41 49 53 56 59 60 59 60 60
52 48 52 53 55 46 34 36 41 47 46 38 36 36 41 41 42 40 40 45 48 46 48 47 44 36 46 44 43 44 43 44 45 40 36 37 44 56 56 56 57 59 58 59 59
50 42 52 53 42 43 36 41 46 47 48 47 43 43 43 44 41 40 40 43 51 51 45 47 45 34 36 45 49 48 48 49 39 35 39 39 44 57 57 57 55 59 60 59 58
48 44 51 49 39 43 44 44 47 47 46 47 45 42 44 42 38 40 42 48 50 49 47 49 40 30 32 38 44 43 45 47 46 42 36 36 44 54 55 55 57 58 61 62 59
48 38 42 44 45 40 42 43 43 48 47 48 47 49 44 42 44 40 41 47 50 50 48 50 43 38 38 38 44 39 43 45 44 37 41 42 46 53 55 57 61 63 63 63 60
47 43 44 37 42 43 43 43 43 43 49 49 46 45 45 41 41 40 43 44 47 48 48 48 36 37 41 42 42 42 43 44 37 43 39 45 47 53 56 57 59 60 61 60 60
45 43 44 43 42 43 42 41 42 42 44 44 43 44 46 43 42 41 43 42 43 46 44 46 35 38 34 39 40 38 42 43 44 44 44 44 43 54 57 59 58 59 59 58 59
42 44 47 39 42 43 42 41 40 42 46 47 47 47 44 43 46 47 48 50 49 46 41 41 38 35 32 36 37 34 41 43 43 45 45 40 49 55 53 53 54 56 58 58 59

GFSSW_sfc_temp_057.txt.gz
Temp
64 63 63 63 63 63 63 63 63 63 63 62 62 63 62 62 61 59 54 68 70 70 69 71 71 69 66 66 71 72 51 49 57 62 63 67 66 69 74 74 75 75 74 76 75
64 63 62 63 63 63 62 62 63 63 62 62 62 62 62 62 63 58 67 68 68 68 67 64 63 66 56 62 61 59 49 56 63 66 63 65 69 68 69 71 72 74 77 73 71
63 63 63 61 62 62 62 62 62 62 62 62 62 61 62 63 56 58 66 65 67 65 66 66 67 66 56 55 58 58 55 62 63 67 68 63 64 69 69 66 72 69 73 71 66
63 62 62 62 61 62 62 62 61 62 62 61 61 61 61 63 42 59 63 62 61 64 63 60 60 57 55 49 54 54 63 63 65 63 65 64 68 66 69 68 74 74 76 74 68
63 62 61 61 61 61 61 61 61 61 61 61 61 60 61 54 55 66 64 62 61 59 56 55 57 59 56 55 51 50 61 63 59 64 66 64 63 62 65 72 72 74 75 75 74
62 61 61 60 60 60 60 60 61 61 60 61 61 59 57 47 67 68 65 63 61 57 54 56 58 65 61 59 50 55 58 62 64 63 63 60 61 60 68 73 71 71 73 75 74
62 61 60 60 60 60 60 60 60 60 60 60 61 63 55 51 68 68 65 61 61 58 52 58 63 61 63 60 63 57 49 57 59 62 61 59 53 57 67 72 70 72 73 74 74
61 60 60 60 59 59 59 59 60 60 60 60 60 61 50 65 69 64 65 62 63 61 58 58 58 55 61 66 60 51 49 43 56 59 63 59 50 62 68 67 68 70 74 74 74
61 60 59 59 58 59 58 59 59 60 60 60 59 57 49 63 56 60 62 56 59 59 57 57 55 57 60 54 50 53 43 46 53 62 60 57 55 64 69 69 67 69 73 75 75
60 59 58 58 58 58 58 58 60 59 61 64 62 50 56 50 48 54 62 58 55 53 49 48 49 52 54 51 41 48 52 53 51 56 57 53 55 63 67 66 67 69 71 74 75
59 59 58 58 58 58 57 59 53 51 55 50 51 50 53 59 59 53 58 52 53 50 41 43 40 43 53 57 59 57 56 52 56 58 53 52 54 59 66 67 66 68 71 73 76
58 58 58 58 58 57 58 54 54 54 47 54 53 53 57 57 47 49 57 41 45 42 45 40 36 53 58 59 55 57 54 51 54 56 53 52 51 60 65 67 68 69 71 73 76
58 57 57 57 57 56 57 56 61 59 47 48 53 52 52 54 49 47 51 43 47 46 42 38 41 50 55 53 51 54 53 54 50 52 54 51 45 52 63 67 69 70 72 75 76
57 57 57 56 50 58 54 60 61 60 36 41 47 50 53 54 45 52 53 44 43 41 44 41 44 45 52 51 54 48 59 56 54 50 44 55 44 55 59 62 65 68 70 71 73
57 57 56 56 55 54 56 61 61 56 27 42 45 58 55 48 49 45 56 46 44 44 45 38 40 44 48 51 56 50 57 55 54 51 53 50 46 55 61 58 63 67 69 72 72
56 56 55 55 56 58 61 60 57 33 25 35 46 46 46 48 48 48 46 49 57 48 42 41 46 48 53 57 57 55 53 53 53 51 38 48 47 51 57 58 62 67 71 72 73
55 56 56 59 52 61 61 54 34 30 36 35 41 45 45 40 40 41 41 39 40 35 33 37 38 46 53 49 53 55 49 36 34 33 36 49 47 53 60 63 64 63 67 70 74
54 55 54 58 62 60 56 43 31 36 34 45 45 45 40 42 38 43 38 36 46 48 36 33 30 43 52 52 48 49 50 40 31 34 40 47 40 52 63 64 65 65 67 68 70
54 58 57 56 59 59 48 34 34 36 44 43 44 40 41 43 42 43 37 39 47 48 37 36 33 44 51 53 54 48 43 50 42 45 41 46 51 59 63 62 64 64 65 65 67
56 55 55 56 58 54 43 36 40 43 45 48 38 44 39 42 43 44 40 46 44 48 49 45 34 44 47 51 53 52 55 41 41 31 33 42 45 50 55 58 62 62 63 65 65
55 49 54 59 57 48 37 40 44 49 48 43 38 40 45 44 46 44 42 47 49 48 51 50 46 39 44 44 45 46 43 47 48 43 36 38 45 59 58 60 59 61 62 64 65
54 43 54 58 41 49 40 46 46 48 51 45 45 45 47 48 44 44 42 47 55 53 45 51 46 36 40 47 52 51 49 50 40 36 43 41 44 61 62 60 60 61 64 66 65
49 49 53 54 39 44 48 48 50 49 49 48 44 46 48 47 42 46 46 51 53 52 47 51 42 31 33 43 49 46 50 50 51 45 39 37 45 59 60 59 62 61 64 67 66
52 39 45 47 48 47 47 47 46 51 50 51 50 50 48 46 48 44 45 49 53 53 48 53 46 41 36 40 48 41 46 48 46 37 41 43 47 55 58 60 63 65 66 65 66
53 50 51 38 45 49 48 49 47 45 52 53 49 49 48 44 45 43 45 47 50 49 52 52 39 39 45 46 45 45 46 47 41 44 40 46 48 55 59 59 60 62 63 63 63
51 49 50 51 51 49 45 46 47 47 48 47 47 49 50 47 45 43 45 45 45 50 49 50 37 41 35 43 43 40 46 47 48 48 47 48 47 58 60 62 59 60 60 60 61
52 53 53 45 49 49 48 47 46 49 50 51 51 51 47 46 50 52 53 53 52 48 46 46 41 36 34 40 40 36 44 46 46 49 48 42 51 54 54 54 55 57 58 58 60

GFSSW_sfc_temp_060.txt.gz
Temp
64 64 64 63 63 63 63 63 63 63 63 63 63 63 63 63 62 59 52 59 65 70 69 68 67 67 62 60 63 65 49 48 54 59 60 65 61 66 71 68 70 72 68 68 71
63 64 63 63 62 63 63 63 62 63 63 62 62 62 62 62 60 57 65 67 65 67 64 61 59 62 54 57 58 54 46 52 62 62 61 64 64 65 66 66 65 67 70 72 69
63 63 63 63 63 62 62 62 62 62 62 62 62 62 61 62 54 57 65 65 67 65 63 65 64 61 54 55 56 54 49 57 61 63 67 63 62 67 65 61 65 63 65 67 67
63 63 63 62 62 62 62 62 62 62 62 62 62 62 61 60 40 58 64 64 64 62 58 59 58 53 52 48 57 50 60 60 58 61 61 62 65 64 64 64 69 69 70 67 65
63 62 62 62 61 61 61 61 61 62 61 61 61 61 59 53 53 65 65 63 63 60 54 55 54 52 50 53 53 51 56 57 59 60 59 63 61 60 61 67 69 71 72 69 68
63 61 61 61 61 60 60 61 61 61 61 61 61 60 55 44 66 68 66 64 62 58 54 55 54 58 57 55 51 52 52 54 55 57 58 58 59 59 62 68 68 68 69 68 68
62 61 61 61 60 60 60 60 60 61 61 61 61 60 54 51 67 68 66 62 62 58 52 55 55 51 57 56 59 53 49 50 55 56 58 57 53 54 63 67 65 67 67 69 69
61 61 60 60 60 59 60 59 59 60 60 60 61 58 49 65 66 65 65 61 62 61 55 56 56 52 53 62 53 46 46 39 51 53 55 56 45 59 64 60 62 64 66 66 70
61 60 59 59 59 58 59 59 59 60 60 61 56 55 48 62 56 58 61 56 58 58 53 57 52 51 55 49 43 45 35 36 45 58 56 52 47 60 64 63 62 64 65 67 68
60 59 59 59 58 58 58 58 59 59 60 62 61 49 55 51 51 54 60 59 53 53 47 45 46 45 47 45 35 37 39 41 40 52 55 50 49 57 62 62 61 64 66 67 68
59 58 58 58 58 58 57 56 49 48 54 50 51 51 54 57 57 54 57 52 52 48 36 41 38 37 43 49 52 51 46 43 47 53 52 50 50 54 59 60 59 61 65 66 67
58 58 58 58 58 58 56 50 53 53 45 54 54 54 58 58 47 51 57 44 42 38 39 36 35 44 50 54 53 53 48 45 52 55 51 49 48 54 57 58 61 62 62 66 68
58 57 57 58 57 55 53 56 61 60 44 49 53 52 53 54 44 45 51 43 40 38 37 36 41 47 48 52 48 49 49 45 46 50 52 47 43 49 56 61 62 63 64 65 68
57 57 57 57 51 54 53 61 61 59 34 40 47 51 54 54 42 53 50 44 42 37 43 39 45 44 45 47 51 45 56 54 48 43 36 49 33 46 53 55 58 61 60 62 63
57 57 56 56 51 52 56 61 60 53 24 43 46 59 55 48 48 47 54 48 44 44 45 36 40 39 42 50 54 47 55 50 48 45 43 42 35 43 53 51 56 60 60 61 64
56 56 56 54 53 57 60 59 54 32 22 35 47 46 46 49 47 47 45 50 54 45 44 42 46 44 46 54 55 54 50 50 47 44 27 40 39 41 46 51 55 58 61 63 64
55 56 55 58 50 60 59 51 33 28 37 36 41 46 44 40 42 42 41 41 39 30 32 37 39 46 49 46 50 50 43 27 26 24 26 43 39 43 51 57 56 55 58 59 59
55 55 55 58 60 59 53 40 29 37 35 46 45 45 40 43 40 41 38 37 46 45 34 32 29 41 50 48 43 44 44 31 26 23 29 42 31 43 54 57 59 58 57 59 59
55 54 55 55 59 57 44 32 33 36 44 43 45 39 39 43 43 41 37 41 45 47 35 33 32 44 49 52 49 43 35 45 34 35 29 36 43 50 55 54 55 55 56 54 56
53 52 53 57 58 51 40 36 39 44 46 48 38 43 36 41 41 41 38 45 44 49 47 42 33 43 47 50 49 45 50 34 32 23 26 35 37 39 46 49 53 52 52 54 55
51 46 52 58 55 45 35 40 44 49 49 44 39 41 44 42 44 42 40 45 48 46 48 47 40 37 43 40 41 42 38 41 41 34 27 27 31 46 48 51 50 51 53 53 53
51 40 52 56 41 44 39 46 47 47 49 45 44 44 46 46 43 42 40 45 52 49 44 47 42 32 37 45 49 46 44 44 30 29 33 30 34 51 51 52 51 51 53 54 56
47 45 53 52 37 40 47 47 50 48 47 45 44 46 48 46 39 45 45 51 53 50 46 49 38 27 30 40 46 42 45 46 44 38 31 26 33 53 51 50 54 53 54 56 56
48 38 44 46 47 41 45 46 44 50 50 51 49 50 48 46 48 43 43 49 51 52 49 48 43 33 27 33 40 36 42 45 40 28 34 34 37 44 48 49 50 52 53 54 55
49 44 47 36 41 45 47 48 45 44 51 52 47 48 47 42 43 42 44 46 49 48 48 47 35 33 41 44 41 41 41 43 36 39 31 39 41 47 49 48 50 51 53 54 54
45 45 47 47 49 47 45 46 47 46 47 46 46 49 48 43 43 41 44 44 40 44 43 46 32 34 29 41 40 34 42 44 45 45 44 43 42 49 50 50 50 49 51 52 53
48 50 48 46 47 45 45 46 47 48 48 51 51 48 44 44 47 49 49 50 49 46 44 41 33 29 27 35 34 27 37 41 42 43 43 37 41 47 46 48 48 47 50 49 51

GFSSW_sfc_temp_063.txt.gz
Temp
64 64 64 64 64 63 63 63 63 63 63 63 63 63 63 63 62 57 50 58 59 62 66 63 63 61 60 56 61 58 47 42 47 50 57 62 61 63 66 65 66 66 63 68 72
64 64 64 63 63 63 63 63 63 63 63 63 62 62 62 62 56 53 63 68 67 63 59 55 54 57 51 53 55 52 47 47 55 55 58 60 62 63 62 62 61 62 67 69 68
64 64 63 63 63 62 62 63 62 62 62 62 62 62 62 61 50 52 66 65 66 65 59 58 59 54 50 52 53 53 47 53 56 60 62 60 59 64 61 57 61 60 63 66 64
63 63 62 62 62 62 62 62 62 62 62 62 62 62 61 56 38 58 65 65 65 63 56 56 54 49 49 47 54 47 56 58 59 59 59 58 63 58 61 60 66 65 66 66 64
62 63 62 61 61 61 61 61 61 62 62 61 61 61 56 48 50 63 65 65 63 59 55 51 49 49 46 50 52 50 51 57 58 59 57 61 57 58 58 64 68 68 67 65 66
62 62 62 61 61 61 60 61 61 61 61 61 61 61 51 41 64 67 64 63 62 57 53 52 50 53 49 50 50 51 52 53 56 55 57 56 55 58 59 64 65 66 65 64 66
62 61 61 60 60 60 60 60 60 60 60 61 61 58 49 46 63 66 64 60 60 57 52 53 53 49 50 50 54 52 47 49 51 53 52 54 50 52 58 63 63 64 64 66 65
61 61 60 60 60 60 59 59 59 59 60 61 61 53 43 62 60 59 61 60 61 58 56 54 54 50 49 55 52 47 45 39 49 51 55 53 45 56 60 57 58 61 59 64 66
61 60 60 59 59 59 58 59 59 59 60 61 52 48 44 62 53 55 56 54 58 54 54 57 51 48 50 45 41 43 35 38 42 50 50 53 46 57 60 59 57 58 60 64 65
60 59 59 59 59 58 58 59 58 58 58 59 57 44 51 48 51 55 57 56 52 50 48 47 44 42 44 41 33 36 33 39 40 46 50 47 47 53 59 58 56 57 60 61 63
59 58 58 58 58 58 54 49 45 43 47 45 47 48 52 54 56 53 55 51 50 48 36 41 36 34 37 44 46 46 41 41 44 50 45 46 49 50 54 54 55 55 57 60 63
59 58 58 58 58 58 52 44 48 48 39 52 52 52 56 57 45 50 55 43 43 37 39 37 34 42 46 47 48 46 43 42 48 51 47 47 46 50 53 53 55 58 57 59 63
58 57 57 57 57 51 47 49 56 54 40 47 52 50 51 53 45 45 50 44 39 37 37 36 41 45 45 44 45 42 42 44 45 49 50 47 41 45 52 54 56 58 60 60 62
57 57 57 57 49 49 49 55 56 53 32 37 45 49 52 48 42 52 51 46 42 35 38 39 45 44 42 43 46 39 49 49 47 41 36 45 30 39 49 50 53 54 55 58 60
57 57 57 56 45 49 53 56 54 47 13 40 43 56 52 47 46 45 51 45 38 39 41 35 40 40 41 45 48 43 50 48 45 43 39 40 32 38 45 44 50 55 54 58 61
56 56 56 52 51 54 55 53 49 29 10 29 45 44 45 47 44 46 45 48 51 44 42 40 46 44 43 49 51 50 43 42 44 42 29 37 34 35 40 45 48 52 56 59 60
55 56 54 57 48 54 53 45 31 16 37 32 38 44 41 38 42 43 40 39 37 31 32 36 36 46 47 42 48 46 38 27 27 24 27 39 36 39 47 50 52 53 54 55 56
56 56 54 57 53 53 47 39 19 35 29 43 43 43 37 41 40 40 37 34 45 40 34 31 29 40 46 45 40 40 39 27 24 21 26 39 31 40 48 52 55 54 53 55 55
55 48 51 50 54 51 43 32 31 33 40 41 42 35 35 40 39 37 38 39 43 45 33 33 32 44 45 47 46 40 30 41 31 31 24 32 38 46 48 49 50 51 52 51 53
45 46 50 52 52 46 39 35 37 42 43 44 33 38 31 37 36 37 36 42 42 46 44 40 31 41 45 47 48 44 47 33 27 21 24 29 32 36 41 44 48 49 50 51 52
45 43 49 53 48 43 34 37 43 46 45 40 35 36 37 37 39 39 35 41 44 45 44 43 38 36 41 38 38 40 37 39 38 32 25 25 30 44 46 48 47 48 49 48 49
44 36 51 49 39 40 36 44 48 45 47 42 40 39 39 41 39 37 38 40 48 46 40 43 38 33 36 43 46 43 41 42 29 29 30 27 31 48 48 49 49 50 50 49 50
41 41 51 50 32 37 44 45 49 46 46 43 41 42 43 40 35 43 42 48 52 46 40 44 36 29 30 37 42 40 43 44 42 37 29 25 32 48 48 48 50 49 50 51 51
42 35 42 44 43 38 38 40 41 50 49 50 45 44 45 40 43 41 40 48 51 47 49 47 38 31 26 32 38 34 41 43 38 27 34 34 36 42 44 46 46 47 47 48 50
42 36 41 34 34 38 44 43 41 41 47 47 44 43 42 37 42 40 44 45 47 48 46 43 31 30 38 41 40 39 39 40 35 37 31 36 37 41 42 43 44 44 47 49 48
40 39 39 36 40 41 41 43 42 43 43 43 44 44 44 38 39 39 43 44 43 41 40 42 29 32 27 40 38 34 39 40 41 40 39 39 39 45 44 43 45 43 46 46 47
42 43 41 40 38 37 38 42 43 44 45 46 47 42 39 41 43 45 46 45 45 41 39 38 30 26 23 34 33 28 36 38 40 42 43 36 38 41 42 44 43 42 43 43 46

GFSSW_sfc_temp_066.txt.gz
Temp
64 64 64 64 63 63 63 63 63 63 63 63 63 63 63 62 62 56 49 55 59 65 63 57 57 59 57 55 57 59 46 42 45 48 54 60 59 63 66 63 64 65 64 70 71
64 64 64 63 63 63 63 63 63 63 63 62 62 62 62 62 54 50 61 66 67 62 55 52 51 56 50 51 53 51 45 45 53 54 54 58 60 63 60 59 59 62 66 69 67
64 63 64 63 62 62 62 62 62 62 62 62 62 62 62 60 48 49 66 67 65 61 58 56 55 54 48 49 53 52 47 53 54 57 58 58 58 63 59 55 60 60 63 66 65
64 63 63 62 62 62 62 61 61 62 62 62 61 62 61 54 36 56 66 66 66 59 54 54 53 48 47 44 52 46 54 54 57 58 55 57 61 57 58 58 64 64 66 66 65
63 63 62 62 61 61 61 61 61 62 61 61 61 61 55 47 47 62 66 66 63 59 53 50 49 49 46 49 50 48 52 54 57 57 55 58 56 55 56 62 65 65 66 64 65
63 62 62 61 61 61 60 60 61 61 61 61 61 60 49 38 61 65 62 62 60 57 52 50 49 51 48 49 46 50 54 54 55 54 54 55 53 56 57 62 62 63 63 63 63
63 62 61 61 60 60 60 60 60 60 60 61 61 57 47 44 59 61 61 58 60 57 51 52 52 49 50 46 54 51 46 50 52 52 52 53 51 51 56 60 61 61 61 62 64
62 61 60 60 60 59 59 59 59 59 60 60 61 51 40 60 57 58 57 57 60 59 55 54 55 50 48 50 49 46 46 40 46 52 52 51 44 52 56 57 57 59 58 60 63
61 60 60 59 59 59 58 59 59 59 60 60 50 46 40 61 53 54 53 52 56 54 54 55 53 47 49 44 41 42 34 39 39 49 49 48 46 53 57 57 55 56 57 61 60
60 59 58 58 58 58 58 59 58 57 57 58 55 41 48 47 50 54 55 54 51 50 48 47 44 41 43 41 34 35 34 37 36 45 47 45 45 53 55 56 55 55 57 58 60
60 59 58 58 58 58 53 47 44 42 45 43 45 44 50 52 55 53 54 50 49 46 38 42 37 35 38 43 43 44 40 38 43 48 45 45 46 48 54 49 50 51 54 58 60
59 58 57 57 58 58 50 43 46 47 39 49 50 50 53 54 44 50 54 44 42 37 40 37 34 40 42 45 47 46 42 40 44 48 46 44 44 50 52 51 52 53 52 55 60
58 57 57 57 57 50 45 48 54 52 38 45 50 48 50 51 43 45 49 44 40 37 37 35 38 44 42 43 44 43 43 41 41 46 48 44 41 45 51 52 54 55 56 56 58
57 57 57 57 49 47 45 53 54 51 25 35 43 48 51 49 41 51 52 46 40 36 40 40 44 42 40 43 44 38 47 47 45 41 35 45 31 39 48 49 51 52 52 55 56
57 57 57 57 45 45 51 53 52 46 10 39 42 55 52 44 44 44 52 46 38 37 39 36 40 39 38 42 46 43 49 44 44 40 39 39 33 37 41 43 50 53 51 53 56
56 56 56 52 47 51 53 51 47 24 10 28 43 42 42 44 42 44 44 47 49 40 42 40 46 42 42 47 47 47 41 40 42 38 30 38 34 35 38 43 45 49 51 54 56
56 56 53 54 46 52 51 44 24 15 34 30 36 42 40 38 42 42 40 38 35 31 32 37 37 43 46 42 48 46 38 28 28 28 28 38 33 37 44 47 48 50 48 49 52
56 56 54 55 51 51 45 36 15 30 28 41 41 41 35 39 38 39 36 35 43 40 32 31 29 39 45 43 39 42 39 28 25 24 29 38 30 39 45 48 49 49 48 49 50
55 47 47 49 52 49 38 23 25 28 39 39 40 33 33 39 38 36 36 38 41 43 32 31 32 44 45 45 46 41 34 43 31 30 25 31 35 42 46 46 47 48 49 48 49
46 44 45 51 50 44 35 34 34 40 42 41 31 36 29 34 35 36 35 42 42 44 43 37 31 41 43 45 46 42 45 32 31 22 24 29 30 34 39 42 47 46 46 47 47
45 40 47 51 48 39 29 36 40 44 43 39 34 33 35 35 37 34 33 42 43 44 44 39 35 35 39 36 35 38 36 37 35 31 24 24 30 39 42 44 45 45 48 47 49
44 35 47 48 38 39 36 43 47 43 44 40 39 38 37 38 35 34 36 38 45 44 39 40 36 30 31 41 43 42 39 37 26 27 27 24 30 44 44 44 46 45 46 48 50
40 42 49 47 34 34 44 45 46 43 42 41 40 42 41 38 34 40 40 46 48 44 38 41 33 22 28 35 41 39 41 43 40 35 30 25 31 46 45 43 45 44 45 47 49
40 35 41 43 42 38 39 41 42 47 45 46 43 42 40 39 40 40 41 48 50 45 49 46 35 30 25 30 36 33 39 41 37 28 32 33 36 40 41 42 43 43 44 45 46
40 34 41 34 36 35 39 40 40 40 44 45 41 41 40 34 37 37 43 44 46 47 44 41 30 29 35 38 37 36 38 39 35 37 34 39 37 38 40 41 42 43 45 44 45
39 36 37 34 37 35 39 38 40 41 41 40 40 42 41 37 37 35 43 40 37 40 39 39 27 31 27 38 37 34 37 38 38 38 38 39 36 40 42 43 43 41 43 42 43
41 41 40 37 34 35 38 43 41 43 42 45 45 40 38 39 40 42 43 42 42 39 37 36 30 25 24 32 33 28 34 36 39 39 39 36 39 40 41 42 40 39 40 40 42

GFSSW_sfc_temp_069.txt.gz
Temp
64 64 64 64 64 63 63 63 63 63 63 63 63 63 63 62 61 54 48 54 58 65 65 57 56 56 56 54 56 57 44 42 43 46 51 59 57 61 65 63 63 71 66 67 65
64 65 64 64 63 62 63 62 63 62 63 62 62 62 62 62 53 49 59 66 67 66 55 50 49 53 49 51 52 49 43 46 52 52 53 57 58 60 61 59 60 61 67 68 67
64 64 63 64 63 62 62 62 62 62 62 62 62 62 62 59 46 47 65 67 65 62 58 54 54 51 47 50 49 50 44 52 55 56 56 57 59 61 58 55 60 64 64 66 65
63 63 63 63 62 62 62 62 61 61 62 62 62 61 61 53 35 55 66 67 66 59 56 52 51 45 45 44 49 47 52 55 58 55 54 55 61 57 59 61 65 64 67 66 64
61 62 62 62 62 62 61 61 61 61 61 61 61 61 54 44 45 61 66 65 61 57 53 49 46 46 44 46 48 47 50 54 56 55 54 56 56 55 55 60 64 65 67 65 64
61 60 61 61 61 61 61 60 60 61 60 60 61 60 47 37 57 62 60 60 59 56 52 50 48 50 47 47 46 52 51 53 54 53 53 52 51 54 57 60 61 63 62 65 65
61 60 60 61 61 60 60 60 60 60 60 60 61 56 45 43 57 58 59 56 57 56 50 51 52 47 48 46 51 50 45 49 51 52 51 50 49 49 55 59 59 60 60 63 65
60 60 60 60 60 60 59 59 59 59 59 60 60 50 39 57 55 56 55 55 57 57 56 54 54 48 47 49 48 44 41 40 46 50 52 50 42 50 54 56 55 58 58 59 62
59 59 59 60 59 59 58 58 59 59 59 60 49 44 39 60 51 52 52 50 54 54 54 56 52 46 47 41 40 41 32 38 40 49 48 47 44 50 54 56 54 55 56 59 60
59 58 59 58 58 58 58 58 58 57 56 57 54 39 46 45 49 52 53 54 50 50 48 47 44 41 41 41 32 34 33 39 38 44 46 44 44 51 53 53 54 54 55 55 59
58 57 58 58 58 58 52 46 43 41 44 41 43 43 47 51 54 51 53 49 49 45 37 42 37 32 39 40 40 42 37 37 42 46 45 43 45 49 51 51 51 52 53 56 59
57 57 58 58 58 57 49 42 45 46 38 47 47 47 51 51 43 50 52 44 42 37 40 37 34 40 43 43 41 42 37 37 43 46 46 43 43 48 49 50 52 53 53 53 56
57 57 57 57 57 50 45 46 52 50 37 43 48 47 48 51 44 45 48 44 40 36 37 35 38 43 42 38 37 42 36 36 38 43 46 43 41 43 48 50 52 53 53 54 56
57 56 57 57 49 46 44 52 52 50 22 35 42 46 49 49 41 50 51 44 40 36 37 38 43 42 38 34 43 38 46 45 42 39 32 44 31 40 47 47 49 49 49 52 55
56 56 57 56 46 44 50 52 51 45 9 38 41 53 49 43 43 44 52 46 37 38 39 36 38 39 35 38 47 40 48 46 45 39 38 37 34 38 43 43 47 49 51 52 54
55 56 56 52 48 50 51 50 46 23 10 27 41 41 40 43 42 43 44 47 47 42 43 41 46 42 41 47 47 47 43 41 41 37 30 37 36 35 38 41 47 50 50 52 53
55 55 54 53 45 50 50 43 23 14 33 30 35 40 40 38 41 41 40 39 36 31 32 37 38 43 44 41 45 45 38 29 27 28 27 37 35 38 43 45 45 46 45 47 49
54 55 54 54 51 49 45 35 14 28 27 39 39 39 34 38 37 39 39 36 41 38 33 32 29 37 45 39 38 40 37 29 23 24 27 37 30 37 43 44 47 47 46 47 48
54 48 48 50 51 48 37 21 23 27 37 37 38 31 32 37 36 37 37 36 41 40 32 31 31 43 45 43 43 38 33 42 30 28 28 32 34 41 44 44 45 45 46 46 47
47 46 46 50 49 44 37 30 32 38 40 40 31 35 28 32 32 33 34 40 41 42 41 37 31 41 43 47 45 42 44 34 31 24 24 28 29 32 36 41 44 43 44 45 46
46 41 46 50 48 41 31 30 38 42 42 37 33 31 32 33 34 33 33 39 42 42 40 37 34 34 38 37 33 38 35 36 35 32 25 24 30 38 40 40 41 41 45 44 45
44 36 46 47 37 38 32 39 45 41 42 39 37 36 35 37 33 32 34 37 45 43 36 38 34 31 31 39 41 38 35 35 27 28 25 25 30 41 42 44 43 42 44 44 45
41 40 47 47 31 32 42 42 43 40 40 39 37 39 39 36 32 37 37 44 46 41 37 39 30 20 26 34 39 37 39 38 36 32 26 22 28 42 40 40 42 42 42 43 44
41 35 41 43 38 36 40 38 38 44 42 43 41 40 38 37 38 37 37 44 46 44 49 45 33 29 23 28 34 31 36 38 34 24 28 30 31 35 38 39 41 41 41 42 42
42 36 42 34 35 37 39 42 38 38 42 43 39 40 38 32 34 38 42 40 44 46 42 40 28 28 33 36 35 34 36 38 33 37 30 34 35 37 38 38 38 39 41 41 42
39 35 39 37 36 37 39 37 40 39 40 38 39 40 39 36 35 35 43 38 35 40 37 38 26 30 26 35 34 32 35 37 37 36 36 37 34 40 39 40 39 38 39 39 40
43 41 39 39 33 35 35 38 40 41 40 43 43 39 37 38 39 39 42 42 39 36 35 34 30 25 22 30 32 27 31 33 35 35 35 32 36 39 36 39 38 36 37 37 38

GFSSW_sfc_temp_072.txt.gz
Temp
63 64 65 65 64 64 63 63 63 63 63 63 63 63 62 62 62 53 46 54 56 65 65 56 55 53 53 51 54 53 43 41 44 45 47 57 57 58 61 62 63 67 64 67 63
63 63 63 65 64 63 63 63 62 63 62 63 62 62 62 62 52 47 58 65 67 66 57 51 49 50 45 47 49 45 42 44 52 50 50 58 57 58 56 60 58 63 64 63 63
63 62 62 64 63 63 62 62 62 62 62 62 62 62 61 58 45 46 64 66 66 63 57 53 52 49 43 46 46 46 41 51 51 56 55 58 56 59 57 56 59 62 60 64 63
64 62 62 62 62 63 62 62 62 61 62 61 62 62 61 51 34 54 66 67 66 59 55 52 50 45 42 41 48 42 49 52 55 57 56 54 58 55 59 61 65 68 65 64 62
66 62 61 61 61 62 62 61 61 61 61 61 60 61 52 43 43 59 66 64 59 55 51 48 46 45 40 42 46 43 47 53 56 57 55 54 54 52 55 60 65 68 66 64 66
65 62 61 60 60 61 61 61 61 60 60 60 60 60 46 36 55 59 58 58 58 54 50 48 48 49 43 44 44 46 48 51 54 55 56 52 52 49 54 60 62 65 64 64 65
64 62 60 59 59 60 60 60 60 60 60 60 60 55 43 41 54 56 57 54 56 54 48 51 52 46 46 43 49 49 43 46 51 53 53 51 49 48 54 58 58 64 64 64 64
63 61 59 58 59 60 60 60 59 59 59 59 60 49 39 55 53 54 54 53 56 56 53 53 53 47 44 48 46 42 44 38 49 51 50 50 43 49 53 56 55 56 60 64 65
62 60 59 57 59 59 59 58 59 59 59 59 49 43 37 58 50 52 51 50 51 53 53 56 51 45 47 39 38 41 32 34 39 49 47 47 43 48 52 54 54 53 55 58 59
60 59 58 57 57 58 58 58 57 57 55 56 53 39 45 44 48 51 52 52 49 48 48 47 44 40 39 36 29 34 31 35 36 45 46 42 42 51 50 51 51 51 53 55 58
59 58 57 57 57 58 53 47 43 41 44 40 41 41 46 50 52 51 53 48 47 44 38 43 36 33 35 35 43 40 38 33 40 46 45 42 42 47 51 47 48 50 52 54 57
58 57 56 57 57 57 49 42 46 47 37 45 46 45 49 50 44 48 51 41 39 36 39 37 34 40 42 42 43 41 37 35 42 46 45 43 40 44 49 47 47 50 52 54 56
58 57 56 56 56 51 45 46 52 49 37 42 46 45 46 49 43 44 47 43 39 36 36 33 37 43 42 39 40 40 37 36 34 42 45 42 39 41 49 49 49 51 53 54 56
56 57 55 55 49 47 44 51 51 48 23 34 40 45 47 48 41 51 49 43 39 35 37 37 43 41 38 35 40 36 44 42 39 38 31 43 32 39 44 47 48 47 50 54 54
55 57 55 56 47 45 50 51 50 44 11 37 39 51 48 43 43 44 51 45 38 38 39 35 38 38 35 36 42 38 46 43 42 38 37 36 33 37 42 40 48 49 50 52 54
55 56 55 50 47 50 51 51 46 24 11 26 40 39 40 43 42 44 44 47 47 41 42 40 44 42 39 41 42 46 41 41 39 37 29 35 35 35 36 43 46 50 52 53 52
54 55 53 52 44 50 50 44 23 16 32 29 34 39 40 38 40 40 39 38 36 28 32 37 38 42 44 40 45 43 37 29 27 28 27 36 34 35 41 42 44 43 44 46 48
55 54 52 52 51 50 45 34 16 28 26 38 38 38 33 39 38 40 38 36 39 37 33 27 23 38 44 41 38 38 37 28 23 25 27 36 30 34 42 44 44 45 45 46 46
53 49 47 49 51 48 38 18 24 27 35 35 37 31 31 36 36 37 37 37 41 40 31 32 31 42 41 42 42 38 33 39 30 31 27 31 35 40 44 43 44 45 45 43 44
47 46 46 50 51 45 34 30 32 37 39 38 31 32 27 31 32 33 34 40 41 43 41 36 31 39 43 44 45 39 43 32 30 22 22 26 30 31 37 38 42 42 41 42 43
46 40 46 50 49 41 28 29 36 41 41 36 31 31 30 31 32 30 32 42 43 40 41 38 34 34 37 35 33 37 35 35 33 29 26 26 31 37 36 39 38 39 40 40 41
44 35 47 48 38 39 33 36 43 39 40 38 37 36 33 34 31 30 32 37 44 41 35 36 33 29 31 37 40 40 34 34 26 27 25 28 31 38 40 39 40 39 40 41 41
39 39 47 47 32 33 37 40 41 39 38 38 36 38 37 34 31 34 35 43 44 40 35 38 28 19 26 33 37 34 36 36 34 29 25 23 28 41 39 40 40 38 39 40 41
40 33 40 42 41 31 34 36 36 42 40 41 39 40 36 34 36 34 35 42 44 43 47 43 31 28 22 28 33 32 34 35 33 23 28 28 29 34 36 38 38 38 38 38 39
40 36 41 33 36 33 36 38 36 36 41 40 37 38 37 31 33 34 37 38 42 44 40 38 28 27 31 34 34 34 34 35 29 33 28 32 33 35 36 36 35 37 38 38 38
39 37 40 40 35 33 39 36 37 37 38 36 37 38 37 35 34 34 38 35 33 39 35 36 25 29 26 33 33 32 33 34 34 35 35 34 31 37 37 37 36 35 37 37 37
42 43 41 40 32 32 35 39 40 40 39 41 41 37 36 37 38 37 39 38 37 34 34 33 29 24 22 29 31 27 30 32 33 33 35 31 36 37 35 38 37 35 36 35 36

GFSSW_sfc_temp_075.txt.gz
Temp
66 65 64 63 64 64 64 64 63 63 63 63 63 63 62 62 61 54 47 55 57 65 66 58 56 55 55 51 55 57 43 40 45 48 50 59 56 61 67 64 65 68 66 66 64
66 66 64 63 63 64 63 63 63 63 63 63 63 62 61 61 53 48 58 65 66 66 58 53 50 51 47 48 50 46 41 43 54 56 53 58 58 60 61 62 62 66 63 64 65
65 66 65 63 63 62 63 63 63 63 62 62 62 62 61 58 46 47 64 66 66 63 57 54 53 49 43 47 47 47 41 50 52 57 57 57 56 60 58 57 63 63 63 61 61
65 65 65 63 63 61 62 62 62 62 62 62 61 61 60 53 36 55 66 67 66 59 55 51 49 45 42 41 48 42 49 50 53 57 57 55 60 57 58 61 69 68 67 63 61
63 64 64 63 62 60 61 62 62 61 61 61 60 60 53 44 44 58 64 64 59 56 52 49 45 46 41 44 45 42 47 51 53 54 56 57 55 58 58 62 65 69 65 64 64
63 63 63 62 61 60 60 61 61 61 60 60 60 59 48 37 55 59 58 59 58 54 51 50 47 49 43 43 42 47 47 47 50 53 55 54 54 56 60 64 58 65 64 64 64
63 62 63 61 60 60 60 61 61 60 60 60 60 55 44 43 55 56 57 55 57 55 50 51 51 47 46 40 49 47 42 44 47 50 52 56 50 48 58 59 57 63 64 64 65
61 61 61 60 59 59 59 60 60 59 59 60 60 50 39 55 54 55 55 54 56 56 53 54 53 48 44 46 43 40 42 34 45 49 54 52 43 52 55 54 54 62 62 63 63
60 60 58 59 58 58 58 59 59 59 59 59 51 44 38 57 50 53 53 51 52 53 53 56 51 44 46 37 34 39 31 32 40 52 50 48 46 50 53 53 54 56 56 60 61
60 58 58 58 57 57 57 58 58 56 55 56 53 39 45 44 49 52 53 52 48 48 47 45 43 38 39 36 29 31 33 36 38 45 46 42 44 49 52 51 53 53 54 57 59
58 58 58 57 57 57 53 49 45 42 44 41 41 41 46 50 53 50 53 49 48 44 36 42 35 32 36 36 35 36 36 34 41 47 44 40 41 47 49 51 52 53 54 55 57
58 57 57 56 56 56 50 44 46 48 38 45 45 45 49 51 44 47 52 42 40 35 39 36 33 40 42 39 35 37 36 36 41 45 44 43 39 44 49 50 51 51 52 55 57
57 56 57 56 56 51 47 46 52 50 39 42 45 45 46 49 43 44 48 43 39 36 36 33 37 43 40 33 36 40 38 36 35 40 43 41 38 40 48 51 52 53 54 55 57
56 56 56 55 49 47 44 50 51 49 28 35 39 45 47 47 41 50 49 45 39 35 37 36 43 41 38 37 41 36 44 41 39 36 31 40 30 39 45 47 50 52 51 53 57
56 56 55 54 46 45 49 51 50 45 18 37 39 51 47 43 44 44 51 43 38 38 37 34 39 39 35 38 42 38 46 42 41 38 36 35 34 38 43 42 47 50 52 54 56
55 55 55 50 48 50 50 51 47 27 15 27 40 38 40 44 42 45 44 47 46 39 41 40 45 42 39 41 42 45 43 41 40 38 30 34 36 34 40 42 43 48 51 53 55
55 54 53 51 44 50 49 44 28 19 33 29 33 37 38 37 40 41 37 37 35 28 32 37 39 43 41 39 44 44 38 28 26 26 28 36 36 34 42 43 42 45 46 49 50
54 54 53 52 50 49 46 35 21 28 27 37 37 37 34 38 37 39 38 36 40 36 33 25 27 38 43 40 38 38 37 28 24 25 29 37 31 34 44 46 47 47 45 46 48
54 49 47 48 50 48 40 28 26 29 34 34 36 32 32 36 36 36 35 38 41 42 32 32 32 43 42 44 45 41 34 41 30 31 30 32 37 44 45 45 45 45 46 45 46
47 45 44 49 50 45 36 31 32 35 37 37 31 32 28 32 33 34 33 40 39 44 43 37 32 39 42 44 45 43 44 33 33 26 24 31 32 32 39 40 42 42 43 44 45
45 39 46 49 48 40 31 30 36 39 40 36 31 30 31 32 33 31 32 41 42 42 41 37 35 35 38 35 34 38 36 35 35 32 29 27 31 40 41 42 39 40 41 42 43
43 34 46 48 36 38 32 35 42 38 39 37 37 36 34 33 31 31 32 36 42 43 35 38 35 29 32 39 40 38 36 35 31 29 28 29 31 40 41 42 41 40 41 42 43
38 39 47 46 32 33 38 38 39 38 37 37 36 38 37 34 31 35 38 43 43 40 36 39 30 22 29 35 38 37 38 36 34 32 27 27 31 40 40 40 41 40 41 42 43
39 32 38 42 41 36 35 34 34 40 39 40 38 39 37 34 35 34 35 42 43 42 47 43 31 29 25 30 35 34 36 37 35 28 31 31 32 36 38 38 39 39 40 41 41
40 36 39 32 36 36 37 36 34 34 39 40 38 38 36 30 32 33 37 39 42 43 39 38 28 27 31 34 36 36 36 36 32 34 32 34 34 37 39 39 39 40 40 40 40
38 36 39 38 37 35 38 33 35 35 36 35 36 37 37 34 33 32 37 35 33 38 35 36 26 30 26 34 35 34 35 35 37 36 35 35 36 40 39 38 38 38 39 38 38
42 42 40 38 35 35 37 35 37 38 39 40 40 37 36 36 38 37 38 37 36 35 34 33 29 24 23 29 32 28 31 34 35 35 36 34 37 38 37 39 38 37 37 36 37

GFSSW_sfc_temp_078.txt.gz
Temp
66 66 67 66 64 64 64 64 64 64 63 63 63 63 63 62 62 61 56 64 64 65 66 63 62 61 60 58 60 62 46 46 51 54 58 69 64 71 73 71 75 77 76 80 75
65 66 66 66 65 64 64 63 64 63 63 63 63 63 62 61 60 56 65 65 66 66 63 60 56 56 53 54 56 52 47 49 60 62 61 66 64 66 65 67 69 72 78 73 68
64 65 65 65 66 63 63 63 63 63 63 62 62 62 61 61 54 57 65 65 66 65 63 61 58 55 50 52 52 53 45 56 59 62 64 64 64 68 63 61 70 70 74 71 68
63 64 64 65 65 64 62 62 63 63 62 62 62 60 60 58 42 61 66 67 66 65 61 57 55 50 48 47 54 44 54 56 58 61 60 60 66 64 64 67 75 75 72 72 67
62 63 63 63 64 63 61 61 62 62 61 61 61 60 58 50 52 66 64 66 65 62 57 55 51 51 46 51 51 48 51 56 58 58 59 61 61 62 64 69 74 75 72 71 68
62 62 62 61 63 62 61 61 61 61 61 60 60 60 54 43 64 65 63 63 63 60 57 56 53 54 49 48 46 53 52 52 55 56 57 56 59 61 65 70 68 71 71 71 68
61 61 61 60 62 60 59 60 61 61 60 60 60 58 49 50 64 64 62 61 63 61 55 59 58 52 51 45 52 47 42 48 51 54 53 59 52 54 64 68 67 68 69 71 68
60 60 60 60 61 59 59 59 60 60 59 60 60 55 47 61 65 61 63 61 63 62 59 60 60 53 48 51 46 42 40 34 50 52 55 53 46 60 66 64 64 68 67 65 66
60 59 59 60 58 58 58 58 59 59 60 60 55 52 46 61 55 61 62 56 58 59 59 60 55 49 48 39 34 37 32 36 43 53 53 51 45 60 64 62 63 67 65 60 60
59 59 58 58 58 57 57 57 58 58 58 60 55 46 52 50 56 57 60 57 53 53 51 50 47 42 41 36 29 33 34 39 40 50 51 50 50 54 59 61 62 64 62 57 57
58 58 57 57 57 57 55 51 45 45 51 48 48 46 50 56 58 55 58 53 53 49 42 46 38 34 41 37 38 34 35 36 42 45 50 41 47 46 50 57 59 59 59 61 59
58 58 57 57 56 56 52 46 48 52 44 50 49 49 54 56 48 52 57 47 46 41 43 40 35 45 44 42 38 36 35 36 41 48 50 41 43 45 48 53 57 56 58 55 54
57 57 57 57 56 53 50 47 53 56 46 45 49 48 51 53 47 48 52 48 44 40 39 34 41 44 40 36 36 35 39 39 36 42 45 44 39 40 47 51 54 54 57 55 55
57 56 56 56 49 50 47 52 53 55 36 39 43 49 51 51 43 54 53 48 43 38 40 37 44 41 39 34 40 36 46 39 36 35 34 42 32 35 40 48 50 55 56 54 54
56 56 56 56 47 46 52 53 55 53 25 41 43 56 51 45 46 46 53 45 38 38 36 36 39 40 39 36 44 41 45 41 40 42 40 36 35 36 43 43 47 51 52 54 55
56 56 56 52 50 51 52 53 53 34 24 33 43 42 40 45 45 46 46 48 47 38 39 41 49 45 42 44 45 45 46 44 44 43 33 35 36 33 36 43 48 50 47 49 51
54 55 53 53 45 51 50 47 33 27 36 33 37 41 43 40 42 42 38 40 36 32 34 41 38 41 41 40 43 43 43 32 32 32 30 36 36 33 47 48 50 46 46 47 50
52 52 52 53 52 50 47 40 27 34 32 42 43 42 40 42 38 40 40 37 43 41 37 32 30 36 44 41 41 43 42 37 29 31 31 42 32 33 48 50 45 46 46 48 48
54 50 48 52 51 50 42 31 33 34 41 41 41 39 38 41 40 36 36 40 42 43 34 34 32 42 44 48 48 43 40 47 39 38 36 36 40 47 49 48 46 44 45 44 48
48 45 45 50 51 46 37 33 36 41 44 46 38 41 37 39 40 39 37 41 40 45 46 42 33 44 46 48 50 48 50 41 40 31 28 34 38 38 44 44 47 46 45 46 50
48 38 45 50 50 40 32 35 40 45 46 43 41 40 41 40 42 39 35 39 45 46 48 45 42 40 46 42 41 45 45 43 44 39 36 33 36 49 48 49 47 47 48 49 48
44 34 46 49 35 37 37 40 44 44 47 45 46 44 43 43 41 40 39 41 50 48 43 47 45 36 40 47 47 46 45 45 43 35 37 42 38 49 51 50 50 48 48 48 48
38 39 47 48 33 35 41 42 45 44 44 45 43 46 47 43 39 42 43 49 50 48 46 48 42 35 38 45 47 45 46 45 44 44 36 39 38 48 50 49 50 49 50 50 50
41 33 38 41 43 43 37 41 41 46 45 46 44 48 46 43 46 41 43 48 50 49 46 49 42 37 37 36 43 42 44 46 45 41 43 42 39 43 46 47 48 49 50 51 50
41 36 40 34 37 40 39 43 41 41 46 48 46 47 46 41 42 41 45 47 49 47 48 48 36 37 41 41 43 43 43 44 41 43 42 43 45 47 49 50 50 50 49 49 48
39 39 41 43 43 36 41 42 42 41 43 44 44 45 48 43 45 42 45 46 43 49 46 47 37 38 36 43 44 40 43 44 44 44 44 46 43 53 52 51 48 49 47 46 46
44 46 47 41 41 38 40 44 43 46 46 46 48 47 44 44 49 49 51 48 47 46 43 43 40 37 33 39 41 39 39 42 43 44 45 44 45 48 46 48 48 47 47 46 45

GFSSW_sfc_temp_081.txt.gz
Temp
64 65 66 66 66 65 64 65 64 64 63 63 63 63 63 62 62 65 59 65 68 66 66 65 66 65 64 61 64 65 46 46 52 55 59 70 69 76 79 73 76 79 78 81 78
63 64 64 64 65 65 65 64 64 64 63 63 63 63 62 61 62 61 69 66 66 67 66 63 60 61 56 58 59 55 48 50 60 64 62 68 69 71 70 70 71 74 81 83 74
62 62 63 64 64 64 65 63 63 63 63 63 62 62 61 62 58 61 66 66 67 67 67 65 62 59 55 56 54 55 47 57 61 64 66 65 66 72 68 64 71 70 74 77 75
62 62 62 63 64 63 64 63 62 62 62 62 62 60 61 63 47 65 66 68 66 68 64 62 59 54 52 51 56 48 55 57 59 62 63 61 66 65 68 69 76 77 76 74 74
61 62 61 61 62 61 64 62 62 62 62 61 61 60 60 54 57 69 65 67 68 64 61 58 55 54 49 54 55 52 54 57 60 60 60 62 60 62 65 73 75 76 70 75 69
62 61 61 61 61 61 62 61 61 62 62 61 61 60 58 47 68 69 67 66 65 62 60 59 56 58 52 51 51 55 54 55 57 56 58 57 58 61 65 73 72 73 72 73 74
62 60 60 60 59 60 60 60 60 60 61 61 61 62 53 55 68 69 66 64 67 64 58 62 61 54 55 47 55 52 44 48 52 53 52 57 51 54 66 70 69 70 72 73 72
61 61 60 59 59 59 60 59 59 60 60 60 60 60 51 65 69 65 67 63 66 65 62 63 62 56 50 52 50 45 44 34 50 53 54 52 43 58 66 66 65 68 70 69 71
60 60 59 59 59 58 58 58 59 59 60 60 58 55 50 63 58 65 66 59 62 63 62 63 58 50 50 40 36 41 32 38 44 54 52 49 47 59 68 65 64 67 69 69 71
59 59 58 59 57 57 57 58 58 59 59 62 59 49 56 53 60 61 64 61 56 55 52 50 46 42 43 38 28 34 33 38 41 50 50 48 50 58 60 62 65 65 68 67 67
59 59 58 58 57 56 55 53 46 45 50 50 52 52 55 60 62 58 61 56 55 50 41 48 37 34 43 44 44 38 34 34 40 51 49 47 50 56 53 55 59 65 67 68 65
58 58 57 58 57 55 54 46 48 51 45 54 54 54 57 59 50 54 60 48 48 41 48 42 35 47 47 46 42 38 34 35 42 49 48 49 48 56 53 52 54 58 63 64 57
57 57 57 57 57 52 51 50 55 55 49 48 53 52 54 56 50 51 55 52 45 43 44 39 45 48 40 37 37 36 35 37 35 44 48 47 39 45 53 54 55 58 59 59 59
57 56 56 57 50 50 47 55 53 59 38 42 45 51 53 54 45 58 56 49 45 41 43 41 48 41 39 34 36 32 44 39 38 42 36 48 33 39 45 47 50 53 55 54 54
56 56 56 56 53 45 54 57 52 54 27 45 45 58 54 49 47 48 54 48 41 41 37 37 40 40 38 36 42 37 46 44 40 37 38 40 39 36 39 42 46 49 51 52 53
55 55 55 54 54 56 55 51 52 34 27 35 45 43 43 46 47 48 46 50 49 40 39 38 51 46 43 47 47 46 42 41 41 39 32 35 38 33 34 36 41 46 47 51 54
54 54 53 55 48 58 52 44 32 29 40 34 39 44 43 41 42 41 41 40 38 33 32 43 40 42 43 39 44 43 40 32 31 31 30 36 39 34 38 44 42 43 46 49 51
52 53 52 56 58 54 47 35 29 36 35 45 45 44 37 43 39 42 42 38 45 43 38 33 31 37 44 42 43 41 43 34 27 30 30 40 30 33 40 44 43 45 46 46 47
55 48 47 52 53 52 38 31 32 36 41 43 44 39 38 44 42 39 39 42 44 44 35 34 32 42 47 50 49 45 41 50 42 45 37 35 36 43 44 41 43 43 44 44 45
49 46 45 55 52 45 35 33 36 44 49 49 40 44 39 42 40 41 43 44 42 47 47 39 33 43 49 51 52 47 52 41 43 31 29 35 38 38 42 40 42 42 42 44 47
53 40 46 53 49 39 33 34 41 48 52 47 45 44 46 44 46 43 36 42 47 49 50 47 42 42 49 45 43 47 46 48 47 42 38 34 36 51 48 49 47 47 47 47 47
49 33 46 49 35 37 35 42 47 48 51 49 50 49 48 47 44 44 40 42 52 52 46 50 47 38 42 50 51 49 48 49 42 39 44 44 38 53 53 53 51 49 49 49 50
39 37 45 47 34 36 44 45 49 48 48 48 47 50 51 47 42 46 47 52 53 51 48 51 46 37 41 47 53 48 51 52 50 49 40 41 39 55 54 52 53 51 51 52 52
43 34 39 41 44 44 44 45 44 51 49 50 49 53 51 48 51 46 46 50 53 52 47 52 46 40 37 38 46 44 48 51 49 42 46 44 42 48 50 50 51 52 53 53 53
44 38 41 36 44 45 47 49 45 44 50 53 49 50 49 44 47 46 50 51 53 50 52 53 39 40 45 47 47 46 46 48 44 48 43 46 46 49 52 52 53 54 53 53 52
44 44 48 43 43 45 45 47 45 46 48 48 48 51 53 47 50 45 50 51 48 55 51 52 39 42 39 47 47 42 47 48 47 49 49 49 47 56 57 58 53 53 52 51 50
51 53 53 45 45 45 47 48 47 50 49 53 53 51 46 48 54 55 56 55 52 50 49 48 44 40 36 44 44 41 41 44 45 48 48 45 48 56 51 51 52 53 52 50 50

GFSSW_sfc_temp_084.txt.gz
Temp
63 63 63 64 65 65 65 65 65 65 64 64 63 63 63 62 62 61 56 65 68 68 66 65 65 65 64 58 61 60 44 40 45 49 53 64 62 69 73 69 73 73 71 74 73
63 63 63 63 63 64 65 64 65 64 64 63 63 63 62 62 60 58 69 68 68 67 63 61 59 60 54 55 55 49 42 44 54 56 55 61 62 64 65 66 66 68 73 75 68
62 62 63 63 63 63 64 64 63 63 64 63 63 62 62 62 55 58 67 68 68 67 66 65 62 59 51 54 52 51 42 51 55 58 60 58 60 65 61 59 66 66 68 72 69
63 63 62 62 62 62 62 63 62 63 63 63 62 61 62 60 45 62 67 67 67 68 64 62 58 51 49 47 54 44 51 53 54 58 57 55 60 58 60 61 69 70 73 67 63
62 62 61 61 62 61 60 62 62 62 62 62 62 61 58 53 56 67 67 68 66 64 60 58 54 52 46 50 52 48 51 55 57 57 56 58 55 55 57 65 70 72 71 67 66
62 62 62 61 61 60 60 60 62 62 61 61 61 61 54 46 68 69 67 66 65 61 59 58 55 56 50 48 46 50 50 51 53 53 54 53 53 55 58 64 65 68 67 69 65
61 61 61 61 60 60 60 60 61 60 60 61 61 60 54 53 69 68 67 64 65 63 57 61 60 53 52 45 53 50 42 46 48 50 48 53 47 48 59 63 62 65 67 67 65
60 60 60 60 59 59 60 60 60 59 60 61 61 59 49 66 67 66 66 63 65 65 61 61 60 53 49 52 47 41 41 32 45 48 50 49 37 51 57 58 58 62 65 65 65
60 60 60 59 59 58 58 58 59 59 59 60 56 54 49 62 58 64 65 59 61 62 61 63 57 49 48 39 34 38 28 33 39 51 50 46 39 50 58 59 58 60 62 63 63
59 59 59 58 58 57 57 57 58 58 58 61 59 47 54 53 59 62 64 62 56 55 52 50 46 39 40 35 25 28 32 35 35 45 47 44 43 51 55 57 55 59 64 60 61
58 58 58 58 58 56 54 50 45 44 51 47 49 52 55 60 62 57 61 56 55 50 39 45 35 31 37 38 39 37 35 34 39 46 41 41 43 47 52 50 48 51 55 57 57
58 58 57 58 58 57 52 45 45 47 41 51 54 55 58 60 50 55 60 48 47 39 44 39 33 42 46 41 39 36 35 33 40 45 42 40 42 49 52 47 48 51 52 57 56
57 57 57 57 57 53 49 48 53 53 41 47 53 52 53 55 51 50 54 51 44 40 40 34 41 44 39 37 36 35 36 35 33 39 43 42 38 44 49 50 53 56 53 54 55
56 57 57 56 51 50 46 54 53 54 34 38 44 50 53 55 47 58 57 49 45 40 41 39 46 44 40 36 37 32 42 40 35 33 28 40 23 41 41 44 49 51 52 52 54
56 56 57 56 50 46 48 52 52 50 23 42 45 59 54 48 47 48 54 47 39 41 38 35 39 39 37 38 40 35 45 37 39 37 37 37 32 34 40 40 41 47 50 51 51
55 54 55 52 52 53 51 52 48 31 24 34 44 43 43 47 47 48 47 50 49 41 40 38 47 44 43 46 46 46 42 40 38 36 30 36 35 31 34 36 39 45 46 49 49
53 54 53 55 48 52 50 44 30 26 39 33 38 43 44 41 41 42 41 39 36 32 32 40 40 44 44 39 45 42 37 30 28 28 27 36 35 32 38 40 42 43 44 46 48
54 53 53 55 55 53 48 35 25 34 34 45 44 43 39 43 40 42 40 36 43 41 35 32 31 38 43 39 39 39 37 30 25 26 28 38 28 32 39 43 44 44 44 45 45
54 48 47 52 54 51 39 28 30 34 43 42 43 38 38 43 42 40 38 38 44 43 33 33 32 44 44 47 48 42 35 43 34 39 30 32 33 37 40 41 42 42 43 42 44
46 45 44 54 53 46 35 32 35 43 48 47 37 43 36 40 39 38 38 43 42 46 45 39 32 43 48 48 50 45 50 36 36 28 26 32 32 33 36 37 41 41 41 42 45
50 40 46 53 49 39 31 33 39 49 51 45 44 42 43 41 38 39 36 42 47 44 46 44 39 40 47 42 40 42 40 42 40 35 29 27 29 45 41 42 41 41 43 45 45
46 34 47 51 36 36 33 39 48 48 52 49 49 48 44 45 41 41 39 42 52 50 43 45 41 33 40 48 50 45 43 43 31 32 34 32 29 48 46 48 47 45 45 47 49
38 37 47 47 33 34 40 46 49 48 48 49 47 49 49 45 37 44 44 51 52 49 43 46 38 29 31 39 46 44 47 47 45 39 32 28 28 47 46 45 46 44 45 46 48
43 33 40 42 43 38 42 44 43 50 49 52 49 51 49 46 48 45 43 49 50 50 48 46 40 33 27 31 40 37 43 45 40 29 33 33 34 40 42 43 44 44 45 46 46
45 39 42 35 42 44 46 47 44 44 50 52 48 50 48 44 44 43 46 47 50 50 47 46 33 33 40 43 43 42 42 43 38 41 32 37 38 42 43 43 44 46 46 46 46
44 42 44 43 44 44 45 45 45 46 47 47 46 49 49 44 45 42 46 45 42 47 44 47 32 34 32 43 42 37 41 43 42 43 43 43 40 48 48 47 46 45 47 46 46
50 51 49 45 44 45 44 46 46 48 48 50 49 46 42 45 50 48 50 49 45 44 43 42 35 30 27 38 38 30 37 39 41 43 41 37 40 47 46 47 46 45 47 46 45

GFSSW_sfc_temp_087.txt.gz
Temp
63 63 63 63 64 64 64 64 65 64 65 65 64 64 63 63 62 58 52 60 64 69 67 62 62 61 60 53 55 54 40 35 39 43 47 57 55 62 65 60 64 64 65 68 66
63 63 63 63 63 63 64 64 64 64 64 64 64 63 63 62 56 53 65 70 69 68 61 56 54 57 48 50 50 45 35 40 48 49 49 54 55 55 56 58 58 63 67 65 64
63 63 63 63 62 62 63 63 63 64 64 63 63 63 62 61 50 53 69 70 69 68 63 61 60 56 47 47 47 46 39 47 50 53 55 53 53 57 54 51 56 57 62 62 61
62 62 63 62 63 62 62 62 63 63 63 63 63 62 62 56 39 59 69 69 69 65 62 59 55 47 44 42 49 41 49 50 51 54 53 51 55 52 54 54 61 62 65 64 60
62 61 61 62 62 62 61 61 62 62 61 62 63 62 56 47 49 65 68 68 65 62 58 54 49 47 42 44 46 42 46 51 52 52 52 54 51 51 53 58 62 64 65 62 61
61 61 62 61 61 61 61 61 61 62 62 62 62 61 51 42 61 66 65 63 62 59 55 54 50 52 46 44 42 46 46 47 49 49 50 48 49 50 53 58 59 62 61 62 62
60 60 60 61 60 60 60 60 61 61 61 61 61 59 51 49 63 63 64 60 61 59 54 56 56 49 47 42 48 45 39 42 44 47 46 50 42 44 53 56 56 58 61 62 63
60 60 60 60 60 60 59 60 61 60 60 60 61 56 45 63 60 62 62 59 61 61 58 57 57 50 44 47 44 38 37 28 43 46 47 44 33 47 53 52 53 55 59 61 61
59 59 59 59 59 59 58 59 58 60 61 60 55 50 45 63 57 60 60 56 58 58 58 62 56 45 45 37 29 33 20 29 36 47 45 44 37 46 52 53 51 54 56 58 60
58 58 58 58 58 56 56 58 57 57 58 59 57 44 51 50 56 59 60 59 54 52 52 48 42 38 38 31 18 20 21 32 32 43 45 41 36 45 51 51 50 51 54 56 57
57 57 58 58 58 58 52 50 45 43 48 45 46 48 52 56 60 56 58 54 52 50 37 42 34 31 32 35 36 32 31 30 36 43 41 38 39 42 49 47 46 47 49 51 55
57 57 57 57 57 57 51 44 44 46 40 49 51 53 56 57 48 52 58 46 44 35 40 37 31 38 41 40 38 35 32 32 37 43 40 38 37 42 48 47 48 47 47 49 52
57 56 57 57 57 51 48 46 51 49 40 45 50 51 52 53 49 48 52 48 41 37 37 30 37 43 39 36 34 35 33 32 33 40 40 37 34 38 46 47 49 50 50 50 53
56 56 56 56 49 48 45 51 51 50 33 36 43 49 52 52 45 56 54 47 41 37 37 35 43 41 39 35 37 32 39 37 36 34 26 37 19 33 38 41 44 46 46 47 53
56 56 55 55 47 45 48 51 50 47 20 39 43 57 52 47 47 47 51 45 38 40 37 32 36 37 36 37 40 35 42 40 37 34 34 30 31 34 41 37 39 45 47 48 50
56 55 55 50 47 48 50 51 47 29 19 32 42 42 42 46 46 47 45 47 46 39 39 38 45 41 42 44 45 45 40 38 38 36 26 30 32 31 34 37 41 45 46 49 50
53 55 52 52 43 49 48 42 23 18 35 33 35 41 42 39 40 40 38 36 34 32 31 37 39 44 44 38 44 41 35 29 27 26 27 35 31 31 38 41 43 43 43 45 46
53 53 52 52 51 49 44 31 23 30 32 42 42 41 37 42 40 39 37 32 39 37 33 30 23 39 43 39 38 38 36 29 24 24 27 37 27 32 40 43 44 44 44 45 45
53 48 45 50 50 47 38 26 27 31 41 40 40 34 35 41 38 35 34 38 41 42 33 31 32 44 43 45 45 39 34 40 33 33 29 31 33 36 38 40 42 42 42 42 43
46 45 42 49 50 45 32 31 33 42 44 43 33 38 32 36 34 34 36 41 41 45 45 39 32 42 46 48 48 43 47 34 33 26 25 30 31 31 34 36 39 40 40 41 43
42 38 45 50 49 37 29 32 36 46 46 41 40 38 37 35 37 37 34 40 45 44 44 40 38 38 44 40 40 40 37 40 40 34 27 24 29 40 38 39 38 39 41 41 42
39 33 47 48 36 36 33 36 41 46 49 46 45 43 39 38 35 37 35 40 48 47 41 44 38 28 37 46 47 42 39 38 29 30 29 28 29 45 43 42 42 41 43 46 47
38 38 45 44 27 31 38 42 45 45 45 45 43 46 45 40 36 39 40 49 49 46 41 42 35 26 31 37 43 39 43 41 41 34 28 24 27 42 42 43 43 42 45 46 47
39 32 38 42 39 36 35 39 40 48 47 49 46 47 44 41 42 40 42 47 48 47 49 45 36 31 24 31 37 35 39 41 36 26 28 27 30 35 38 39 40 40 42 42 43
40 32 37 29 34 35 40 41 40 40 46 48 45 47 46 38 39 38 42 43 46 49 44 42 31 30 37 40 39 37 37 38 35 35 28 32 32 36 38 39 40 41 42 42 42
36 35 37 35 39 37 41 39 40 42 42 41 40 43 42 38 39 37 41 40 38 44 41 42 30 31 29 39 39 34 37 38 39 39 37 37 35 43 42 41 41 41 43 42 42
42 43 40 40 37 35 38 41 42 44 44 45 43 41 40 41 42 42 44 44 41 39 39 39 31 26 25 34 35 29 34 36 37 39 37 33 37 42 40 43 42 41 43 42 42

GFSSW_sfc_temp_090.txt.gz
Temp
63 63 63 63 63 63 63 64 63 63 65 65 65 64 63 63 62 57 50 58 62 69 67 60 60 59 57 51 53 51 37 33 37 40 43 53 49 55 57 54 57 60 60 61 61
62 62 63 63 63 62 63 63 63 63 64 63 64 64 63 62 55 51 61 68 70 69 60 54 52 55 47 48 48 43 34 37 45 45 44 50 50 51 52 53 53 54 61 65 64
62 62 62 63 63 63 63 62 63 62 63 64 63 63 63 60 49 50 67 68 70 68 61 59 58 55 45 46 45 44 36 44 47 50 51 50 49 53 49 48 51 53 56 59 63
61 62 62 62 61 62 63 62 62 63 62 63 63 63 62 55 40 58 70 70 69 64 60 57 53 46 42 40 47 39 47 48 49 51 50 47 51 49 50 51 56 57 59 58 60
61 61 61 61 62 62 62 62 62 62 62 62 63 62 57 46 47 63 69 69 63 61 56 52 47 45 40 41 45 41 44 48 49 49 48 50 47 46 48 54 56 58 60 57 59
60 59 60 61 61 61 61 61 62 61 62 61 61 61 52 42 60 65 63 62 61 57 54 53 48 50 44 43 40 43 43 44 46 46 47 45 46 46 49 54 55 57 57 57 58
60 60 60 60 60 60 60 60 61 61 62 61 61 59 51 50 62 62 62 59 60 57 52 54 53 48 45 40 46 44 37 40 43 44 43 47 40 42 51 53 52 54 57 57 57
59 60 59 59 59 59 58 59 60 61 61 62 61 56 47 61 60 61 61 58 59 60 57 56 55 48 43 45 42 37 35 28 40 43 45 43 32 45 50 49 49 52 55 56 57
58 58 58 58 58 58 56 59 61 59 60 60 53 51 44 62 56 59 59 55 56 56 56 61 53 43 43 34 27 31 20 27 34 45 43 40 34 44 49 49 47 50 52 52 55
58 58 57 57 58 57 54 57 56 56 56 57 56 46 49 49 55 57 57 57 52 50 50 47 41 34 34 31 16 21 28 29 29 40 41 38 37 45 48 47 46 46 48 50 52
57 57 56 57 57 56 50 47 45 43 47 44 45 46 49 56 59 54 57 53 51 46 35 40 31 30 32 33 33 29 27 28 34 41 38 37 38 41 45 44 43 44 45 47 50
57 56 56 57 57 56 50 41 44 46 37 48 51 52 56 57 47 51 56 44 42 34 40 37 31 37 39 37 34 32 32 31 36 42 41 39 37 41 44 43 45 45 45 47 50
56 56 56 56 56 50 46 46 51 50 39 42 48 50 51 54 46 46 51 46 39 35 35 29 35 42 38 34 33 33 33 34 32 38 39 37 35 36 42 44 46 47 47 48 50
56 55 56 56 48 47 44 50 50 49 33 35 40 47 51 51 45 55 53 46 40 35 37 34 41 38 36 34 37 31 40 38 36 34 28 38 18 32 37 40 41 46 47 48 49
56 56 56 54 45 44 49 50 50 46 21 36 40 56 51 46 45 46 50 45 37 39 36 30 35 35 35 36 40 36 41 39 38 34 32 32 29 30 37 35 38 45 48 49 50
56 56 55 48 46 49 50 50 47 29 20 33 41 41 41 46 45 45 44 46 44 37 37 37 43 40 40 44 43 44 40 39 37 35 26 27 29 28 33 37 41 46 45 46 49
55 55 51 50 43 49 47 43 25 19 33 31 35 39 40 40 39 38 37 37 34 31 30 38 39 44 45 38 43 40 35 27 26 23 25 36 31 31 37 41 43 44 43 45 46
55 53 51 51 50 48 44 31 17 30 29 41 39 40 36 40 37 37 35 30 36 36 33 30 26 39 44 40 37 38 34 29 24 24 24 35 27 32 40 43 44 44 44 45 44
53 44 43 46 49 45 34 23 23 30 40 38 38 33 33 40 36 34 34 38 41 42 33 32 31 41 43 45 43 38 34 39 33 32 26 30 33 36 38 41 42 41 42 41 42
41 41 42 48 48 41 30 30 31 41 44 42 31 35 30 34 33 32 35 39 41 45 45 39 31 41 46 45 46 41 45 32 33 25 25 29 31 30 34 35 37 39 39 41 42
40 36 43 47 46 38 29 32 36 44 47 40 37 35 36 35 37 37 33 39 43 42 41 37 38 37 43 40 40 39 37 39 38 33 27 24 27 39 35 35 36 38 40 40 41
41 33 44 45 33 35 33 36 41 41 45 42 42 41 37 37 34 35 34 37 46 44 38 40 36 28 36 44 45 42 38 37 30 29 27 26 28 43 41 40 40 40 42 43 43
36 36 44 44 26 29 38 39 41 43 43 44 42 44 43 39 34 37 39 47 47 44 39 40 33 26 31 37 41 37 40 39 37 32 25 23 27 40 41 41 42 42 43 44 45
37 29 35 39 38 33 33 38 39 46 45 46 44 45 42 39 40 37 39 45 46 45 49 45 34 30 23 30 35 33 36 38 34 24 27 26 27 32 35 37 38 39 41 41 43
36 30 35 30 34 34 34 40 38 38 44 45 43 42 42 36 37 36 40 41 45 48 43 41 31 29 34 38 36 34 34 36 32 31 28 30 31 34 36 36 37 38 39 39 39
36 34 35 34 36 34 38 38 39 40 40 40 39 40 40 36 35 34 39 38 36 41 38 40 29 31 28 37 36 33 35 36 36 36 34 34 32 39 38 38 38 38 39 40 40
40 41 39 38 35 34 36 38 40 42 42 42 41 39 38 39 40 41 40 42 39 37 38 37 30 25 24 32 34 28 32 33 34 36 35 31 36 38 37 40 40 39 40 40 41

GFSSW_sfc_temp_093.txt.gz
Temp
63 63 63 62 63 64 62 63 63 64 62 64 64 65 64 63 62 55 49 57 60 69 67 58 59 57 55 50 52 49 36 31 36 38 41 49 47 52 55 50 53 55 53 59 62
63 63 63 62 63 63 63 63 63 63 62 62 64 64 63 62 53 50 60 67 69 69 58 53 51 53 46 46 47 42 33 36 43 42 41 47 47 48 48 48 49 52 58 60 61
62 62 62 61 62 61 62 63 63 63 63 61 63 62 63 60 48 50 65 68 70 67 60 57 56 53 44 44 43 41 35 42 45 48 49 47 46 50 47 45 49 50 53 57 58
62 61 61 61 61 61 61 63 63 63 62 61 62 62 62 55 40 56 69 69 70 62 59 55 51 44 40 39 45 37 45 46 47 49 47 45 48 45 47 47 53 54 56 55 56
61 60 61 59 60 60 61 62 61 62 62 62 61 61 56 46 47 62 69 69 62 59 55 51 46 44 39 39 43 38 42 45 46 46 46 48 45 44 46 52 54 54 55 54 54
60 60 59 59 60 60 61 61 61 62 62 62 60 61 53 44 59 63 61 61 59 56 53 51 47 49 42 41 39 41 42 42 44 44 45 43 44 44 46 52 53 54 54 53 54
60 59 59 59 59 60 60 60 60 60 61 62 60 56 51 50 60 62 61 57 58 56 50 52 51 47 44 38 43 43 36 39 41 43 41 44 38 39 48 49 48 51 53 54 53
58 58 58 59 59 59 59 58 58 59 61 62 60 54 43 60 60 60 59 56 58 58 55 54 54 47 42 44 40 35 33 27 38 42 44 42 31 43 48 47 46 48 51 53 53
58 57 56 57 58 58 56 56 60 61 62 60 53 52 42 61 56 59 59 53 55 55 55 59 51 42 42 33 24 29 22 27 32 43 41 39 33 42 47 47 46 48 47 49 51
58 58 57 56 57 57 54 54 57 56 55 54 54 46 48 48 54 56 56 56 51 49 48 45 39 33 32 27 15 19 20 29 27 38 40 36 36 43 46 45 44 45 45 47 48
57 57 57 56 57 54 49 47 44 44 47 42 43 44 49 54 59 53 56 52 50 45 33 38 29 24 30 31 31 28 25 26 33 39 37 35 35 39 44 42 41 41 41 44 47
57 56 56 56 57 54 48 40 42 45 39 48 49 48 55 56 46 50 55 44 41 33 37 32 26 35 38 36 33 31 29 29 35 40 39 37 35 41 43 42 41 43 43 44 47
56 56 56 56 56 50 45 45 50 49 38 40 49 46 50 53 45 45 50 45 38 34 33 28 34 41 37 33 31 31 30 32 30 37 39 36 33 34 41 41 44 46 46 49 47
56 56 56 56 48 47 44 50 50 49 32 33 39 48 51 51 43 52 51 45 39 34 35 34 39 37 35 33 36 30 40 39 36 34 25 35 18 29 36 38 40 44 45 48 50
56 56 55 54 45 43 47 50 50 46 19 36 39 54 50 45 44 46 50 45 35 38 39 30 34 33 33 35 41 36 42 39 38 35 33 31 26 28 35 34 38 42 45 46 50
56 56 54 47 46 47 50 50 46 27 20 33 41 41 41 44 43 44 43 46 44 36 36 35 42 40 38 43 44 44 40 39 37 35 26 26 24 23 34 36 39 45 44 45 47
56 55 50 49 41 47 49 43 24 18 34 32 34 40 39 37 37 37 36 34 33 30 27 39 39 44 44 38 43 39 34 23 23 24 22 34 28 29 38 41 42 42 43 44 45
54 52 50 48 47 46 43 32 23 30 29 39 39 39 34 38 35 36 34 31 35 37 33 30 23 39 44 40 38 38 35 28 22 22 23 35 28 31 40 43 44 44 44 44 43
52 43 42 46 48 44 34 26 24 31 38 36 38 31 32 38 35 32 34 37 41 40 33 32 31 43 42 43 42 38 34 39 32 32 24 28 33 36 39 40 41 41 41 41 42
40 39 40 47 46 40 31 30 32 38 41 39 30 34 28 32 31 30 33 39 41 45 45 39 30 40 44 44 45 40 42 32 33 26 23 28 31 31 34 35 36 37 38 40 42
40 35 43 46 44 37 30 33 37 44 45 41 37 34 33 33 35 33 32 38 41 41 42 40 37 36 42 38 39 38 35 36 36 33 27 25 28 40 35 35 35 38 39 41 41
39 30 45 44 33 37 34 37 42 42 44 41 40 40 36 35 35 36 33 37 44 42 36 39 35 28 36 41 42 40 36 35 28 28 27 28 29 42 40 39 40 39 41 41 42
34 34 43 42 27 32 37 38 40 41 41 42 41 43 41 37 32 36 38 45 45 42 37 39 32 24 31 37 40 36 37 37 35 31 26 24 28 41 41 41 42 40 41 42 42
35 30 36 37 35 32 32 36 37 44 43 44 43 44 40 36 38 35 37 44 45 44 49 44 32 29 22 30 34 33 35 36 32 23 26 26 26 32 38 38 38 36 37 38 39
35 30 33 30 34 34 33 38 37 37 42 43 40 39 39 35 36 34 38 40 43 46 40 39 31 27 32 36 35 33 33 34 30 29 26 29 28 33 35 35 35 36 37 38 38
36 35 35 33 35 35 37 36 37 39 39 39 38 39 38 34 33 32 35 35 34 39 36 38 29 30 27 35 34 33 34 34 34 33 34 32 30 37 35 35 35 36 38 38 38
38 39 39 37 34 33 35 37 39 40 40 41 39 38 38 38 39 40 40 39 38 35 36 35 30 25 24 30 32 28 31 32 33 34 33 30 33 36 35 38 38 37 38 39 39

GFSSW_sfc_temp_096.txt.gz
Temp
63 63 63 63 63 63 64 64 63 64 63 62 63 63 65 64 62 55 49 56 59 69 66 57 58 56 55 49 50 48 35 30 34 36 39 46 44 50 53 49 52 52 51 57 59
63 63 63 63 62 61 62 63 63 63 63 63 62 63 63 62 53 49 60 67 69 69 57 53 50 52 44 45 46 41 32 35 40 40 39 45 44 45 45 46 45 50 56 59 58
61 62 62 62 62 61 60 61 63 63 63 63 61 61 60 59 48 49 65 69 70 66 59 56 55 51 42 43 42 40 35 40 43 46 46 44 44 48 44 41 46 47 51 54 55
60 61 61 61 61 60 59 59 62 62 62 63 62 60 61 56 40 55 68 70 69 61 58 54 50 43 39 38 43 36 43 43 45 46 44 42 46 43 45 45 52 52 52 52 52
60 61 61 60 60 59 59 60 61 62 61 62 60 60 56 48 49 61 69 68 61 58 54 50 45 43 38 38 41 37 40 44 44 45 44 46 42 42 43 49 53 52 52 50 51
60 60 60 59 58 58 58 60 60 61 61 61 60 59 53 44 59 61 61 60 58 55 51 50 46 47 41 39 37 39 40 41 43 43 44 42 43 42 43 49 51 52 52 50 50
60 59 59 59 58 59 59 60 60 61 60 61 60 57 51 48 59 60 61 57 57 55 49 51 51 46 42 37 42 41 35 37 39 41 40 42 36 37 45 46 46 48 50 51 50
59 59 58 57 57 58 58 58 58 57 59 60 60 53 44 56 59 60 59 56 57 57 54 53 52 46 41 42 39 34 32 26 38 40 42 40 30 41 46 43 43 46 49 51 52
59 58 58 58 56 57 55 56 55 60 60 61 51 49 43 56 54 58 58 53 54 54 55 58 50 41 41 32 23 29 18 26 32 41 40 37 32 40 45 46 45 46 48 49 49
58 57 57 57 56 55 55 54 53 58 56 56 52 45 45 45 52 56 57 56 50 49 47 44 38 32 31 26 15 21 19 28 27 36 38 35 35 42 46 44 43 44 45 46 47
57 57 56 56 54 54 49 43 40 43 48 42 43 45 47 51 58 53 56 52 50 45 34 38 30 23 29 31 30 26 24 25 32 39 37 34 34 38 43 41 39 40 41 42 45
56 56 56 57 55 54 48 37 39 45 37 46 48 48 52 55 46 50 56 44 41 33 36 31 27 33 37 35 31 28 28 30 34 38 40 36 36 40 41 39 39 42 44 45 47
56 56 56 56 55 49 45 43 48 49 36 39 44 45 46 49 44 45 50 44 37 33 32 28 32 39 36 31 30 32 30 30 32 37 39 35 32 33 39 40 43 44 48 50 49
56 56 56 56 48 46 44 49 50 49 31 33 38 44 51 50 42 51 50 44 38 33 34 32 37 36 33 33 36 30 39 38 36 34 28 35 22 29 34 37 39 42 45 46 49
56 56 55 54 45 43 47 50 49 46 19 34 38 54 50 44 42 44 49 44 35 37 37 29 32 32 34 36 40 36 43 39 38 34 33 31 27 27 35 35 39 42 45 46 47
56 55 54 47 45 47 50 49 45 29 20 32 40 41 41 43 43 44 42 45 42 35 34 35 40 38 39 42 43 44 39 38 38 34 25 28 29 21 33 36 40 44 44 44 46
54 54 50 49 42 48 48 41 27 21 33 32 35 40 38 36 36 37 35 33 32 29 23 35 36 43 44 37 43 40 34 25 19 21 20 33 28 27 38 39 42 42 42 43 44
54 51 50 49 46 45 40 31 21 30 31 38 38 39 33 36 34 34 32 30 35 34 31 27 23 38 43 40 38 37 35 27 16 23 25 34 29 30 40 43 43 44 43 43 43
52 42 41 45 46 43 35 26 22 29 37 35 37 31 31 36 34 31 32 36 39 39 32 31 30 41 41 45 43 38 34 39 32 33 27 27 34 37 40 39 40 40 41 41 42
40 38 40 46 44 39 33 32 32 37 40 40 31 34 28 31 31 29 31 37 39 44 42 38 31 39 41 43 44 40 42 33 33 24 24 28 29 31 34 35 36 35 37 41 42
39 36 44 45 44 38 31 33 37 42 43 37 33 32 30 31 32 31 30 37 41 42 44 40 37 34 40 37 38 36 34 36 35 33 27 24 29 39 37 36 36 36 39 41 41
36 32 45 44 34 35 33 37 43 41 42 40 39 38 34 34 34 35 31 36 44 42 36 39 34 27 35 40 42 38 35 33 26 27 27 27 28 41 40 39 38 38 41 41 42
34 33 43 42 28 30 35 38 39 41 40 40 39 41 39 36 32 34 36 44 44 41 37 39 31 22 30 35 38 35 36 35 33 29 26 22 27 41 41 41 40 39 41 42 43
35 31 37 37 34 31 32 35 36 42 41 42 40 42 39 36 36 33 35 43 43 42 49 44 32 30 23 30 32 32 33 33 31 22 25 25 27 37 39 39 41 40 38 38 38
35 31 33 29 34 33 33 36 36 36 41 42 39 37 36 33 33 32 36 39 41 45 39 38 30 27 32 33 34 34 33 32 28 28 25 29 28 34 36 35 36 36 36 36 37
36 35 34 32 33 34 36 35 36 38 38 38 37 39 37 33 32 31 34 33 33 38 35 36 29 30 25 34 32 32 34 32 32 32 30 30 31 36 34 34 35 36 36 37 38
37 38 38 36 33 33 33 35 37 38 39 39 38 36 35 36 39 39 39 37 36 33 35 34 29 25 24 29 31 28 31 32 33 34 34 30 33 34 34 37 37 36 37 37 38

GFSSW_sfc_temp_099.txt.gz
Temp
63 63 63 64 63 62 62 64 64 64 64 64 63 63 63 64 62 56 51 59 61 69 66 60 59 57 57 53 54 52 41 38 40 40 45 50 49 54 56 54 56 60 60 64 65
62 62 62 63 63 63 61 61 62 63 63 63 63 63 62 61 55 50 61 68 69 69 59 55 52 54 48 50 50 45 39 40 45 46 46 49 48 50 51 51 52 55 60 63 63
61 62 61 62 62 62 62 60 61 63 63 63 63 62 60 57 52 52 66 69 70 66 60 58 56 53 46 48 46 44 40 43 46 48 48 47 47 51 48 46 51 52 57 59 59
61 61 60 61 61 61 60 59 60 61 62 62 62 60 60 55 42 57 68 70 68 61 59 55 52 46 43 41 47 41 45 45 46 47 46 45 49 47 49 51 56 57 57 55 56
61 61 61 61 60 60 58 57 58 60 62 61 60 60 56 50 49 62 68 68 61 59 55 51 48 46 41 42 44 42 42 45 46 46 46 47 45 46 47 52 56 55 55 54 55
60 60 60 60 59 57 57 57 56 58 60 61 60 57 51 45 57 63 62 60 59 56 52 52 49 49 44 42 41 43 43 42 44 44 45 43 43 44 48 52 51 53 53 54 54
60 59 59 59 59 57 57 57 57 59 59 59 60 56 49 46 58 60 61 58 58 56 51 53 53 48 46 40 45 43 38 40 42 43 43 45 41 39 49 50 48 50 52 54 55
59 59 59 57 58 57 58 57 57 58 58 59 59 53 45 55 59 59 60 56 58 57 54 53 53 48 44 46 40 36 36 33 41 42 44 43 36 45 49 48 48 49 52 53 54
57 57 58 58 57 56 56 56 57 57 59 60 52 49 43 57 54 58 59 53 55 55 55 57 50 42 42 35 29 32 27 30 35 43 42 41 36 44 48 48 47 49 50 51 52
54 57 57 57 56 55 55 55 54 57 57 57 52 44 46 45 52 56 57 56 51 50 48 45 40 36 34 31 24 26 26 30 30 39 39 36 36 43 48 46 46 47 48 48 49
57 57 57 55 55 54 49 45 42 44 47 43 44 43 47 50 57 53 56 53 51 46 37 40 34 31 33 34 32 28 28 27 32 39 36 35 36 41 46 44 43 44 47 49 49
57 57 57 56 55 54 47 39 39 43 35 46 47 47 50 54 45 50 56 45 43 35 39 34 31 37 38 36 34 31 29 29 35 39 40 38 37 42 43 43 45 47 48 50 52
57 57 56 56 55 48 44 43 49 48 35 36 44 44 45 52 45 45 50 45 39 35 35 32 35 39 38 33 32 31 30 30 31 38 40 36 34 37 43 44 46 46 48 49 50
56 56 56 56 48 46 44 49 50 49 31 31 38 42 47 48 41 51 50 45 39 34 35 35 39 37 35 32 35 29 39 38 35 34 29 38 28 34 38 40 43 45 47 47 48
56 56 55 54 45 43 46 50 49 46 19 35 38 52 49 44 43 45 50 45 35 36 36 31 35 34 34 35 40 34 43 40 38 33 33 33 28 33 37 37 40 44 46 46 47
55 55 54 47 46 47 49 49 45 28 19 31 39 40 41 42 41 44 43 46 43 37 36 36 41 39 38 41 41 44 39 38 37 34 27 29 30 31 34 37 41 45 44 45 46
55 55 50 48 42 47 46 41 28 21 33 31 35 40 38 36 36 37 36 34 32 24 22 34 36 42 44 37 42 40 34 24 21 25 23 34 30 34 39 42 42 42 42 44 44
55 51 48 48 46 45 41 33 23 31 31 38 39 38 33 35 34 35 33 31 35 34 31 25 25 38 41 39 37 37 36 28 18 21 26 33 28 34 41 43 44 43 43 44 43
52 41 41 45 46 43 36 26 24 28 36 36 36 31 32 35 34 32 31 34 38 37 30 29 26 41 41 45 43 37 33 39 32 33 29 32 35 38 40 39 38 38 40 41 42
39 38 40 45 43 39 34 32 32 36 39 38 31 33 27 31 31 31 32 37 40 43 42 38 31 39 42 43 44 41 43 32 33 23 24 29 31 31 34 35 36 35 36 39 41
39 37 45 44 43 38 30 31 36 42 42 37 32 31 30 30 32 31 31 37 42 41 44 40 37 34 39 36 36 37 34 36 35 33 27 25 29 39 35 36 36 37 39 40 41
37 33 46 44 35 32 33 37 43 40 41 39 39 37 33 33 32 33 33 37 44 43 36 39 36 28 34 41 43 40 37 35 28 28 29 29 32 41 40 40 38 39 40 42 42
34 34 44 44 29 25 34 37 38 39 38 40 39 41 38 35 32 34 37 44 43 40 37 38 32 24 30 35 39 36 37 36 34 31 27 26 31 41 42 40 40 40 42 44 44
36 32 37 36 33 32 32 34 36 42 40 40 39 41 37 35 36 33 36 42 42 42 48 43 32 30 24 31 34 33 34 34 32 25 29 28 32 37 40 40 41 40 42 42 42
35 31 33 30 34 33 33 35 35 35 40 41 38 36 35 32 32 32 35 38 41 45 40 38 30 28 32 33 34 34 34 34 29 31 29 32 31 37 38 39 40 40 40 40 40
37 35 32 31 32 32 36 34 34 36 37 37 36 37 36 33 33 31 33 33 33 37 35 36 29 31 26 34 34 32 34 33 34 34 33 33 33 40 40 39 38 39 39 39 40
36 37 38 36 32 31 31 33 36 36 38 38 36 35 35 36 38 39 39 37 35 33 34 33 30 25 24 30 31 28 31 34 35 36 36 32 37 38 37 38 39 39 38 39 40

GFSSW_sfc_temp_102.txt.gz
Temp
63 63 63 63 64 63 63 63 64 64 63 64 64 63 63 62 63 62 59 67 68 70 68 68 68 66 67 62 63 62 57 54 53 52 54 58 56 61 64 62 65 68 68 72 75
62 63 63 61 61 63 63 62 62 63 63 63 63 63 63 62 57 58 66 68 70 69 67 65 62 64 60 58 59 59 55 53 55 56 55 56 56 58 58 61 63 66 71 73 73
62 61 62 61 61 61 62 62 61 61 63 62 63 62 61 61 52 55 66 70 70 69 68 67 64 61 56 58 55 54 53 53 53 55 55 55 56 59 57 56 62 62 67 69 69
61 61 61 61 62 61 61 61 60 61 61 62 61 61 59 56 43 59 68 70 69 69 66 64 61 57 54 52 54 50 51 53 53 53 53 53 57 56 58 60 66 66 67 66 65
61 61 61 61 60 60 59 59 58 58 60 62 60 60 58 48 49 66 69 69 68 66 62 61 58 56 52 52 52 51 50 51 53 53 53 55 52 54 56 63 66 65 64 63 63
60 61 60 60 60 59 58 58 58 57 58 61 60 60 53 44 59 62 65 65 65 64 60 61 58 59 53 50 51 50 50 51 52 52 52 49 52 50 60 62 61 61 61 63 64
60 60 59 59 59 58 58 58 57 57 57 59 60 56 51 50 61 67 67 64 64 65 58 61 62 58 55 48 52 49 47 50 49 50 49 52 50 47 59 59 57 59 62 63 64
56 58 59 58 58 58 58 58 58 58 58 59 60 52 45 55 62 64 66 61 64 64 61 62 63 56 53 53 49 46 47 46 48 49 48 50 49 56 60 58 56 58 60 61 62
55 57 58 58 58 57 57 57 57 58 59 59 54 49 44 56 55 62 66 58 60 61 61 62 58 51 50 46 42 46 39 41 45 49 48 47 47 57 60 57 55 58 59 59 60
55 56 58 57 56 56 56 55 58 59 59 59 53 44 48 45 55 60 64 62 56 56 54 52 49 47 46 46 38 36 36 39 40 47 47 45 46 55 58 56 55 56 57 57 58
58 57 57 56 55 55 54 50 48 44 51 43 41 44 46 51 62 58 62 59 57 52 43 45 44 40 41 42 42 38 37 35 42 46 42 45 47 52 56 53 53 50 52 55 57
57 57 57 56 56 54 54 46 45 47 36 45 46 46 50 56 48 54 61 51 49 41 44 43 38 42 44 42 40 39 37 38 44 46 45 47 46 52 52 51 52 52 51 53 56
57 57 57 56 55 52 48 45 51 50 36 37 43 43 44 53 48 49 55 50 46 42 42 40 40 44 42 38 38 41 40 39 36 44 48 45 48 46 50 51 53 54 52 51 51
57 56 56 56 49 47 44 50 52 51 33 32 37 41 47 52 44 54 55 50 45 40 42 42 44 41 40 36 41 36 45 43 40 39 35 45 33 46 47 48 50 53 51 50 50
56 56 55 55 47 46 48 52 52 48 23 35 39 51 49 45 47 48 55 52 43 42 42 36 40 39 39 40 44 41 46 44 42 37 35 40 31 45 46 45 49 50 50 49 49
56 55 55 52 51 50 52 52 49 35 23 33 39 41 44 46 44 48 48 53 50 44 43 43 47 44 45 46 47 48 44 42 43 37 29 39 36 44 43 43 46 48 47 46 46
56 55 54 54 49 53 53 48 35 28 34 33 36 42 41 39 41 43 42 42 40 34 33 40 41 46 47 43 46 43 36 31 30 27 31 40 34 43 44 43 43 42 43 45 45
56 53 52 55 54 52 50 41 28 32 33 39 42 43 38 41 40 41 41 40 42 42 35 33 32 43 47 45 40 38 36 31 26 31 34 39 32 42 41 43 43 42 43 44 43
52 53 53 54 51 51 46 31 31 35 41 41 42 38 37 41 42 40 41 42 44 45 35 35 33 46 46 49 45 37 35 41 33 36 31 41 39 41 41 39 39 38 40 40 42
53 50 52 52 52 48 44 32 38 42 45 44 37 41 37 39 40 40 41 45 43 47 49 41 34 45 46 48 49 44 47 34 34 28 29 38 36 35 35 36 37 37 38 38 41
53 52 55 53 51 50 35 37 43 47 47 43 41 40 41 40 42 41 40 45 48 47 49 46 43 41 45 42 43 41 40 40 39 36 33 33 39 41 37 37 36 38 39 39 41
52 43 57 55 45 43 38 43 45 45 48 47 47 45 43 42 42 42 42 45 51 50 43 46 41 34 41 48 50 48 44 43 36 33 39 38 40 46 42 41 40 40 41 42 44
47 47 57 58 40 40 44 44 46 45 45 47 46 47 47 44 40 43 44 50 50 48 45 46 40 34 37 43 46 43 45 44 41 40 36 35 43 47 44 42 42 41 44 48 50
52 42 51 48 44 45 44 43 43 47 46 47 47 49 46 44 46 43 44 48 49 49 48 48 42 39 38 41 44 40 42 42 41 36 40 41 44 44 43 43 44 47 50 51 51
50 43 43 42 46 45 46 44 43 42 49 49 47 44 44 43 43 43 45 47 47 48 48 47 38 39 42 44 43 42 43 43 37 42 38 44 42 49 49 48 49 51 51 50 50
51 47 44 44 42 46 44 42 41 43 44 45 45 45 46 44 44 43 44 45 45 47 46 45 39 39 34 42 41 38 43 44 44 43 41 43 42 54 56 55 52 51 51 49 50
47 48 51 42 45 47 44 43 43 43 46 46 46 45 45 46 49 50 50 48 47 45 44 42 41 37 35 40 40 37 44 44 45 46 47 41 50 51 48 49 50 52 51 51 52

GFSSW_sfc_temp_105.txt.gz
Temp
61 62 63 63 62 64 63 63 62 63 63 63 63 63 64 64 63 65 63 69 71 70 69 72 72 71 71 65 68 68 59 59 59 59 59 62 62 65 68 66 70 72 72 76 79
63 63 63 63 62 61 62 63 62 62 63 63 63 63 63 63 61 60 67 68 70 70 70 69 66 69 64 63 64 62 57 59 61 62 61 61 61 63 62 65 67 70 76 78 77
62 62 61 61 61 60 62 62 62 62 63 63 62 63 63 63 54 57 68 70 70 70 73 73 70 67 60 63 60 60 57 59 58 60 59 59 61 65 60 59 67 66 70 73 72
61 61 61 61 61 61 61 61 61 62 61 62 61 62 60 60 44 60 68 71 70 73 70 68 66 61 59 56 60 55 57 59 58 58 57 57 61 60 62 64 70 70 70 69 69
60 61 60 60 61 60 59 60 60 60 60 62 61 60 57 49 54 67 69 70 71 70 67 65 63 62 57 58 57 57 56 56 58 57 57 59 57 58 60 67 70 69 68 67 68
60 60 60 60 60 59 59 59 59 59 59 60 60 60 55 45 61 64 67 69 69 67 65 67 64 64 59 57 56 56 55 56 56 56 57 53 57 56 64 66 65 65 65 67 68
59 58 59 60 59 59 59 59 59 58 59 60 60 60 52 52 61 67 63 67 69 68 62 67 68 62 61 53 57 54 52 54 54 55 54 55 53 53 64 64 63 65 66 67 67
57 56 59 59 59 59 59 59 59 58 57 59 60 58 50 57 58 57 68 65 68 69 65 67 68 61 59 58 54 52 51 49 53 53 53 52 52 61 64 63 61 63 64 65 66
57 58 59 58 58 58 57 57 58 58 58 59 57 51 45 56 52 62 68 61 63 64 64 66 62 56 55 51 46 50 43 47 50 54 52 51 51 62 65 62 61 63 63 63 63
58 58 58 57 57 57 56 57 58 58 58 62 56 45 47 44 52 65 68 66 60 58 56 55 54 52 52 49 40 44 43 45 46 52 52 49 50 58 63 62 60 62 60 60 62
58 57 57 56 55 56 56 52 50 44 50 45 42 44 46 48 58 59 64 61 60 57 47 50 47 44 48 48 48 45 44 43 49 52 47 50 51 56 62 61 58 59 59 59 58
57 57 57 56 56 55 57 50 47 49 37 43 47 46 49 52 46 54 64 54 53 46 49 47 42 47 48 47 45 44 44 44 49 50 48 50 49 56 59 57 56 56 57 55 54
56 56 57 56 56 56 50 47 53 53 37 37 43 43 44 52 48 50 58 55 52 47 47 45 45 48 47 42 43 46 45 45 40 48 53 48 50 50 54 56 56 58 58 57 53
56 56 56 56 50 51 46 52 54 52 34 32 37 41 47 51 45 57 58 54 50 45 50 46 48 45 44 39 45 41 49 46 43 41 38 50 36 49 53 52 54 56 55 53 51
56 56 56 57 51 48 51 54 54 50 24 35 39 49 49 46 50 50 58 55 47 46 47 39 43 42 42 43 48 44 49 47 45 39 36 43 34 49 51 50 52 52 52 51 50
56 56 56 58 57 55 56 56 53 34 24 33 40 40 43 48 46 51 52 57 55 48 49 46 51 48 48 50 50 51 47 44 44 39 31 42 41 44 48 47 47 48 48 47 47
56 55 57 58 53 58 57 53 35 29 36 34 36 44 45 43 44 47 47 46 44 35 33 44 45 49 50 44 48 45 39 33 31 30 34 45 39 45 50 43 43 42 43 45 45
55 55 55 59 58 55 53 43 30 34 35 40 45 46 41 45 44 45 45 44 47 48 40 35 32 45 51 47 42 40 38 33 27 32 35 43 33 45 46 45 44 43 42 44 44
54 59 59 59 57 56 49 33 33 38 45 43 46 41 40 44 46 45 46 45 48 49 38 37 34 49 50 52 49 39 36 44 33 40 31 40 45 47 45 43 42 40 41 40 42
62 59 56 57 58 53 47 36 41 48 49 48 41 46 41 43 44 45 45 49 46 51 53 46 36 49 49 51 52 48 48 34 34 27 30 39 41 40 39 39 39 38 39 39 42
61 59 59 59 55 56 38 42 46 51 51 48 46 45 46 44 47 45 45 48 51 50 52 50 47 44 48 46 46 43 41 42 42 39 31 35 42 47 42 39 39 39 40 41 42
62 46 63 59 50 51 41 46 47 49 53 51 52 50 49 47 46 47 46 49 55 53 47 50 46 40 45 52 53 51 47 47 38 38 42 40 41 50 46 45 42 42 42 42 44
58 57 66 66 44 46 51 48 50 50 49 51 49 51 51 48 44 48 48 53 53 51 49 51 44 37 40 45 49 45 49 48 47 44 38 38 44 51 48 46 44 44 45 46 49
60 45 58 58 53 52 50 49 47 51 51 52 51 53 51 49 51 47 48 50 53 52 48 50 46 42 38 42 47 44 46 47 44 38 44 44 49 48 48 47 46 46 48 51 54
58 49 50 48 51 53 53 50 48 46 53 54 51 50 49 47 48 47 49 50 50 49 51 50 41 43 45 47 48 46 45 47 41 43 40 49 47 53 54 51 51 51 53 54 54
57 55 54 54 50 53 50 48 47 48 50 49 49 50 52 48 48 46 48 50 49 51 49 49 41 43 35 47 45 42 47 47 47 47 46 47 46 59 61 59 55 55 55 54 54
58 58 55 47 52 53 52 49 48 49 50 52 51 50 50 50 52 54 55 54 53 50 48 46 43 39 36 45 45 39 47 47 48 51 50 44 53 58 56 56 56 56 56 55 56

GFSSW_sfc_temp_108.txt.gz
Temp
60 59 58 62 63 62 63 63 63 64 63 63 63 63 64 63 64 62 61 65 69 71 69 71 71 70 69 62 65 63 48 48 51 53 52 59 57 60 61 58 62 64 63 68 70
62 63 63 62 62 63 62 63 63 63 63 63 63 63 63 62 59 60 67 70 71 71 69 67 64 66 59 60 58 53 46 50 57 56 55 59 57 57 56 58 58 61 66 69 69
62 61 61 62 61 61 61 62 62 62 63 63 62 63 63 62 53 58 69 70 71 70 70 72 69 66 57 58 55 54 49 56 56 57 58 57 56 60 55 52 57 57 61 64 64
60 61 61 61 60 61 61 61 62 62 62 62 62 62 61 59 43 60 69 71 70 71 69 67 64 56 53 52 58 50 56 58 57 56 56 54 57 54 56 55 62 62 62 61 60
60 61 60 60 61 60 60 60 61 62 61 62 61 61 59 50 53 67 70 70 69 68 66 64 59 58 53 55 54 51 54 57 57 55 54 57 52 53 54 60 62 63 63 59 60
60 61 61 61 60 60 59 59 60 60 60 61 60 60 55 45 60 66 68 68 68 66 64 65 62 62 57 55 51 54 54 54 54 54 55 51 51 53 56 61 61 62 61 61 61
60 60 60 60 60 59 60 60 59 60 60 61 60 59 54 50 58 66 65 66 69 67 62 65 65 59 58 50 56 53 47 50 52 53 51 52 47 48 57 59 59 61 61 61 61
59 59 59 59 59 59 59 59 59 58 59 60 60 57 47 57 57 60 63 63 67 67 64 65 65 59 56 55 53 48 44 38 49 51 51 48 42 54 59 57 55 59 60 59 60
59 59 59 59 58 58 58 58 59 59 59 60 56 51 44 57 52 57 64 60 62 63 62 66 61 52 52 45 38 43 33 39 44 52 50 47 42 55 59 59 54 54 56 57 58
58 58 57 57 57 57 57 59 59 57 57 61 55 47 48 44 50 59 65 64 58 57 55 53 51 45 46 40 30 34 35 40 39 48 48 44 44 52 57 58 52 49 52 53 55
58 57 57 56 56 56 56 53 47 43 46 43 43 44 46 50 56 60 64 60 58 55 44 49 41 36 44 43 45 42 39 36 45 51 43 44 46 50 55 55 51 48 50 51 51
57 57 57 57 57 57 56 47 45 48 36 44 47 46 49 50 49 56 64 53 51 43 48 43 38 46 48 47 45 43 41 39 47 50 46 44 44 50 53 52 51 49 48 49 50
56 57 56 56 58 54 50 48 55 55 36 38 43 43 44 51 46 48 57 55 50 45 45 38 43 49 47 40 42 41 41 41 37 46 48 44 40 44 50 52 54 53 52 51 50
57 57 56 57 52 52 47 53 55 53 33 32 38 42 47 50 43 57 57 53 50 44 46 42 47 46 43 39 44 38 48 46 43 36 27 42 24 40 45 48 51 51 47 46 46
57 56 57 58 50 48 51 54 54 50 22 35 39 49 48 44 46 50 58 53 46 46 44 37 40 40 41 42 47 42 48 45 43 39 36 37 26 37 46 45 47 46 45 44 45
57 57 57 57 55 55 56 56 51 33 23 33 40 40 43 48 48 51 52 56 54 47 47 43 50 47 46 50 49 50 45 43 43 38 28 35 31 33 39 42 43 45 43 44 46
56 56 57 59 50 57 56 49 32 26 36 33 36 41 44 43 45 48 46 43 39 32 32 42 44 48 50 45 47 45 38 29 26 27 22 39 32 35 43 41 41 41 41 45 45
55 56 54 58 56 55 51 40 27 34 34 41 42 44 40 45 44 45 44 38 45 45 34 34 24 44 48 45 41 40 37 29 20 27 29 39 26 35 42 43 43 44 43 45 44
55 56 55 56 56 53 43 32 31 36 45 44 46 40 40 44 45 45 45 43 46 47 37 34 32 48 49 52 48 38 34 43 31 34 24 30 37 41 42 42 43 42 42 42 42
56 55 53 57 56 49 42 36 39 49 50 49 39 45 38 42 42 43 44 46 46 50 49 43 34 47 48 48 48 46 46 33 33 26 24 30 33 33 36 38 41 40 40 41 42
54 52 55 58 53 50 35 39 46 51 51 46 46 45 45 43 47 43 43 46 50 48 49 47 44 40 45 41 42 42 39 41 40 36 28 25 30 42 39 40 41 42 43 42 43
56 42 56 56 45 47 38 46 46 50 53 51 51 49 46 46 46 44 44 46 53 51 46 45 41 31 39 48 49 45 42 41 28 32 33 31 30 46 42 42 41 43 44 43 44
53 52 60 55 40 40 48 48 50 50 49 50 48 50 50 46 40 45 46 51 52 48 43 45 38 26 30 39 43 40 44 44 42 36 28 25 32 46 42 40 41 40 41 44 46
54 40 52 53 50 47 46 47 46 50 51 52 51 52 49 46 48 44 45 49 50 49 49 47 41 34 27 32 41 37 42 44 39 26 31 34 38 39 41 41 41 41 42 41 44
53 45 46 43 47 49 48 49 47 46 51 52 48 49 47 43 45 43 46 46 48 48 45 44 33 35 39 42 42 40 41 42 37 37 29 36 38 44 44 43 43 43 43 44 45
49 48 49 49 49 48 47 46 47 48 47 47 47 49 49 44 45 42 44 44 43 45 43 45 33 34 27 41 41 36 41 43 43 42 40 40 39 50 53 48 45 44 45 46 48
53 54 50 46 49 47 45 46 47 48 48 50 48 47 46 46 48 48 47 48 46 42 43 41 35 30 27 38 37 29 40 41 42 44 44 38 45 48 45 49 48 47 49 49 49

GFSSW_sfc_temp_111.txt.gz
Temp
61 61 59 58 58 59 62 63 63 64 64 63 63 63 63 62 64 61 58 61 66 71 70 67 67 65 64 58 60 56 43 41 44 48 49 55 53 58 58 53 57 58 57 62 63
61 62 61 59 58 59 62 63 62 64 63 63 63 63 63 63 59 58 67 71 71 71 64 61 59 62 54 55 55 48 40 44 50 49 50 56 55 54 53 53 53 56 61 63 63
60 61 61 61 60 60 62 62 62 63 63 63 63 63 62 61 55 56 70 71 71 70 65 64 64 60 53 52 51 49 44 51 51 54 54 53 53 56 51 49 52 52 57 60 60
59 60 62 61 61 61 61 61 61 62 63 62 62 63 62 59 42 58 69 71 70 67 63 63 59 52 48 47 53 46 53 53 53 53 52 49 53 50 50 52 56 55 56 57 57
61 61 61 61 60 60 60 61 62 62 62 62 61 61 58 51 49 62 67 70 67 64 61 59 53 52 48 49 51 48 49 54 53 53 51 53 48 47 50 55 56 59 60 57 57
60 61 61 61 60 60 60 59 60 61 62 61 61 61 53 45 58 61 62 66 66 62 59 59 55 57 51 50 47 50 51 51 52 51 51 48 47 49 52 56 58 59 57 56 56
60 60 60 60 60 60 60 60 59 60 61 61 60 58 51 48 58 59 62 64 65 63 58 59 58 56 52 47 52 51 45 46 47 50 48 48 43 44 52 56 56 57 57 56 57
60 60 60 60 60 60 59 60 59 59 60 61 61 54 45 56 57 59 60 61 62 64 61 61 60 54 51 50 49 44 42 34 45 48 48 46 39 50 54 54 51 54 55 56 55
58 59 59 59 58 58 59 59 59 60 60 60 53 51 43 57 53 56 58 59 59 60 61 65 58 49 48 39 32 37 27 35 40 49 47 43 39 50 53 54 52 50 52 54 53
58 58 58 58 58 57 58 58 59 57 56 60 54 46 48 45 51 55 62 63 57 54 53 51 47 41 41 35 23 29 30 37 36 44 45 41 40 47 52 52 50 47 48 49 50
58 57 57 57 57 59 54 48 45 43 47 42 44 44 45 49 53 54 61 58 56 50 39 46 36 30 38 40 41 38 37 34 41 47 42 40 41 46 50 50 47 44 45 46 49
57 57 57 58 58 58 52 44 45 47 36 45 46 47 49 50 44 54 62 51 48 40 44 37 32 43 46 45 43 41 38 36 43 48 44 41 41 47 49 48 47 47 44 45 46
57 57 57 58 57 51 46 46 51 52 36 38 44 43 44 49 46 48 55 52 45 42 40 33 39 47 44 39 40 37 36 36 34 43 44 41 36 41 46 48 51 50 46 46 44
57 57 57 57 49 47 44 52 52 51 31 31 38 42 48 49 44 57 56 50 46 40 41 38 44 44 40 38 41 35 45 43 41 33 24 39 22 35 43 44 47 45 42 42 43
57 57 57 57 45 44 48 51 50 46 16 35 39 49 48 45 45 48 55 50 44 43 40 33 37 38 39 40 44 39 46 43 41 34 30 32 23 32 40 40 42 40 41 40 41
57 57 57 52 48 49 52 50 48 26 20 33 40 40 41 45 46 50 51 53 50 44 43 40 46 44 43 47 46 47 42 39 39 36 20 31 28 29 35 41 41 41 38 41 41
56 57 55 56 46 52 51 43 27 22 35 33 36 41 42 41 44 46 44 41 36 26 28 40 40 45 47 41 45 42 32 20 19 18 19 36 29 32 41 38 39 38 37 39 40
56 56 54 54 52 52 46 35 24 33 34 40 41 43 39 44 43 44 40 35 42 40 28 26 22 40 45 43 36 40 37 21 12 17 20 35 25 33 40 41 41 41 40 45 42
55 48 47 50 53 48 40 29 27 33 42 39 41 38 38 44 43 42 42 40 42 42 30 30 30 44 46 52 47 35 34 41 26 28 20 24 34 39 40 39 39 39 42 40 43
45 45 46 51 50 44 35 32 36 46 47 46 35 41 34 38 38 39 37 42 42 46 45 40 29 43 45 47 47 45 45 33 30 17 24 24 28 31 34 37 39 38 40 42 41
45 43 48 51 47 41 28 32 42 49 48 43 41 40 39 39 40 38 36 42 47 45 45 43 41 37 42 38 39 40 36 37 37 35 26 21 27 40 38 38 38 39 41 42 43
45 37 49 48 38 37 30 41 46 46 48 47 46 44 40 43 41 38 38 41 48 47 40 41 38 28 36 44 47 42 38 37 27 28 33 27 29 45 41 40 39 39 41 42 44
44 43 48 48 32 29 41 44 46 46 46 46 44 46 45 41 37 40 41 47 49 45 40 41 34 22 29 36 41 38 40 41 38 32 26 23 29 41 39 38 39 38 39 40 41
44 35 43 44 41 38 39 42 41 47 47 49 46 47 43 41 43 40 40 46 48 46 49 45 36 31 27 31 37 33 38 39 36 23 26 28 31 36 38 38 38 38 39 38 41
43 36 41 32 41 40 42 44 42 41 47 47 44 45 42 37 39 38 42 41 45 47 42 41 30 31 36 38 37 37 37 38 33 36 29 31 34 39 40 39 41 42 40 39 40
41 40 41 40 42 40 42 40 42 44 43 42 42 45 43 39 39 36 40 39 39 39 39 41 31 32 26 37 36 33 37 38 39 40 38 39 38 48 51 45 41 40 41 42 43
43 44 43 42 40 38 38 39 42 43 44 46 43 41 41 42 42 42 42 41 41 39 38 37 31 27 25 32 32 28 34 38 38 40 42 34 43 43 44 45 43 42 43 44 45

GFSSW_sfc_temp_114.txt.gz
Temp
61 61 60 59 58 57 57 62 63 64 64 64 63 62 62 63 64 60 56 60 64 71 70 64 63 64 62 57 58 54 42 39 41 46 47 53 51 55 56 52 55 56 55 57 59
60 61 61 60 59 58 57 60 62 63 63 63 63 63 64 62 58 56 66 71 71 71 62 58 57 60 53 54 54 47 40 43 47 47 50 52 51 49 50 51 51 52 57 58 58
62 61 61 60 61 60 59 60 61 63 63 63 62 63 63 61 52 55 69 71 71 69 63 60 61 59 50 52 51 48 43 49 49 51 52 51 49 52 49 46 49 48 54 56 55
61 61 62 62 61 61 61 61 61 62 63 62 62 62 62 58 41 57 67 71 70 65 62 59 56 50 47 46 51 46 51 52 51 52 50 47 50 46 48 49 53 54 54 55 57
61 61 60 61 61 61 61 61 62 62 62 61 61 62 56 50 49 59 64 67 65 63 59 56 52 50 45 48 50 46 48 51 51 51 49 51 46 45 47 53 54 58 58 55 55
61 61 61 60 60 60 61 60 61 61 62 61 61 60 52 42 57 59 60 61 63 61 57 57 52 54 49 47 45 48 49 49 50 49 50 46 44 47 50 52 55 56 54 54 54
60 60 60 60 60 60 60 60 60 60 61 61 61 57 50 47 57 58 59 58 61 60 56 57 56 53 49 45 49 49 43 45 45 48 46 46 42 43 49 52 54 54 54 52 52
60 60 60 60 59 59 60 60 60 60 61 61 61 54 46 56 58 57 58 59 61 62 59 59 58 53 49 49 47 42 40 35 43 46 46 45 38 48 51 50 49 51 52 51 51
59 59 59 59 59 59 59 60 60 60 61 61 53 49 44 58 53 55 55 57 59 59 59 64 57 48 47 38 30 35 25 33 39 47 45 41 37 47 49 50 48 48 50 49 49
58 58 58 58 58 59 59 59 59 57 56 60 54 45 49 45 51 54 55 59 56 53 53 50 45 39 38 32 23 28 29 35 34 42 43 39 39 45 49 49 46 45 45 47 48
58 57 58 58 58 59 53 49 45 43 47 43 43 44 46 51 55 53 59 57 55 49 39 44 36 29 36 39 39 38 34 34 38 45 40 38 39 42 47 46 43 41 43 45 46
57 57 58 58 58 58 50 43 44 47 37 45 47 47 49 50 47 53 60 50 49 39 42 36 30 40 44 44 42 40 36 32 40 45 42 39 40 45 46 45 46 44 42 43 44
56 57 57 58 57 50 45 45 50 51 36 39 44 43 44 49 44 47 54 51 45 40 38 33 38 45 43 38 39 36 36 35 34 41 42 39 36 40 45 45 47 45 44 43 43
57 57 57 57 49 45 43 50 51 49 29 32 38 43 47 48 42 54 56 51 47 39 40 37 42 42 38 37 39 32 42 42 39 32 25 37 23 35 40 42 44 42 40 40 41
57 57 57 56 45 43 48 50 49 45 17 35 39 49 48 43 43 49 56 51 44 43 40 32 36 37 37 38 42 37 44 40 39 32 28 30 22 33 38 39 41 40 40 39 39
57 57 57 50 46 48 50 49 45 25 19 33 41 40 42 45 46 48 50 53 51 42 41 38 44 42 41 45 44 45 39 38 35 30 19 28 26 29 34 39 39 39 39 41 40
57 58 54 54 45 51 50 44 27 21 35 34 36 41 40 38 43 44 42 39 36 27 24 37 38 43 46 39 43 40 29 16 18 21 18 32 27 32 41 40 40 40 39 39 41
56 55 53 53 51 51 45 34 23 33 33 40 40 41 36 41 43 42 39 34 40 36 27 21 22 38 44 40 36 34 31 19 14 17 19 32 24 33 39 39 40 41 40 41 41
55 46 46 48 52 49 39 28 26 33 40 38 40 37 36 42 42 40 37 37 39 40 30 27 26 43 44 51 44 34 27 37 25 25 22 23 32 40 38 39 38 38 39 39 40
45 44 44 50 48 43 33 31 35 44 45 44 34 41 34 38 38 38 37 41 41 44 42 37 27 41 43 46 46 40 43 29 28 18 19 22 26 30 34 38 39 37 38 39 40
44 42 47 49 46 40 27 31 41 47 47 42 38 38 38 37 38 37 35 41 44 43 42 40 36 38 43 37 36 38 33 35 33 28 20 21 26 38 39 40 39 39 40 39 40
43 37 47 47 37 34 29 39 46 45 46 44 43 42 38 38 36 34 35 40 46 45 38 39 35 27 34 41 44 39 36 35 25 26 28 25 28 41 41 40 40 39 40 39 41
42 41 46 45 32 29 39 43 44 44 44 44 43 45 44 39 35 38 38 45 47 43 38 39 33 22 29 35 38 37 38 38 35 30 26 22 27 41 38 38 39 38 38 39 40
42 35 42 41 39 37 37 39 40 45 45 46 44 46 42 40 41 37 37 44 45 44 49 45 34 30 25 31 34 32 35 37 35 23 26 28 30 36 38 38 39 38 38 38 39
40 36 39 32 39 38 39 41 39 39 44 45 42 42 39 35 37 36 38 39 43 46 41 40 30 29 33 35 35 35 36 36 32 37 30 31 32 42 42 41 42 42 39 38 38
40 39 38 38 40 37 39 38 40 41 41 40 40 41 41 36 37 36 38 36 37 37 37 38 30 30 26 34 33 31 35 37 38 38 36 38 37 49 50 40 40 40 39 40 41
40 42 42 40 38 36 37 39 41 42 43 44 42 39 38 41 41 39 40 40 37 37 36 35 30 26 24 30 31 28 35 36 35 36 40 34 42 40 42 42 43 43 40 43 44

GFSSW_sfc_temp_117.txt.gz
Temp
60 61 62 61 59 58 57 58 61 63 64 63 63 65 64 63 64 59 54 59 63 71 69 61 61 61 60 56 56 52 41 38 41 44 46 50 50 53 53 51 54 53 53 56 57
62 62 60 59 60 59 57 57 58 62 63 63 63 61 60 62 59 57 65 71 71 71 60 56 55 58 52 52 52 46 39 42 46 45 47 50 50 48 49 49 50 50 54 56 57
62 61 60 60 60 60 59 57 57 60 63 62 62 63 61 60 53 54 67 70 71 67 62 58 58 56 49 50 47 46 43 47 48 50 52 49 48 50 48 44 47 47 50 52 53
61 61 61 61 61 59 60 59 59 60 62 62 62 62 61 57 40 56 64 67 70 64 61 58 55 49 45 45 49 45 49 50 50 51 50 47 48 45 45 45 52 51 52 53 52
61 61 61 61 61 61 61 61 61 61 62 61 61 61 56 50 48 58 63 63 64 61 57 55 51 48 44 46 48 44 46 50 50 50 48 50 44 42 45 50 50 53 54 52 51
61 61 61 61 60 60 60 61 61 61 61 61 61 59 51 42 56 57 59 61 61 58 55 56 52 52 47 45 44 46 47 47 48 48 48 46 43 44 47 49 52 54 51 50 50
61 60 60 60 60 60 60 60 60 60 61 62 61 57 51 46 57 57 58 57 58 58 54 56 55 52 48 44 47 47 42 43 45 46 44 45 41 42 47 49 52 52 50 49 49
60 60 59 59 59 60 60 60 60 60 61 61 61 53 45 56 57 55 58 60 60 60 58 58 57 51 47 47 45 41 38 34 42 45 45 44 37 45 48 49 47 49 49 48 49
59 59 59 59 59 59 59 60 60 60 61 61 53 51 44 57 51 55 56 54 56 57 57 62 55 46 45 37 30 34 26 33 37 45 43 41 37 44 47 49 46 45 47 47 47
58 58 58 58 59 59 60 59 60 57 55 59 53 44 49 45 50 54 56 56 54 52 52 49 43 38 36 33 25 30 29 33 33 40 41 37 38 43 47 47 45 43 44 45 46
58 58 58 58 59 58 53 48 43 44 47 43 44 45 46 51 54 51 53 52 53 48 39 41 34 27 34 36 36 36 33 33 36 43 38 37 38 41 45 44 43 42 41 43 44
57 58 58 58 58 57 50 43 43 48 37 46 48 47 50 50 45 50 52 46 47 38 41 35 30 38 42 42 40 37 33 31 38 43 39 38 38 42 43 43 44 42 41 42 43
56 57 58 57 56 50 45 45 50 52 36 39 45 44 44 48 44 47 51 49 44 39 38 32 36 43 41 37 37 35 33 32 32 39 39 36 35 38 42 43 43 43 43 43 43
57 57 57 57 49 44 43 49 50 50 30 32 39 43 47 48 43 55 55 49 45 38 39 36 41 40 38 36 37 31 40 40 38 31 25 35 24 34 38 40 42 41 40 40 42
57 57 56 55 45 43 48 49 49 45 20 36 39 49 48 43 43 50 55 51 43 40 39 33 35 36 36 37 40 35 42 39 37 31 25 30 22 32 35 37 40 40 39 39 41
57 57 56 51 46 47 49 47 44 26 20 33 41 39 39 44 44 48 48 52 50 41 39 37 42 41 39 43 42 44 38 35 33 29 19 27 25 29 33 38 39 39 39 40 40
57 57 54 52 46 50 48 42 26 21 34 32 35 39 40 38 43 45 42 41 34 27 24 35 37 42 44 37 41 38 29 15 18 17 19 30 26 32 40 40 41 40 38 39 40
57 55 52 52 49 50 46 33 25 33 33 40 40 41 37 41 42 42 38 34 40 37 27 22 21 37 42 38 35 33 31 19 16 16 19 30 24 33 40 38 39 40 40 40 40
55 45 45 47 51 48 39 25 25 32 39 37 38 34 35 41 40 38 36 36 38 37 29 25 24 41 42 45 42 33 26 35 24 22 23 22 30 38 38 39 38 38 39 38 39
44 43 44 48 47 42 34 30 34 42 43 41 32 38 32 34 34 34 34 38 39 42 40 35 26 39 42 46 43 38 40 27 27 16 18 20 24 29 33 37 39 37 37 38 39
43 41 46 48 45 39 26 30 39 46 46 41 38 39 38 37 37 35 33 39 42 41 41 38 34 38 43 36 34 35 32 32 31 26 19 20 26 36 38 40 40 39 39 39 39
41 36 46 46 37 32 28 38 45 43 45 43 41 41 37 37 35 34 33 37 43 43 36 37 34 27 33 39 41 37 34 33 25 25 26 24 28 39 40 41 40 40 40 39 40
40 40 45 44 32 28 38 41 43 42 42 42 41 42 41 37 34 36 37 43 45 42 37 38 32 22 28 34 36 35 36 36 33 30 25 21 28 40 37 38 39 39 39 39 39
41 35 41 40 37 37 36 37 39 44 43 44 42 43 40 37 39 35 36 42 43 43 48 44 33 30 25 31 33 32 34 35 34 22 25 27 29 37 39 39 40 39 38 38 38
38 35 37 32 38 36 37 39 37 38 42 43 40 40 38 33 34 34 37 37 41 46 39 38 30 27 31 33 34 33 33 33 31 35 29 28 31 40 41 42 43 43 40 38 38
40 39 37 36 38 36 38 35 38 39 39 38 38 40 38 35 38 36 38 35 36 36 35 36 29 29 24 32 31 31 33 35 35 36 36 37 36 48 51 42 39 41 40 40 41
38 39 42 38 36 34 34 36 39 40 41 42 40 38 36 39 39 38 38 38 37 36 35 33 30 26 23 29 30 27 31 35 34 35 39 32 42 45 42 42 42 43 41 41 43